<?xml version="1.0" encoding="UTF-8" standalone="no" ?>
<gpx xmlns="http://www.topografix.com/GPX/1/1" xmlns:xsi="http://www.w3.org/2001/XMLSchema-instance" xsi:schemaLocation="http://www.topografix.com/GPX/1/1 http://www.topografix.com/GPX/1/1/gpx.xsd" version="1.1" creator="VisuGPX - https://www.visugpx.com">
  <metadata>
    <name>LE POUZENC</name>
    <desc><![CDATA[Les copains randonneurs du 04

Au départ du parking Pra Paisset Bois Mean aux Orres 1800. Itinéraire balisé jusqu'au col de Pouzenc ensuite suivre la crête jusqu'au sommet à 2898 m d'alt.]]></desc>
  </metadata>
  <trk>
    <name><![CDATA[LEPOUZENC9 16:48:41]]></name>
    <trkseg>
      <trkpt lat="44.48463" lon="6.55016">
        <ele>1633.9</ele>
        <time>2020-09-09T05:56:53Z</time>
      </trkpt>
      <trkpt lat="44.48455" lon="6.55023">
        <ele>1634.38</ele>
        <time>2020-09-09T05:56:54Z</time>
      </trkpt>
      <trkpt lat="44.4845" lon="6.55014">
        <ele>1637.74</ele>
        <time>2020-09-09T05:57:01Z</time>
      </trkpt>
      <trkpt lat="44.4845" lon="6.55013">
        <ele>1637.74</ele>
        <time>2020-09-09T05:57:02Z</time>
      </trkpt>
      <trkpt lat="44.48451" lon="6.55013">
        <ele>1641.11</ele>
        <time>2020-09-09T05:57:05Z</time>
      </trkpt>
      <trkpt lat="44.48452" lon="6.55014">
        <ele>1644.47</ele>
        <time>2020-09-09T05:57:08Z</time>
      </trkpt>
      <trkpt lat="44.48454" lon="6.55016">
        <ele>1648.32</ele>
        <time>2020-09-09T05:57:12Z</time>
      </trkpt>
      <trkpt lat="44.48456" lon="6.55019">
        <ele>1652.16</ele>
        <time>2020-09-09T05:57:16Z</time>
      </trkpt>
      <trkpt lat="44.48457" lon="6.55018">
        <ele>1655.53</ele>
        <time>2020-09-09T05:57:20Z</time>
      </trkpt>
      <trkpt lat="44.48458" lon="6.55018">
        <ele>1658.89</ele>
        <time>2020-09-09T05:57:24Z</time>
      </trkpt>
      <trkpt lat="44.48458" lon="6.55019">
        <ele>1658.89</ele>
        <time>2020-09-09T05:57:25Z</time>
      </trkpt>
      <trkpt lat="44.48459" lon="6.55019">
        <ele>1661.78</ele>
        <time>2020-09-09T05:57:30Z</time>
      </trkpt>
      <trkpt lat="44.4846" lon="6.5502">
        <ele>1665.14</ele>
        <time>2020-09-09T05:57:39Z</time>
      </trkpt>
      <trkpt lat="44.48458" lon="6.5502">
        <ele>1668.02</ele>
        <time>2020-09-09T05:57:51Z</time>
      </trkpt>
      <trkpt lat="44.48456" lon="6.55022">
        <ele>1671.39</ele>
        <time>2020-09-09T05:58:01Z</time>
      </trkpt>
      <trkpt lat="44.48454" lon="6.55023">
        <ele>1674.27</ele>
        <time>2020-09-09T05:58:12Z</time>
      </trkpt>
      <trkpt lat="44.48453" lon="6.5502">
        <ele>1677.16</ele>
        <time>2020-09-09T05:58:19Z</time>
      </trkpt>
      <trkpt lat="44.48452" lon="6.55014">
        <ele>1678.6</ele>
        <time>2020-09-09T05:58:36Z</time>
      </trkpt>
      <trkpt lat="44.48446" lon="6.55011">
        <ele>1681</ele>
        <time>2020-09-09T05:58:57Z</time>
      </trkpt>
      <trkpt lat="44.48449" lon="6.55009">
        <ele>1680.52</ele>
        <time>2020-09-09T05:59:20Z</time>
      </trkpt>
      <trkpt lat="44.48457" lon="6.55017">
        <ele>1680.04</ele>
        <time>2020-09-09T05:59:39Z</time>
      </trkpt>
      <trkpt lat="44.48455" lon="6.55017">
        <ele>1680.04</ele>
        <time>2020-09-09T06:00:00Z</time>
      </trkpt>
      <trkpt lat="44.48459" lon="6.55033">
        <ele>1680.04</ele>
        <time>2020-09-09T06:00:12Z</time>
      </trkpt>
      <trkpt lat="44.48463" lon="6.55031">
        <ele>1679.08</ele>
        <time>2020-09-09T06:00:25Z</time>
      </trkpt>
      <trkpt lat="44.48462" lon="6.55029">
        <ele>1679.08</ele>
        <time>2020-09-09T06:00:30Z</time>
      </trkpt>
      <trkpt lat="44.48451" lon="6.55022">
        <ele>1679.08</ele>
        <time>2020-09-09T06:00:48Z</time>
      </trkpt>
      <trkpt lat="44.4845" lon="6.55026">
        <ele>1680.04</ele>
        <time>2020-09-09T06:01:06Z</time>
      </trkpt>
      <trkpt lat="44.48449" lon="6.55019">
        <ele>1680.04</ele>
        <time>2020-09-09T06:01:30Z</time>
      </trkpt>
      <trkpt lat="44.48449" lon="6.55018">
        <ele>1680.04</ele>
        <time>2020-09-09T06:01:52Z</time>
      </trkpt>
      <trkpt lat="44.48443" lon="6.55015">
        <ele>1680.04</ele>
        <time>2020-09-09T06:02:11Z</time>
      </trkpt>
      <trkpt lat="44.48438" lon="6.55022">
        <ele>1680.04</ele>
        <time>2020-09-09T06:02:25Z</time>
      </trkpt>
      <trkpt lat="44.48434" lon="6.55023">
        <ele>1680.04</ele>
        <time>2020-09-09T06:02:30Z</time>
      </trkpt>
      <trkpt lat="44.48418" lon="6.55023">
        <ele>1681</ele>
        <time>2020-09-09T06:02:43Z</time>
      </trkpt>
      <trkpt lat="44.48392" lon="6.55018">
        <ele>1681</ele>
        <time>2020-09-09T06:03:00Z</time>
      </trkpt>
      <trkpt lat="44.48373" lon="6.55013">
        <ele>1681</ele>
        <time>2020-09-09T06:03:15Z</time>
      </trkpt>
      <trkpt lat="44.48357" lon="6.55012">
        <ele>1681.48</ele>
        <time>2020-09-09T06:03:28Z</time>
      </trkpt>
      <trkpt lat="44.48335" lon="6.55015">
        <ele>1681.48</ele>
        <time>2020-09-09T06:03:42Z</time>
      </trkpt>
      <trkpt lat="44.48316" lon="6.5502">
        <ele>1681.96</ele>
        <time>2020-09-09T06:03:58Z</time>
      </trkpt>
      <trkpt lat="44.483" lon="6.55022">
        <ele>1681.96</ele>
        <time>2020-09-09T06:04:15Z</time>
      </trkpt>
      <trkpt lat="44.48278" lon="6.55031">
        <ele>1681.96</ele>
        <time>2020-09-09T06:04:33Z</time>
      </trkpt>
      <trkpt lat="44.48258" lon="6.55036">
        <ele>1681.48</ele>
        <time>2020-09-09T06:04:49Z</time>
      </trkpt>
      <trkpt lat="44.48238" lon="6.55038">
        <ele>1681.48</ele>
        <time>2020-09-09T06:05:06Z</time>
      </trkpt>
      <trkpt lat="44.48218" lon="6.55038">
        <ele>1681.48</ele>
        <time>2020-09-09T06:05:23Z</time>
      </trkpt>
      <trkpt lat="44.48198" lon="6.55038">
        <ele>1681.48</ele>
        <time>2020-09-09T06:05:39Z</time>
      </trkpt>
      <trkpt lat="44.4818" lon="6.55031">
        <ele>1682.93</ele>
        <time>2020-09-09T06:05:55Z</time>
      </trkpt>
      <trkpt lat="44.48176" lon="6.5503">
        <ele>1683.41</ele>
        <time>2020-09-09T06:05:59Z</time>
      </trkpt>
      <trkpt lat="44.48155" lon="6.55023">
        <ele>1685.33</ele>
        <time>2020-09-09T06:06:19Z</time>
      </trkpt>
      <trkpt lat="44.48137" lon="6.55018">
        <ele>1686.77</ele>
        <time>2020-09-09T06:06:37Z</time>
      </trkpt>
      <trkpt lat="44.48115" lon="6.55022">
        <ele>1687.73</ele>
        <time>2020-09-09T06:06:53Z</time>
      </trkpt>
      <trkpt lat="44.48098" lon="6.55022">
        <ele>1688.21</ele>
        <time>2020-09-09T06:07:10Z</time>
      </trkpt>
      <trkpt lat="44.48079" lon="6.55015">
        <ele>1689.17</ele>
        <time>2020-09-09T06:07:27Z</time>
      </trkpt>
      <trkpt lat="44.48063" lon="6.55011">
        <ele>1689.65</ele>
        <time>2020-09-09T06:07:41Z</time>
      </trkpt>
      <trkpt lat="44.48041" lon="6.55011">
        <ele>1690.14</ele>
        <time>2020-09-09T06:07:59Z</time>
      </trkpt>
      <trkpt lat="44.4804" lon="6.55011">
        <ele>1690.14</ele>
        <time>2020-09-09T06:08:00Z</time>
      </trkpt>
      <trkpt lat="44.48022" lon="6.55012">
        <ele>1691.1</ele>
        <time>2020-09-09T06:08:16Z</time>
      </trkpt>
      <trkpt lat="44.48005" lon="6.55004">
        <ele>1692.54</ele>
        <time>2020-09-09T06:08:33Z</time>
      </trkpt>
      <trkpt lat="44.47989" lon="6.54989">
        <ele>1695.42</ele>
        <time>2020-09-09T06:08:51Z</time>
      </trkpt>
      <trkpt lat="44.47979" lon="6.54979">
        <ele>1697.34</ele>
        <time>2020-09-09T06:09:05Z</time>
      </trkpt>
      <trkpt lat="44.47969" lon="6.54977">
        <ele>1698.79</ele>
        <time>2020-09-09T06:09:18Z</time>
      </trkpt>
      <trkpt lat="44.47949" lon="6.54977">
        <ele>1701.19</ele>
        <time>2020-09-09T06:09:35Z</time>
      </trkpt>
      <trkpt lat="44.47935" lon="6.54978">
        <ele>1702.63</ele>
        <time>2020-09-09T06:09:49Z</time>
      </trkpt>
      <trkpt lat="44.47912" lon="6.54978">
        <ele>1703.59</ele>
        <time>2020-09-09T06:10:09Z</time>
      </trkpt>
      <trkpt lat="44.47895" lon="6.5498">
        <ele>1704.55</ele>
        <time>2020-09-09T06:10:25Z</time>
      </trkpt>
      <trkpt lat="44.4788" lon="6.54976">
        <ele>1705.52</ele>
        <time>2020-09-09T06:10:42Z</time>
      </trkpt>
      <trkpt lat="44.47859" lon="6.5497">
        <ele>1706</ele>
        <time>2020-09-09T06:10:59Z</time>
      </trkpt>
      <trkpt lat="44.47835" lon="6.54965">
        <ele>1706.48</ele>
        <time>2020-09-09T06:11:17Z</time>
      </trkpt>
      <trkpt lat="44.47821" lon="6.54958">
        <ele>1707.44</ele>
        <time>2020-09-09T06:11:32Z</time>
      </trkpt>
      <trkpt lat="44.47805" lon="6.54951">
        <ele>1707.92</ele>
        <time>2020-09-09T06:11:47Z</time>
      </trkpt>
      <trkpt lat="44.47787" lon="6.54944">
        <ele>1708.88</ele>
        <time>2020-09-09T06:12:01Z</time>
      </trkpt>
      <trkpt lat="44.47781" lon="6.54941">
        <ele>1709.84</ele>
        <time>2020-09-09T06:12:11Z</time>
      </trkpt>
      <trkpt lat="44.4778" lon="6.54927">
        <ele>1710.8</ele>
        <time>2020-09-09T06:12:19Z</time>
      </trkpt>
      <trkpt lat="44.47771" lon="6.54916">
        <ele>1713.21</ele>
        <time>2020-09-09T06:12:34Z</time>
      </trkpt>
      <trkpt lat="44.47756" lon="6.54918">
        <ele>1715.13</ele>
        <time>2020-09-09T06:12:49Z</time>
      </trkpt>
      <trkpt lat="44.47746" lon="6.54917">
        <ele>1716.09</ele>
        <time>2020-09-09T06:13:05Z</time>
      </trkpt>
      <trkpt lat="44.4775" lon="6.54929">
        <ele>1716.09</ele>
        <time>2020-09-09T06:13:28Z</time>
      </trkpt>
      <trkpt lat="44.47751" lon="6.54939">
        <ele>1716.09</ele>
        <time>2020-09-09T06:13:40Z</time>
      </trkpt>
      <trkpt lat="44.47753" lon="6.54921">
        <ele>1716.09</ele>
        <time>2020-09-09T06:14:08Z</time>
      </trkpt>
      <trkpt lat="44.47749" lon="6.54921">
        <ele>1715.61</ele>
        <time>2020-09-09T06:14:22Z</time>
      </trkpt>
      <trkpt lat="44.47745" lon="6.54917">
        <ele>1715.61</ele>
        <time>2020-09-09T06:14:26Z</time>
      </trkpt>
      <trkpt lat="44.4773" lon="6.54903">
        <ele>1716.57</ele>
        <time>2020-09-09T06:14:41Z</time>
      </trkpt>
      <trkpt lat="44.47724" lon="6.54906">
        <ele>1717.53</ele>
        <time>2020-09-09T06:14:55Z</time>
      </trkpt>
      <trkpt lat="44.47728" lon="6.54901">
        <ele>1717.53</ele>
        <time>2020-09-09T06:15:09Z</time>
      </trkpt>
      <trkpt lat="44.47735" lon="6.54899">
        <ele>1717.53</ele>
        <time>2020-09-09T06:15:28Z</time>
      </trkpt>
      <trkpt lat="44.47727" lon="6.54899">
        <ele>1717.53</ele>
        <time>2020-09-09T06:15:44Z</time>
      </trkpt>
      <trkpt lat="44.47721" lon="6.54909">
        <ele>1717.53</ele>
        <time>2020-09-09T06:16:02Z</time>
      </trkpt>
      <trkpt lat="44.47709" lon="6.54906">
        <ele>1717.53</ele>
        <time>2020-09-09T06:16:12Z</time>
      </trkpt>
      <trkpt lat="44.47711" lon="6.549">
        <ele>1716.09</ele>
        <time>2020-09-09T06:16:29Z</time>
      </trkpt>
      <trkpt lat="44.47715" lon="6.54902">
        <ele>1715.61</ele>
        <time>2020-09-09T06:16:43Z</time>
      </trkpt>
      <trkpt lat="44.4771" lon="6.54906">
        <ele>1715.61</ele>
        <time>2020-09-09T06:16:59Z</time>
      </trkpt>
      <trkpt lat="44.47708" lon="6.54912">
        <ele>1717.05</ele>
        <time>2020-09-09T06:17:07Z</time>
      </trkpt>
      <trkpt lat="44.47686" lon="6.54907">
        <ele>1717.53</ele>
        <time>2020-09-09T06:17:23Z</time>
      </trkpt>
      <trkpt lat="44.47667" lon="6.54904">
        <ele>1717.53</ele>
        <time>2020-09-09T06:17:39Z</time>
      </trkpt>
      <trkpt lat="44.47656" lon="6.549">
        <ele>1717.53</ele>
        <time>2020-09-09T06:17:49Z</time>
      </trkpt>
      <trkpt lat="44.47635" lon="6.54892">
        <ele>1718.49</ele>
        <time>2020-09-09T06:18:05Z</time>
      </trkpt>
      <trkpt lat="44.47631" lon="6.54889">
        <ele>1718.49</ele>
        <time>2020-09-09T06:18:09Z</time>
      </trkpt>
      <trkpt lat="44.47617" lon="6.54876">
        <ele>1718.49</ele>
        <time>2020-09-09T06:18:24Z</time>
      </trkpt>
      <trkpt lat="44.47607" lon="6.54866">
        <ele>1718.97</ele>
        <time>2020-09-09T06:18:35Z</time>
      </trkpt>
      <trkpt lat="44.4759" lon="6.54856">
        <ele>1719.46</ele>
        <time>2020-09-09T06:18:51Z</time>
      </trkpt>
      <trkpt lat="44.47572" lon="6.5485">
        <ele>1719.46</ele>
        <time>2020-09-09T06:19:07Z</time>
      </trkpt>
      <trkpt lat="44.47559" lon="6.54844">
        <ele>1719.94</ele>
        <time>2020-09-09T06:19:19Z</time>
      </trkpt>
      <trkpt lat="44.47544" lon="6.5484">
        <ele>1720.42</ele>
        <time>2020-09-09T06:19:33Z</time>
      </trkpt>
      <trkpt lat="44.47524" lon="6.54835">
        <ele>1720.9</ele>
        <time>2020-09-09T06:19:48Z</time>
      </trkpt>
      <trkpt lat="44.47509" lon="6.54831">
        <ele>1721.38</ele>
        <time>2020-09-09T06:20:02Z</time>
      </trkpt>
      <trkpt lat="44.47492" lon="6.54829">
        <ele>1721.38</ele>
        <time>2020-09-09T06:20:15Z</time>
      </trkpt>
      <trkpt lat="44.47475" lon="6.54827">
        <ele>1722.34</ele>
        <time>2020-09-09T06:20:28Z</time>
      </trkpt>
      <trkpt lat="44.47454" lon="6.54824">
        <ele>1722.82</ele>
        <time>2020-09-09T06:20:45Z</time>
      </trkpt>
      <trkpt lat="44.47451" lon="6.54822">
        <ele>1722.82</ele>
        <time>2020-09-09T06:20:47Z</time>
      </trkpt>
      <trkpt lat="44.47438" lon="6.54808">
        <ele>1723.3</ele>
        <time>2020-09-09T06:21:03Z</time>
      </trkpt>
      <trkpt lat="44.47426" lon="6.54795">
        <ele>1724.26</ele>
        <time>2020-09-09T06:21:17Z</time>
      </trkpt>
      <trkpt lat="44.47415" lon="6.54791">
        <ele>1725.22</ele>
        <time>2020-09-09T06:21:29Z</time>
      </trkpt>
      <trkpt lat="44.47404" lon="6.54793">
        <ele>1725.7</ele>
        <time>2020-09-09T06:21:38Z</time>
      </trkpt>
      <trkpt lat="44.47388" lon="6.54793">
        <ele>1726.18</ele>
        <time>2020-09-09T06:21:53Z</time>
      </trkpt>
      <trkpt lat="44.47372" lon="6.54794">
        <ele>1726.67</ele>
        <time>2020-09-09T06:22:08Z</time>
      </trkpt>
      <trkpt lat="44.47356" lon="6.54791">
        <ele>1727.15</ele>
        <time>2020-09-09T06:22:22Z</time>
      </trkpt>
      <trkpt lat="44.47345" lon="6.54789">
        <ele>1727.63</ele>
        <time>2020-09-09T06:22:31Z</time>
      </trkpt>
      <trkpt lat="44.47337" lon="6.54785">
        <ele>1728.11</ele>
        <time>2020-09-09T06:22:39Z</time>
      </trkpt>
      <trkpt lat="44.47332" lon="6.54782">
        <ele>1728.59</ele>
        <time>2020-09-09T06:22:44Z</time>
      </trkpt>
      <trkpt lat="44.47322" lon="6.54767">
        <ele>1729.55</ele>
        <time>2020-09-09T06:23:00Z</time>
      </trkpt>
      <trkpt lat="44.4732" lon="6.54769">
        <ele>1729.55</ele>
        <time>2020-09-09T06:23:02Z</time>
      </trkpt>
      <trkpt lat="44.47322" lon="6.54776">
        <ele>1730.03</ele>
        <time>2020-09-09T06:23:10Z</time>
      </trkpt>
      <trkpt lat="44.4732" lon="6.54769">
        <ele>1730.03</ele>
        <time>2020-09-09T06:23:15Z</time>
      </trkpt>
      <trkpt lat="44.47319" lon="6.54764">
        <ele>1730.51</ele>
        <time>2020-09-09T06:23:18Z</time>
      </trkpt>
      <trkpt lat="44.47304" lon="6.54752">
        <ele>1733.39</ele>
        <time>2020-09-09T06:23:33Z</time>
      </trkpt>
      <trkpt lat="44.47293" lon="6.54743">
        <ele>1736.28</ele>
        <time>2020-09-09T06:23:47Z</time>
      </trkpt>
      <trkpt lat="44.47278" lon="6.54741">
        <ele>1738.2</ele>
        <time>2020-09-09T06:24:00Z</time>
      </trkpt>
      <trkpt lat="44.47264" lon="6.54751">
        <ele>1741.57</ele>
        <time>2020-09-09T06:24:14Z</time>
      </trkpt>
      <trkpt lat="44.47265" lon="6.54748">
        <ele>1743.01</ele>
        <time>2020-09-09T06:24:31Z</time>
      </trkpt>
      <trkpt lat="44.47264" lon="6.5475">
        <ele>1743.01</ele>
        <time>2020-09-09T06:24:34Z</time>
      </trkpt>
      <trkpt lat="44.47248" lon="6.54763">
        <ele>1745.89</ele>
        <time>2020-09-09T06:24:50Z</time>
      </trkpt>
      <trkpt lat="44.47244" lon="6.54763">
        <ele>1746.37</ele>
        <time>2020-09-09T06:25:06Z</time>
      </trkpt>
      <trkpt lat="44.47243" lon="6.54767">
        <ele>1746.85</ele>
        <time>2020-09-09T06:25:17Z</time>
      </trkpt>
      <trkpt lat="44.47239" lon="6.54772">
        <ele>1747.81</ele>
        <time>2020-09-09T06:25:27Z</time>
      </trkpt>
      <trkpt lat="44.47236" lon="6.5478">
        <ele>1748.29</ele>
        <time>2020-09-09T06:25:33Z</time>
      </trkpt>
      <trkpt lat="44.47227" lon="6.5479">
        <ele>1749.74</ele>
        <time>2020-09-09T06:25:47Z</time>
      </trkpt>
      <trkpt lat="44.4723" lon="6.54797">
        <ele>1747.81</ele>
        <time>2020-09-09T06:26:00Z</time>
      </trkpt>
      <trkpt lat="44.4723" lon="6.54793">
        <ele>1747.81</ele>
        <time>2020-09-09T06:26:03Z</time>
      </trkpt>
      <trkpt lat="44.47229" lon="6.54791">
        <ele>1749.26</ele>
        <time>2020-09-09T06:26:05Z</time>
      </trkpt>
      <trkpt lat="44.47222" lon="6.54787">
        <ele>1753.1</ele>
        <time>2020-09-09T06:26:12Z</time>
      </trkpt>
      <trkpt lat="44.47213" lon="6.54787">
        <ele>1752.62</ele>
        <time>2020-09-09T06:26:21Z</time>
      </trkpt>
      <trkpt lat="44.47194" lon="6.54782">
        <ele>1755.02</ele>
        <time>2020-09-09T06:26:35Z</time>
      </trkpt>
      <trkpt lat="44.47179" lon="6.54781">
        <ele>1757.43</ele>
        <time>2020-09-09T06:26:47Z</time>
      </trkpt>
      <trkpt lat="44.47168" lon="6.54781">
        <ele>1759.35</ele>
        <time>2020-09-09T06:26:56Z</time>
      </trkpt>
      <trkpt lat="44.4716" lon="6.54785">
        <ele>1760.31</ele>
        <time>2020-09-09T06:27:11Z</time>
      </trkpt>
      <trkpt lat="44.47146" lon="6.54794">
        <ele>1763.68</ele>
        <time>2020-09-09T06:27:26Z</time>
      </trkpt>
      <trkpt lat="44.47131" lon="6.54803">
        <ele>1767.04</ele>
        <time>2020-09-09T06:27:41Z</time>
      </trkpt>
      <trkpt lat="44.47114" lon="6.5481">
        <ele>1769.92</ele>
        <time>2020-09-09T06:27:58Z</time>
      </trkpt>
      <trkpt lat="44.47099" lon="6.54813">
        <ele>1772.81</ele>
        <time>2020-09-09T06:28:13Z</time>
      </trkpt>
      <trkpt lat="44.47097" lon="6.54814">
        <ele>1772.81</ele>
        <time>2020-09-09T06:28:15Z</time>
      </trkpt>
      <trkpt lat="44.47083" lon="6.54825">
        <ele>1774.73</ele>
        <time>2020-09-09T06:28:29Z</time>
      </trkpt>
      <trkpt lat="44.4707" lon="6.54839">
        <ele>1777.13</ele>
        <time>2020-09-09T06:28:46Z</time>
      </trkpt>
      <trkpt lat="44.47061" lon="6.54847">
        <ele>1778.58</ele>
        <time>2020-09-09T06:29:01Z</time>
      </trkpt>
      <trkpt lat="44.47051" lon="6.54855">
        <ele>1780.02</ele>
        <time>2020-09-09T06:29:15Z</time>
      </trkpt>
      <trkpt lat="44.47041" lon="6.54862">
        <ele>1781.46</ele>
        <time>2020-09-09T06:29:30Z</time>
      </trkpt>
      <trkpt lat="44.47041" lon="6.54862">
        <ele>1781.46</ele>
        <time>2020-09-09T06:29:32Z</time>
      </trkpt>
      <trkpt lat="44.47038" lon="6.54866">
        <ele>1781.46</ele>
        <time>2020-09-09T06:29:35Z</time>
      </trkpt>
      <trkpt lat="44.47019" lon="6.5487">
        <ele>1783.86</ele>
        <time>2020-09-09T06:29:51Z</time>
      </trkpt>
      <trkpt lat="44.47007" lon="6.54866">
        <ele>1785.79</ele>
        <time>2020-09-09T06:30:05Z</time>
      </trkpt>
      <trkpt lat="44.46992" lon="6.54865">
        <ele>1787.71</ele>
        <time>2020-09-09T06:30:21Z</time>
      </trkpt>
      <trkpt lat="44.46974" lon="6.54865">
        <ele>1789.63</ele>
        <time>2020-09-09T06:30:38Z</time>
      </trkpt>
      <trkpt lat="44.46957" lon="6.54864">
        <ele>1791.07</ele>
        <time>2020-09-09T06:30:54Z</time>
      </trkpt>
      <trkpt lat="44.46945" lon="6.54864">
        <ele>1793</ele>
        <time>2020-09-09T06:31:08Z</time>
      </trkpt>
      <trkpt lat="44.46937" lon="6.54869">
        <ele>1793.96</ele>
        <time>2020-09-09T06:31:18Z</time>
      </trkpt>
      <trkpt lat="44.46934" lon="6.54878">
        <ele>1792.52</ele>
        <time>2020-09-09T06:31:23Z</time>
      </trkpt>
      <trkpt lat="44.46934" lon="6.54885">
        <ele>1792.52</ele>
        <time>2020-09-09T06:31:38Z</time>
      </trkpt>
      <trkpt lat="44.46932" lon="6.54886">
        <ele>1792.52</ele>
        <time>2020-09-09T06:31:39Z</time>
      </trkpt>
      <trkpt lat="44.46929" lon="6.54881">
        <ele>1794.92</ele>
        <time>2020-09-09T06:31:43Z</time>
      </trkpt>
      <trkpt lat="44.46923" lon="6.54877">
        <ele>1796.36</ele>
        <time>2020-09-09T06:31:54Z</time>
      </trkpt>
      <trkpt lat="44.46908" lon="6.54869">
        <ele>1798.28</ele>
        <time>2020-09-09T06:32:09Z</time>
      </trkpt>
      <trkpt lat="44.46886" lon="6.54865">
        <ele>1800.69</ele>
        <time>2020-09-09T06:32:27Z</time>
      </trkpt>
      <trkpt lat="44.46866" lon="6.54853">
        <ele>1802.61</ele>
        <time>2020-09-09T06:32:43Z</time>
      </trkpt>
      <trkpt lat="44.46855" lon="6.54834">
        <ele>1805.01</ele>
        <time>2020-09-09T06:33:01Z</time>
      </trkpt>
      <trkpt lat="44.46854" lon="6.54816">
        <ele>1806.45</ele>
        <time>2020-09-09T06:33:15Z</time>
      </trkpt>
      <trkpt lat="44.46852" lon="6.54799">
        <ele>1808.38</ele>
        <time>2020-09-09T06:33:30Z</time>
      </trkpt>
      <trkpt lat="44.46848" lon="6.54781">
        <ele>1810.78</ele>
        <time>2020-09-09T06:33:45Z</time>
      </trkpt>
      <trkpt lat="44.46845" lon="6.54773">
        <ele>1812.22</ele>
        <time>2020-09-09T06:33:52Z</time>
      </trkpt>
      <trkpt lat="44.46842" lon="6.54757">
        <ele>1814.15</ele>
        <time>2020-09-09T06:34:06Z</time>
      </trkpt>
      <trkpt lat="44.46842" lon="6.54738">
        <ele>1816.55</ele>
        <time>2020-09-09T06:34:22Z</time>
      </trkpt>
      <trkpt lat="44.46842" lon="6.54737">
        <ele>1817.51</ele>
        <time>2020-09-09T06:34:24Z</time>
      </trkpt>
      <trkpt lat="44.46843" lon="6.54714">
        <ele>1819.91</ele>
        <time>2020-09-09T06:34:46Z</time>
      </trkpt>
      <trkpt lat="44.46842" lon="6.54692">
        <ele>1822.8</ele>
        <time>2020-09-09T06:35:02Z</time>
      </trkpt>
      <trkpt lat="44.4684" lon="6.54671">
        <ele>1825.68</ele>
        <time>2020-09-09T06:35:21Z</time>
      </trkpt>
      <trkpt lat="44.46835" lon="6.54649">
        <ele>1829.05</ele>
        <time>2020-09-09T06:35:40Z</time>
      </trkpt>
      <trkpt lat="44.4684" lon="6.54631">
        <ele>1831.45</ele>
        <time>2020-09-09T06:35:59Z</time>
      </trkpt>
      <trkpt lat="44.46849" lon="6.54612">
        <ele>1834.33</ele>
        <time>2020-09-09T06:36:19Z</time>
      </trkpt>
      <trkpt lat="44.46862" lon="6.54597">
        <ele>1836.26</ele>
        <time>2020-09-09T06:36:39Z</time>
      </trkpt>
      <trkpt lat="44.46863" lon="6.54588">
        <ele>1838.18</ele>
        <time>2020-09-09T06:36:56Z</time>
      </trkpt>
      <trkpt lat="44.46863" lon="6.54589">
        <ele>1836.26</ele>
        <time>2020-09-09T06:37:14Z</time>
      </trkpt>
      <trkpt lat="44.46862" lon="6.5459">
        <ele>1837.7</ele>
        <time>2020-09-09T06:37:30Z</time>
      </trkpt>
      <trkpt lat="44.46862" lon="6.54588">
        <ele>1836.26</ele>
        <time>2020-09-09T06:37:44Z</time>
      </trkpt>
      <trkpt lat="44.46861" lon="6.54586">
        <ele>1837.7</ele>
        <time>2020-09-09T06:37:51Z</time>
      </trkpt>
      <trkpt lat="44.46862" lon="6.54587">
        <ele>1837.7</ele>
        <time>2020-09-09T06:38:19Z</time>
      </trkpt>
      <trkpt lat="44.4686" lon="6.54587">
        <ele>1837.7</ele>
        <time>2020-09-09T06:38:37Z</time>
      </trkpt>
      <trkpt lat="44.46859" lon="6.54586">
        <ele>1836.26</ele>
        <time>2020-09-09T06:38:59Z</time>
      </trkpt>
      <trkpt lat="44.46861" lon="6.54589">
        <ele>1835.77</ele>
        <time>2020-09-09T06:39:26Z</time>
      </trkpt>
      <trkpt lat="44.46859" lon="6.54587">
        <ele>1835.77</ele>
        <time>2020-09-09T06:39:50Z</time>
      </trkpt>
      <trkpt lat="44.46855" lon="6.54582">
        <ele>1836.26</ele>
        <time>2020-09-09T06:40:11Z</time>
      </trkpt>
      <trkpt lat="44.46841" lon="6.54575">
        <ele>1839.14</ele>
        <time>2020-09-09T06:40:27Z</time>
      </trkpt>
      <trkpt lat="44.46829" lon="6.54566">
        <ele>1840.58</ele>
        <time>2020-09-09T06:40:42Z</time>
      </trkpt>
      <trkpt lat="44.46811" lon="6.54565">
        <ele>1843.95</ele>
        <time>2020-09-09T06:40:59Z</time>
      </trkpt>
      <trkpt lat="44.46806" lon="6.54566">
        <ele>1844.91</ele>
        <time>2020-09-09T06:41:05Z</time>
      </trkpt>
      <trkpt lat="44.46791" lon="6.54565">
        <ele>1847.79</ele>
        <time>2020-09-09T06:41:21Z</time>
      </trkpt>
      <trkpt lat="44.46786" lon="6.54565">
        <ele>1848.75</ele>
        <time>2020-09-09T06:41:38Z</time>
      </trkpt>
      <trkpt lat="44.46775" lon="6.54574">
        <ele>1850.68</ele>
        <time>2020-09-09T06:41:52Z</time>
      </trkpt>
      <trkpt lat="44.46776" lon="6.54594">
        <ele>1853.56</ele>
        <time>2020-09-09T06:42:07Z</time>
      </trkpt>
      <trkpt lat="44.46776" lon="6.5461">
        <ele>1855.96</ele>
        <time>2020-09-09T06:42:21Z</time>
      </trkpt>
      <trkpt lat="44.46773" lon="6.54626">
        <ele>1858.37</ele>
        <time>2020-09-09T06:42:35Z</time>
      </trkpt>
      <trkpt lat="44.46765" lon="6.54645">
        <ele>1860.29</ele>
        <time>2020-09-09T06:42:51Z</time>
      </trkpt>
      <trkpt lat="44.46763" lon="6.54647">
        <ele>1860.77</ele>
        <time>2020-09-09T06:42:54Z</time>
      </trkpt>
      <trkpt lat="44.4675" lon="6.54663">
        <ele>1863.65</ele>
        <time>2020-09-09T06:43:14Z</time>
      </trkpt>
      <trkpt lat="44.46739" lon="6.54681">
        <ele>1865.58</ele>
        <time>2020-09-09T06:43:30Z</time>
      </trkpt>
      <trkpt lat="44.46733" lon="6.54696">
        <ele>1868.46</ele>
        <time>2020-09-09T06:43:45Z</time>
      </trkpt>
      <trkpt lat="44.46725" lon="6.54721">
        <ele>1870.86</ele>
        <time>2020-09-09T06:44:05Z</time>
      </trkpt>
      <trkpt lat="44.4672" lon="6.54736">
        <ele>1873.75</ele>
        <time>2020-09-09T06:44:21Z</time>
      </trkpt>
      <trkpt lat="44.46715" lon="6.54746">
        <ele>1877.11</ele>
        <time>2020-09-09T06:44:35Z</time>
      </trkpt>
      <trkpt lat="44.46707" lon="6.54766">
        <ele>1880.48</ele>
        <time>2020-09-09T06:44:55Z</time>
      </trkpt>
      <trkpt lat="44.46697" lon="6.54788">
        <ele>1883.84</ele>
        <time>2020-09-09T06:45:17Z</time>
      </trkpt>
      <trkpt lat="44.4669" lon="6.54805">
        <ele>1886.72</ele>
        <time>2020-09-09T06:45:34Z</time>
      </trkpt>
      <trkpt lat="44.46684" lon="6.54827">
        <ele>1890.09</ele>
        <time>2020-09-09T06:45:53Z</time>
      </trkpt>
      <trkpt lat="44.46681" lon="6.54842">
        <ele>1892.97</ele>
        <time>2020-09-09T06:46:10Z</time>
      </trkpt>
      <trkpt lat="44.46678" lon="6.54862">
        <ele>1895.86</ele>
        <time>2020-09-09T06:46:28Z</time>
      </trkpt>
      <trkpt lat="44.46676" lon="6.54881">
        <ele>1898.74</ele>
        <time>2020-09-09T06:46:46Z</time>
      </trkpt>
      <trkpt lat="44.46671" lon="6.54894">
        <ele>1902.11</ele>
        <time>2020-09-09T06:47:01Z</time>
      </trkpt>
      <trkpt lat="44.46674" lon="6.54912">
        <ele>1904.03</ele>
        <time>2020-09-09T06:47:15Z</time>
      </trkpt>
      <trkpt lat="44.46681" lon="6.54927">
        <ele>1905.95</ele>
        <time>2020-09-09T06:47:32Z</time>
      </trkpt>
      <trkpt lat="44.46671" lon="6.54937">
        <ele>1908.35</ele>
        <time>2020-09-09T06:47:46Z</time>
      </trkpt>
      <trkpt lat="44.46657" lon="6.54926">
        <ele>1911.24</ele>
        <time>2020-09-09T06:48:05Z</time>
      </trkpt>
      <trkpt lat="44.46656" lon="6.54925">
        <ele>1910.76</ele>
        <time>2020-09-09T06:48:06Z</time>
      </trkpt>
      <trkpt lat="44.46652" lon="6.54922">
        <ele>1912.68</ele>
        <time>2020-09-09T06:48:23Z</time>
      </trkpt>
      <trkpt lat="44.46652" lon="6.54924">
        <ele>1912.68</ele>
        <time>2020-09-09T06:48:44Z</time>
      </trkpt>
      <trkpt lat="44.4665" lon="6.54924">
        <ele>1912.68</ele>
        <time>2020-09-09T06:49:14Z</time>
      </trkpt>
      <trkpt lat="44.46643" lon="6.54921">
        <ele>1913.64</ele>
        <time>2020-09-09T06:49:34Z</time>
      </trkpt>
      <trkpt lat="44.46636" lon="6.54935">
        <ele>1917.01</ele>
        <time>2020-09-09T06:49:51Z</time>
      </trkpt>
      <trkpt lat="44.46631" lon="6.54952">
        <ele>1918.93</ele>
        <time>2020-09-09T06:50:07Z</time>
      </trkpt>
      <trkpt lat="44.46628" lon="6.54956">
        <ele>1918.93</ele>
        <time>2020-09-09T06:50:11Z</time>
      </trkpt>
      <trkpt lat="44.46618" lon="6.54976">
        <ele>1920.85</ele>
        <time>2020-09-09T06:50:29Z</time>
      </trkpt>
      <trkpt lat="44.46609" lon="6.54994">
        <ele>1922.29</ele>
        <time>2020-09-09T06:50:46Z</time>
      </trkpt>
      <trkpt lat="44.46605" lon="6.55011">
        <ele>1924.22</ele>
        <time>2020-09-09T06:50:59Z</time>
      </trkpt>
      <trkpt lat="44.46603" lon="6.5503">
        <ele>1926.62</ele>
        <time>2020-09-09T06:51:14Z</time>
      </trkpt>
      <trkpt lat="44.46596" lon="6.55024">
        <ele>1929.02</ele>
        <time>2020-09-09T06:51:29Z</time>
      </trkpt>
      <trkpt lat="44.46599" lon="6.55013">
        <ele>1930.46</ele>
        <time>2020-09-09T06:51:44Z</time>
      </trkpt>
      <trkpt lat="44.46601" lon="6.55015">
        <ele>1929.98</ele>
        <time>2020-09-09T06:52:08Z</time>
      </trkpt>
      <trkpt lat="44.46598" lon="6.55003">
        <ele>1930.95</ele>
        <time>2020-09-09T06:52:25Z</time>
      </trkpt>
      <trkpt lat="44.46593" lon="6.54985">
        <ele>1932.87</ele>
        <time>2020-09-09T06:52:41Z</time>
      </trkpt>
      <trkpt lat="44.46588" lon="6.54963">
        <ele>1934.31</ele>
        <time>2020-09-09T06:53:00Z</time>
      </trkpt>
      <trkpt lat="44.46588" lon="6.54941">
        <ele>1936.23</ele>
        <time>2020-09-09T06:53:17Z</time>
      </trkpt>
      <trkpt lat="44.46591" lon="6.54922">
        <ele>1939.6</ele>
        <time>2020-09-09T06:53:36Z</time>
      </trkpt>
      <trkpt lat="44.46589" lon="6.54903">
        <ele>1942.48</ele>
        <time>2020-09-09T06:53:55Z</time>
      </trkpt>
      <trkpt lat="44.46584" lon="6.54888">
        <ele>1943.92</ele>
        <time>2020-09-09T06:54:12Z</time>
      </trkpt>
      <trkpt lat="44.46584" lon="6.54889">
        <ele>1943.92</ele>
        <time>2020-09-09T06:54:35Z</time>
      </trkpt>
      <trkpt lat="44.46586" lon="6.54869">
        <ele>1944.88</ele>
        <time>2020-09-09T06:54:51Z</time>
      </trkpt>
      <trkpt lat="44.46592" lon="6.54845">
        <ele>1947.29</ele>
        <time>2020-09-09T06:55:09Z</time>
      </trkpt>
      <trkpt lat="44.46599" lon="6.54819">
        <ele>1949.21</ele>
        <time>2020-09-09T06:55:27Z</time>
      </trkpt>
      <trkpt lat="44.46599" lon="6.54816">
        <ele>1949.21</ele>
        <time>2020-09-09T06:55:29Z</time>
      </trkpt>
      <trkpt lat="44.46604" lon="6.54788">
        <ele>1951.13</ele>
        <time>2020-09-09T06:55:48Z</time>
      </trkpt>
      <trkpt lat="44.46609" lon="6.5476">
        <ele>1952.57</ele>
        <time>2020-09-09T06:56:08Z</time>
      </trkpt>
      <trkpt lat="44.4661" lon="6.54753">
        <ele>1953.06</ele>
        <time>2020-09-09T06:56:13Z</time>
      </trkpt>
      <trkpt lat="44.46609" lon="6.54735">
        <ele>1954.5</ele>
        <time>2020-09-09T06:56:28Z</time>
      </trkpt>
      <trkpt lat="44.4661" lon="6.54722">
        <ele>1954.98</ele>
        <time>2020-09-09T06:56:47Z</time>
      </trkpt>
      <trkpt lat="44.46615" lon="6.54703">
        <ele>1956.9</ele>
        <time>2020-09-09T06:57:05Z</time>
      </trkpt>
      <trkpt lat="44.46612" lon="6.54684">
        <ele>1960.27</ele>
        <time>2020-09-09T06:57:23Z</time>
      </trkpt>
      <trkpt lat="44.46613" lon="6.54664">
        <ele>1962.67</ele>
        <time>2020-09-09T06:57:40Z</time>
      </trkpt>
      <trkpt lat="44.46618" lon="6.54648">
        <ele>1966.03</ele>
        <time>2020-09-09T06:57:55Z</time>
      </trkpt>
      <trkpt lat="44.4662" lon="6.54634">
        <ele>1968.92</ele>
        <time>2020-09-09T06:58:12Z</time>
      </trkpt>
      <trkpt lat="44.46628" lon="6.54617">
        <ele>1970.84</ele>
        <time>2020-09-09T06:58:30Z</time>
      </trkpt>
      <trkpt lat="44.46635" lon="6.54595">
        <ele>1972.28</ele>
        <time>2020-09-09T06:58:48Z</time>
      </trkpt>
      <trkpt lat="44.46638" lon="6.54568">
        <ele>1973.24</ele>
        <time>2020-09-09T06:59:05Z</time>
      </trkpt>
      <trkpt lat="44.46643" lon="6.5455">
        <ele>1971.32</ele>
        <time>2020-09-09T06:59:16Z</time>
      </trkpt>
      <trkpt lat="44.46658" lon="6.5454">
        <ele>1970.36</ele>
        <time>2020-09-09T06:59:31Z</time>
      </trkpt>
      <trkpt lat="44.46675" lon="6.5454">
        <ele>1969.4</ele>
        <time>2020-09-09T06:59:49Z</time>
      </trkpt>
      <trkpt lat="44.46694" lon="6.54528">
        <ele>1968.92</ele>
        <time>2020-09-09T07:00:06Z</time>
      </trkpt>
      <trkpt lat="44.467" lon="6.54499">
        <ele>1967.48</ele>
        <time>2020-09-09T07:00:22Z</time>
      </trkpt>
      <trkpt lat="44.467" lon="6.5447">
        <ele>1966.51</ele>
        <time>2020-09-09T07:00:40Z</time>
      </trkpt>
      <trkpt lat="44.46701" lon="6.54436">
        <ele>1965.07</ele>
        <time>2020-09-09T07:00:57Z</time>
      </trkpt>
      <trkpt lat="44.46705" lon="6.54422">
        <ele>1964.59</ele>
        <time>2020-09-09T07:01:08Z</time>
      </trkpt>
      <trkpt lat="44.46716" lon="6.54398">
        <ele>1964.59</ele>
        <time>2020-09-09T07:01:27Z</time>
      </trkpt>
      <trkpt lat="44.46723" lon="6.54372">
        <ele>1963.63</ele>
        <time>2020-09-09T07:01:45Z</time>
      </trkpt>
      <trkpt lat="44.46731" lon="6.54343">
        <ele>1963.63</ele>
        <time>2020-09-09T07:02:02Z</time>
      </trkpt>
      <trkpt lat="44.46742" lon="6.54319">
        <ele>1963.63</ele>
        <time>2020-09-09T07:02:21Z</time>
      </trkpt>
      <trkpt lat="44.46749" lon="6.5431">
        <ele>1962.19</ele>
        <time>2020-09-09T07:02:39Z</time>
      </trkpt>
      <trkpt lat="44.46746" lon="6.54297">
        <ele>1961.71</ele>
        <time>2020-09-09T07:03:08Z</time>
      </trkpt>
      <trkpt lat="44.4675" lon="6.54293">
        <ele>1961.23</ele>
        <time>2020-09-09T07:03:15Z</time>
      </trkpt>
      <trkpt lat="44.46753" lon="6.54293">
        <ele>1958.82</ele>
        <time>2020-09-09T07:03:17Z</time>
      </trkpt>
      <trkpt lat="44.46755" lon="6.54294">
        <ele>1958.82</ele>
        <time>2020-09-09T07:03:32Z</time>
      </trkpt>
      <trkpt lat="44.46755" lon="6.54297">
        <ele>1958.82</ele>
        <time>2020-09-09T07:03:47Z</time>
      </trkpt>
      <trkpt lat="44.46753" lon="6.54297">
        <ele>1958.82</ele>
        <time>2020-09-09T07:04:02Z</time>
      </trkpt>
      <trkpt lat="44.46756" lon="6.54292">
        <ele>1958.82</ele>
        <time>2020-09-09T07:04:18Z</time>
      </trkpt>
      <trkpt lat="44.46754" lon="6.54297">
        <ele>1958.82</ele>
        <time>2020-09-09T07:04:34Z</time>
      </trkpt>
      <trkpt lat="44.46754" lon="6.54296">
        <ele>1958.34</ele>
        <time>2020-09-09T07:04:41Z</time>
      </trkpt>
      <trkpt lat="44.46752" lon="6.54294">
        <ele>1958.34</ele>
        <time>2020-09-09T07:04:54Z</time>
      </trkpt>
      <trkpt lat="44.46749" lon="6.54297">
        <ele>1958.34</ele>
        <time>2020-09-09T07:05:21Z</time>
      </trkpt>
      <trkpt lat="44.46751" lon="6.54298">
        <ele>1958.34</ele>
        <time>2020-09-09T07:05:47Z</time>
      </trkpt>
      <trkpt lat="44.46751" lon="6.54294">
        <ele>1958.34</ele>
        <time>2020-09-09T07:06:19Z</time>
      </trkpt>
      <trkpt lat="44.46747" lon="6.54294">
        <ele>1958.34</ele>
        <time>2020-09-09T07:06:46Z</time>
      </trkpt>
      <trkpt lat="44.46745" lon="6.54295">
        <ele>1958.82</ele>
        <time>2020-09-09T07:07:12Z</time>
      </trkpt>
      <trkpt lat="44.4675" lon="6.54297">
        <ele>1958.82</ele>
        <time>2020-09-09T07:07:40Z</time>
      </trkpt>
      <trkpt lat="44.46752" lon="6.54294">
        <ele>1958.82</ele>
        <time>2020-09-09T07:08:04Z</time>
      </trkpt>
      <trkpt lat="44.46753" lon="6.54294">
        <ele>1958.82</ele>
        <time>2020-09-09T07:08:30Z</time>
      </trkpt>
      <trkpt lat="44.4675" lon="6.54294">
        <ele>1958.34</ele>
        <time>2020-09-09T07:08:56Z</time>
      </trkpt>
      <trkpt lat="44.46751" lon="6.54292">
        <ele>1959.3</ele>
        <time>2020-09-09T07:09:17Z</time>
      </trkpt>
      <trkpt lat="44.46753" lon="6.54295">
        <ele>1959.3</ele>
        <time>2020-09-09T07:09:29Z</time>
      </trkpt>
      <trkpt lat="44.46752" lon="6.54297">
        <ele>1959.3</ele>
        <time>2020-09-09T07:09:43Z</time>
      </trkpt>
      <trkpt lat="44.46753" lon="6.54294">
        <ele>1959.3</ele>
        <time>2020-09-09T07:09:59Z</time>
      </trkpt>
      <trkpt lat="44.46753" lon="6.54299">
        <ele>1959.3</ele>
        <time>2020-09-09T07:10:20Z</time>
      </trkpt>
      <trkpt lat="44.4675" lon="6.54303">
        <ele>1957.86</ele>
        <time>2020-09-09T07:10:34Z</time>
      </trkpt>
      <trkpt lat="44.46748" lon="6.54304">
        <ele>1959.3</ele>
        <time>2020-09-09T07:10:39Z</time>
      </trkpt>
      <trkpt lat="44.46739" lon="6.54314">
        <ele>1961.23</ele>
        <time>2020-09-09T07:10:56Z</time>
      </trkpt>
      <trkpt lat="44.46729" lon="6.54335">
        <ele>1962.67</ele>
        <time>2020-09-09T07:11:16Z</time>
      </trkpt>
      <trkpt lat="44.46723" lon="6.54363">
        <ele>1962.67</ele>
        <time>2020-09-09T07:11:36Z</time>
      </trkpt>
      <trkpt lat="44.46719" lon="6.54381">
        <ele>1963.15</ele>
        <time>2020-09-09T07:11:52Z</time>
      </trkpt>
      <trkpt lat="44.46715" lon="6.5439">
        <ele>1964.11</ele>
        <time>2020-09-09T07:12:08Z</time>
      </trkpt>
      <trkpt lat="44.4671" lon="6.54401">
        <ele>1966.51</ele>
        <time>2020-09-09T07:12:28Z</time>
      </trkpt>
      <trkpt lat="44.46707" lon="6.54406">
        <ele>1969.88</ele>
        <time>2020-09-09T07:12:47Z</time>
      </trkpt>
      <trkpt lat="44.46693" lon="6.54412">
        <ele>1972.76</ele>
        <time>2020-09-09T07:13:09Z</time>
      </trkpt>
      <trkpt lat="44.46685" lon="6.54422">
        <ele>1975.17</ele>
        <time>2020-09-09T07:13:30Z</time>
      </trkpt>
      <trkpt lat="44.46681" lon="6.54428">
        <ele>1977.57</ele>
        <time>2020-09-09T07:13:48Z</time>
      </trkpt>
      <trkpt lat="44.46677" lon="6.54431">
        <ele>1980.93</ele>
        <time>2020-09-09T07:14:09Z</time>
      </trkpt>
      <trkpt lat="44.46672" lon="6.54444">
        <ele>1983.82</ele>
        <time>2020-09-09T07:14:26Z</time>
      </trkpt>
      <trkpt lat="44.46663" lon="6.54446">
        <ele>1987.18</ele>
        <time>2020-09-09T07:14:46Z</time>
      </trkpt>
      <trkpt lat="44.46654" lon="6.54456">
        <ele>1989.59</ele>
        <time>2020-09-09T07:15:08Z</time>
      </trkpt>
      <trkpt lat="44.46652" lon="6.54468">
        <ele>1991.51</ele>
        <time>2020-09-09T07:15:25Z</time>
      </trkpt>
      <trkpt lat="44.4665" lon="6.54479">
        <ele>1994.87</ele>
        <time>2020-09-09T07:15:42Z</time>
      </trkpt>
      <trkpt lat="44.46648" lon="6.5448">
        <ele>1996.8</ele>
        <time>2020-09-09T07:16:00Z</time>
      </trkpt>
      <trkpt lat="44.46643" lon="6.54488">
        <ele>1997.76</ele>
        <time>2020-09-09T07:16:23Z</time>
      </trkpt>
      <trkpt lat="44.46641" lon="6.54491">
        <ele>1997.76</ele>
        <time>2020-09-09T07:16:49Z</time>
      </trkpt>
      <trkpt lat="44.46642" lon="6.54492">
        <ele>1997.76</ele>
        <time>2020-09-09T07:17:22Z</time>
      </trkpt>
      <trkpt lat="44.46635" lon="6.54485">
        <ele>1998.24</ele>
        <time>2020-09-09T07:17:49Z</time>
      </trkpt>
      <trkpt lat="44.46628" lon="6.54471">
        <ele>2001.6</ele>
        <time>2020-09-09T07:18:06Z</time>
      </trkpt>
      <trkpt lat="44.46622" lon="6.54471">
        <ele>2004.97</ele>
        <time>2020-09-09T07:18:23Z</time>
      </trkpt>
      <trkpt lat="44.46613" lon="6.54465">
        <ele>2007.85</ele>
        <time>2020-09-09T07:18:41Z</time>
      </trkpt>
      <trkpt lat="44.46606" lon="6.54474">
        <ele>2010.73</ele>
        <time>2020-09-09T07:18:59Z</time>
      </trkpt>
      <trkpt lat="44.466" lon="6.5447">
        <ele>2014.1</ele>
        <time>2020-09-09T07:19:20Z</time>
      </trkpt>
      <trkpt lat="44.46595" lon="6.54475">
        <ele>2017.46</ele>
        <time>2020-09-09T07:19:38Z</time>
      </trkpt>
      <trkpt lat="44.46588" lon="6.54472">
        <ele>2020.83</ele>
        <time>2020-09-09T07:19:58Z</time>
      </trkpt>
      <trkpt lat="44.46577" lon="6.5447">
        <ele>2023.23</ele>
        <time>2020-09-09T07:20:16Z</time>
      </trkpt>
      <trkpt lat="44.46569" lon="6.54464">
        <ele>2026.12</ele>
        <time>2020-09-09T07:20:34Z</time>
      </trkpt>
      <trkpt lat="44.46556" lon="6.54462">
        <ele>2027.08</ele>
        <time>2020-09-09T07:20:50Z</time>
      </trkpt>
      <trkpt lat="44.46543" lon="6.54468">
        <ele>2029.96</ele>
        <time>2020-09-09T07:21:11Z</time>
      </trkpt>
      <trkpt lat="44.4654" lon="6.54456">
        <ele>2033.33</ele>
        <time>2020-09-09T07:21:27Z</time>
      </trkpt>
      <trkpt lat="44.46535" lon="6.54444">
        <ele>2036.21</ele>
        <time>2020-09-09T07:21:45Z</time>
      </trkpt>
      <trkpt lat="44.46536" lon="6.54431">
        <ele>2038.13</ele>
        <time>2020-09-09T07:22:04Z</time>
      </trkpt>
      <trkpt lat="44.46535" lon="6.54417">
        <ele>2041.5</ele>
        <time>2020-09-09T07:22:21Z</time>
      </trkpt>
      <trkpt lat="44.46537" lon="6.54398">
        <ele>2043.9</ele>
        <time>2020-09-09T07:22:39Z</time>
      </trkpt>
      <trkpt lat="44.46531" lon="6.5439">
        <ele>2045.82</ele>
        <time>2020-09-09T07:22:57Z</time>
      </trkpt>
      <trkpt lat="44.46531" lon="6.54388">
        <ele>2046.78</ele>
        <time>2020-09-09T07:23:12Z</time>
      </trkpt>
      <trkpt lat="44.46533" lon="6.54386">
        <ele>2047.26</ele>
        <time>2020-09-09T07:23:34Z</time>
      </trkpt>
      <trkpt lat="44.46533" lon="6.54386">
        <ele>2047.26</ele>
        <time>2020-09-09T07:24:00Z</time>
      </trkpt>
      <trkpt lat="44.46534" lon="6.54385">
        <ele>2047.26</ele>
        <time>2020-09-09T07:24:23Z</time>
      </trkpt>
      <trkpt lat="44.46534" lon="6.54387">
        <ele>2047.26</ele>
        <time>2020-09-09T07:24:52Z</time>
      </trkpt>
      <trkpt lat="44.46531" lon="6.54391">
        <ele>2047.26</ele>
        <time>2020-09-09T07:25:20Z</time>
      </trkpt>
      <trkpt lat="44.46527" lon="6.54381">
        <ele>2049.19</ele>
        <time>2020-09-09T07:25:40Z</time>
      </trkpt>
      <trkpt lat="44.4652" lon="6.54369">
        <ele>2052.07</ele>
        <time>2020-09-09T07:26:00Z</time>
      </trkpt>
      <trkpt lat="44.46519" lon="6.54357">
        <ele>2055.44</ele>
        <time>2020-09-09T07:26:16Z</time>
      </trkpt>
      <trkpt lat="44.46517" lon="6.54349">
        <ele>2057.36</ele>
        <time>2020-09-09T07:26:31Z</time>
      </trkpt>
      <trkpt lat="44.46513" lon="6.54339">
        <ele>2060.72</ele>
        <time>2020-09-09T07:26:52Z</time>
      </trkpt>
      <trkpt lat="44.4651" lon="6.54331">
        <ele>2063.61</ele>
        <time>2020-09-09T07:27:09Z</time>
      </trkpt>
      <trkpt lat="44.46504" lon="6.54335">
        <ele>2066.49</ele>
        <time>2020-09-09T07:27:26Z</time>
      </trkpt>
      <trkpt lat="44.46496" lon="6.54331">
        <ele>2068.89</ele>
        <time>2020-09-09T07:27:43Z</time>
      </trkpt>
      <trkpt lat="44.46487" lon="6.54317">
        <ele>2070.34</ele>
        <time>2020-09-09T07:28:01Z</time>
      </trkpt>
      <trkpt lat="44.46474" lon="6.54307">
        <ele>2070.82</ele>
        <time>2020-09-09T07:28:18Z</time>
      </trkpt>
      <trkpt lat="44.46462" lon="6.543">
        <ele>2072.74</ele>
        <time>2020-09-09T07:28:37Z</time>
      </trkpt>
      <trkpt lat="44.4645" lon="6.54295">
        <ele>2075.62</ele>
        <time>2020-09-09T07:28:56Z</time>
      </trkpt>
      <trkpt lat="44.46438" lon="6.54291">
        <ele>2076.59</ele>
        <time>2020-09-09T07:29:12Z</time>
      </trkpt>
      <trkpt lat="44.4643" lon="6.54286">
        <ele>2078.03</ele>
        <time>2020-09-09T07:29:30Z</time>
      </trkpt>
      <trkpt lat="44.46425" lon="6.54282">
        <ele>2078.51</ele>
        <time>2020-09-09T07:29:48Z</time>
      </trkpt>
      <trkpt lat="44.4642" lon="6.54281">
        <ele>2079.47</ele>
        <time>2020-09-09T07:29:54Z</time>
      </trkpt>
      <trkpt lat="44.46407" lon="6.54276">
        <ele>2080.91</ele>
        <time>2020-09-09T07:30:10Z</time>
      </trkpt>
      <trkpt lat="44.46393" lon="6.54276">
        <ele>2082.35</ele>
        <time>2020-09-09T07:30:26Z</time>
      </trkpt>
      <trkpt lat="44.46377" lon="6.54262">
        <ele>2084.28</ele>
        <time>2020-09-09T07:30:47Z</time>
      </trkpt>
      <trkpt lat="44.46362" lon="6.54246">
        <ele>2084.76</ele>
        <time>2020-09-09T07:31:04Z</time>
      </trkpt>
      <trkpt lat="44.46352" lon="6.54233">
        <ele>2086.68</ele>
        <time>2020-09-09T07:31:20Z</time>
      </trkpt>
      <trkpt lat="44.46342" lon="6.54226">
        <ele>2089.56</ele>
        <time>2020-09-09T07:31:36Z</time>
      </trkpt>
      <trkpt lat="44.46334" lon="6.54224">
        <ele>2090.52</ele>
        <time>2020-09-09T07:31:48Z</time>
      </trkpt>
      <trkpt lat="44.46333" lon="6.54224">
        <ele>2090.52</ele>
        <time>2020-09-09T07:32:11Z</time>
      </trkpt>
      <trkpt lat="44.46331" lon="6.54223">
        <ele>2090.52</ele>
        <time>2020-09-09T07:32:33Z</time>
      </trkpt>
      <trkpt lat="44.46322" lon="6.54214">
        <ele>2093.41</ele>
        <time>2020-09-09T07:32:52Z</time>
      </trkpt>
      <trkpt lat="44.46312" lon="6.54207">
        <ele>2095.33</ele>
        <time>2020-09-09T07:33:06Z</time>
      </trkpt>
      <trkpt lat="44.46301" lon="6.54199">
        <ele>2097.73</ele>
        <time>2020-09-09T07:33:23Z</time>
      </trkpt>
      <trkpt lat="44.4629" lon="6.54186">
        <ele>2099.18</ele>
        <time>2020-09-09T07:33:42Z</time>
      </trkpt>
      <trkpt lat="44.46281" lon="6.54175">
        <ele>2102.06</ele>
        <time>2020-09-09T07:34:01Z</time>
      </trkpt>
      <trkpt lat="44.4627" lon="6.54166">
        <ele>2104.46</ele>
        <time>2020-09-09T07:34:20Z</time>
      </trkpt>
      <trkpt lat="44.46255" lon="6.54156">
        <ele>2104.46</ele>
        <time>2020-09-09T07:34:38Z</time>
      </trkpt>
      <trkpt lat="44.46246" lon="6.54149">
        <ele>2106.39</ele>
        <time>2020-09-09T07:34:54Z</time>
      </trkpt>
      <trkpt lat="44.46238" lon="6.54135">
        <ele>2107.83</ele>
        <time>2020-09-09T07:35:10Z</time>
      </trkpt>
      <trkpt lat="44.46228" lon="6.54122">
        <ele>2110.23</ele>
        <time>2020-09-09T07:35:27Z</time>
      </trkpt>
      <trkpt lat="44.46226" lon="6.54108">
        <ele>2111.19</ele>
        <time>2020-09-09T07:35:42Z</time>
      </trkpt>
      <trkpt lat="44.4622" lon="6.54093">
        <ele>2112.63</ele>
        <time>2020-09-09T07:35:57Z</time>
      </trkpt>
      <trkpt lat="44.46214" lon="6.54073">
        <ele>2115.04</ele>
        <time>2020-09-09T07:36:14Z</time>
      </trkpt>
      <trkpt lat="44.46213" lon="6.54055">
        <ele>2116.96</ele>
        <time>2020-09-09T07:36:30Z</time>
      </trkpt>
      <trkpt lat="44.46208" lon="6.54039">
        <ele>2119.84</ele>
        <time>2020-09-09T07:36:47Z</time>
      </trkpt>
      <trkpt lat="44.46207" lon="6.5402">
        <ele>2121.77</ele>
        <time>2020-09-09T07:37:05Z</time>
      </trkpt>
      <trkpt lat="44.46206" lon="6.54003">
        <ele>2123.69</ele>
        <time>2020-09-09T07:37:22Z</time>
      </trkpt>
      <trkpt lat="44.46198" lon="6.53985">
        <ele>2125.61</ele>
        <time>2020-09-09T07:37:41Z</time>
      </trkpt>
      <trkpt lat="44.46193" lon="6.53965">
        <ele>2127.53</ele>
        <time>2020-09-09T07:37:59Z</time>
      </trkpt>
      <trkpt lat="44.4619" lon="6.53949">
        <ele>2129.94</ele>
        <time>2020-09-09T07:38:15Z</time>
      </trkpt>
      <trkpt lat="44.46183" lon="6.53935">
        <ele>2132.34</ele>
        <time>2020-09-09T07:38:31Z</time>
      </trkpt>
      <trkpt lat="44.46175" lon="6.53928">
        <ele>2134.74</ele>
        <time>2020-09-09T07:38:47Z</time>
      </trkpt>
      <trkpt lat="44.46167" lon="6.53917">
        <ele>2136.67</ele>
        <time>2020-09-09T07:39:03Z</time>
      </trkpt>
      <trkpt lat="44.46157" lon="6.53911">
        <ele>2139.07</ele>
        <time>2020-09-09T07:39:20Z</time>
      </trkpt>
      <trkpt lat="44.46145" lon="6.53907">
        <ele>2141.95</ele>
        <time>2020-09-09T07:39:37Z</time>
      </trkpt>
      <trkpt lat="44.46133" lon="6.53902">
        <ele>2142.92</ele>
        <time>2020-09-09T07:39:53Z</time>
      </trkpt>
      <trkpt lat="44.46132" lon="6.53897">
        <ele>2143.4</ele>
        <time>2020-09-09T07:40:07Z</time>
      </trkpt>
      <trkpt lat="44.4613" lon="6.53894">
        <ele>2143.4</ele>
        <time>2020-09-09T07:40:28Z</time>
      </trkpt>
      <trkpt lat="44.4612" lon="6.5387">
        <ele>2143.4</ele>
        <time>2020-09-09T07:40:45Z</time>
      </trkpt>
      <trkpt lat="44.46108" lon="6.53852">
        <ele>2143.88</ele>
        <time>2020-09-09T07:41:02Z</time>
      </trkpt>
      <trkpt lat="44.46097" lon="6.5384">
        <ele>2144.84</ele>
        <time>2020-09-09T07:41:18Z</time>
      </trkpt>
      <trkpt lat="44.46095" lon="6.53833">
        <ele>2146.28</ele>
        <time>2020-09-09T07:41:34Z</time>
      </trkpt>
      <trkpt lat="44.46094" lon="6.53834">
        <ele>2146.76</ele>
        <time>2020-09-09T07:41:52Z</time>
      </trkpt>
      <trkpt lat="44.46094" lon="6.53833">
        <ele>2146.76</ele>
        <time>2020-09-09T07:42:14Z</time>
      </trkpt>
      <trkpt lat="44.46095" lon="6.53835">
        <ele>2146.76</ele>
        <time>2020-09-09T07:42:32Z</time>
      </trkpt>
      <trkpt lat="44.46094" lon="6.53833">
        <ele>2146.76</ele>
        <time>2020-09-09T07:42:50Z</time>
      </trkpt>
      <trkpt lat="44.46092" lon="6.53813">
        <ele>2148.2</ele>
        <time>2020-09-09T07:43:09Z</time>
      </trkpt>
      <trkpt lat="44.4609" lon="6.53796">
        <ele>2149.65</ele>
        <time>2020-09-09T07:43:24Z</time>
      </trkpt>
      <trkpt lat="44.46085" lon="6.53774">
        <ele>2150.13</ele>
        <time>2020-09-09T07:43:43Z</time>
      </trkpt>
      <trkpt lat="44.46084" lon="6.53754">
        <ele>2150.13</ele>
        <time>2020-09-09T07:43:57Z</time>
      </trkpt>
      <trkpt lat="44.4608" lon="6.53735">
        <ele>2152.53</ele>
        <time>2020-09-09T07:44:13Z</time>
      </trkpt>
      <trkpt lat="44.46068" lon="6.53711">
        <ele>2154.45</ele>
        <time>2020-09-09T07:44:35Z</time>
      </trkpt>
      <trkpt lat="44.46058" lon="6.5369">
        <ele>2154.93</ele>
        <time>2020-09-09T07:44:54Z</time>
      </trkpt>
      <trkpt lat="44.46049" lon="6.53666">
        <ele>2156.37</ele>
        <time>2020-09-09T07:45:13Z</time>
      </trkpt>
      <trkpt lat="44.46039" lon="6.53643">
        <ele>2157.34</ele>
        <time>2020-09-09T07:45:33Z</time>
      </trkpt>
      <trkpt lat="44.46036" lon="6.53634">
        <ele>2157.82</ele>
        <time>2020-09-09T07:45:39Z</time>
      </trkpt>
      <trkpt lat="44.4602" lon="6.53612">
        <ele>2158.78</ele>
        <time>2020-09-09T07:46:00Z</time>
      </trkpt>
      <trkpt lat="44.46006" lon="6.5358">
        <ele>2161.66</ele>
        <time>2020-09-09T07:46:25Z</time>
      </trkpt>
      <trkpt lat="44.46008" lon="6.53558">
        <ele>2164.55</ele>
        <time>2020-09-09T07:46:45Z</time>
      </trkpt>
      <trkpt lat="44.46009" lon="6.53532">
        <ele>2166.47</ele>
        <time>2020-09-09T07:47:05Z</time>
      </trkpt>
      <trkpt lat="44.46008" lon="6.5351">
        <ele>2169.83</ele>
        <time>2020-09-09T07:47:26Z</time>
      </trkpt>
      <trkpt lat="44.46006" lon="6.53491">
        <ele>2173.2</ele>
        <time>2020-09-09T07:47:49Z</time>
      </trkpt>
      <trkpt lat="44.45999" lon="6.53474">
        <ele>2176.08</ele>
        <time>2020-09-09T07:48:09Z</time>
      </trkpt>
      <trkpt lat="44.45995" lon="6.53458">
        <ele>2179.45</ele>
        <time>2020-09-09T07:48:29Z</time>
      </trkpt>
      <trkpt lat="44.45987" lon="6.53443">
        <ele>2181.85</ele>
        <time>2020-09-09T07:48:49Z</time>
      </trkpt>
      <trkpt lat="44.45981" lon="6.53428">
        <ele>2184.25</ele>
        <time>2020-09-09T07:49:08Z</time>
      </trkpt>
      <trkpt lat="44.45976" lon="6.53408">
        <ele>2186.66</ele>
        <time>2020-09-09T07:49:27Z</time>
      </trkpt>
      <trkpt lat="44.45972" lon="6.53389">
        <ele>2189.06</ele>
        <time>2020-09-09T07:49:46Z</time>
      </trkpt>
      <trkpt lat="44.45965" lon="6.5337">
        <ele>2191.46</ele>
        <time>2020-09-09T07:50:04Z</time>
      </trkpt>
      <trkpt lat="44.45961" lon="6.53346">
        <ele>2193.39</ele>
        <time>2020-09-09T07:50:25Z</time>
      </trkpt>
      <trkpt lat="44.45958" lon="6.53323">
        <ele>2196.27</ele>
        <time>2020-09-09T07:50:45Z</time>
      </trkpt>
      <trkpt lat="44.45955" lon="6.53302">
        <ele>2198.19</ele>
        <time>2020-09-09T07:51:03Z</time>
      </trkpt>
      <trkpt lat="44.45945" lon="6.53285">
        <ele>2201.56</ele>
        <time>2020-09-09T07:51:21Z</time>
      </trkpt>
      <trkpt lat="44.45937" lon="6.53271">
        <ele>2204.92</ele>
        <time>2020-09-09T07:51:40Z</time>
      </trkpt>
      <trkpt lat="44.45922" lon="6.53259">
        <ele>2207.81</ele>
        <time>2020-09-09T07:51:59Z</time>
      </trkpt>
      <trkpt lat="44.45915" lon="6.53244">
        <ele>2211.17</ele>
        <time>2020-09-09T07:52:16Z</time>
      </trkpt>
      <trkpt lat="44.45912" lon="6.53232">
        <ele>2213.57</ele>
        <time>2020-09-09T07:52:34Z</time>
      </trkpt>
      <trkpt lat="44.4591" lon="6.53214">
        <ele>2216.46</ele>
        <time>2020-09-09T07:52:53Z</time>
      </trkpt>
      <trkpt lat="44.45907" lon="6.53193">
        <ele>2218.86</ele>
        <time>2020-09-09T07:53:12Z</time>
      </trkpt>
      <trkpt lat="44.45901" lon="6.53174">
        <ele>2220.78</ele>
        <time>2020-09-09T07:53:30Z</time>
      </trkpt>
      <trkpt lat="44.45897" lon="6.53153">
        <ele>2224.15</ele>
        <time>2020-09-09T07:53:51Z</time>
      </trkpt>
      <trkpt lat="44.45889" lon="6.53136">
        <ele>2227.03</ele>
        <time>2020-09-09T07:54:11Z</time>
      </trkpt>
      <trkpt lat="44.45889" lon="6.53126">
        <ele>2229.43</ele>
        <time>2020-09-09T07:54:27Z</time>
      </trkpt>
      <trkpt lat="44.45888" lon="6.53117">
        <ele>2229.92</ele>
        <time>2020-09-09T07:54:42Z</time>
      </trkpt>
      <trkpt lat="44.45887" lon="6.53107">
        <ele>2229.92</ele>
        <time>2020-09-09T07:54:59Z</time>
      </trkpt>
      <trkpt lat="44.45879" lon="6.53112">
        <ele>2230.4</ele>
        <time>2020-09-09T07:55:14Z</time>
      </trkpt>
      <trkpt lat="44.45879" lon="6.53111">
        <ele>2231.84</ele>
        <time>2020-09-09T07:55:29Z</time>
      </trkpt>
      <trkpt lat="44.4588" lon="6.53111">
        <ele>2229.92</ele>
        <time>2020-09-09T07:55:39Z</time>
      </trkpt>
      <trkpt lat="44.45885" lon="6.53112">
        <ele>2228.95</ele>
        <time>2020-09-09T07:55:52Z</time>
      </trkpt>
      <trkpt lat="44.45889" lon="6.53111">
        <ele>2228.95</ele>
        <time>2020-09-09T07:56:09Z</time>
      </trkpt>
      <trkpt lat="44.45889" lon="6.53112">
        <ele>2228.47</ele>
        <time>2020-09-09T07:56:25Z</time>
      </trkpt>
      <trkpt lat="44.45888" lon="6.53109">
        <ele>2228.95</ele>
        <time>2020-09-09T07:56:51Z</time>
      </trkpt>
      <trkpt lat="44.45888" lon="6.5311">
        <ele>2221.74</ele>
        <time>2020-09-09T07:57:13Z</time>
      </trkpt>
      <trkpt lat="44.45889" lon="6.53111">
        <ele>2229.43</ele>
        <time>2020-09-09T07:57:14Z</time>
      </trkpt>
      <trkpt lat="44.45889" lon="6.53109">
        <ele>2228.47</ele>
        <time>2020-09-09T07:57:45Z</time>
      </trkpt>
      <trkpt lat="44.45889" lon="6.5311">
        <ele>2228.47</ele>
        <time>2020-09-09T07:58:21Z</time>
      </trkpt>
      <trkpt lat="44.45886" lon="6.5311">
        <ele>2228.47</ele>
        <time>2020-09-09T07:58:52Z</time>
      </trkpt>
      <trkpt lat="44.45887" lon="6.5311">
        <ele>2228.95</ele>
        <time>2020-09-09T07:59:19Z</time>
      </trkpt>
      <trkpt lat="44.45889" lon="6.53109">
        <ele>2228.95</ele>
        <time>2020-09-09T07:59:47Z</time>
      </trkpt>
      <trkpt lat="44.45887" lon="6.53109">
        <ele>2228.95</ele>
        <time>2020-09-09T08:00:23Z</time>
      </trkpt>
      <trkpt lat="44.45888" lon="6.53111">
        <ele>2229.43</ele>
        <time>2020-09-09T08:00:50Z</time>
      </trkpt>
      <trkpt lat="44.45886" lon="6.5311">
        <ele>2229.43</ele>
        <time>2020-09-09T08:01:15Z</time>
      </trkpt>
      <trkpt lat="44.45889" lon="6.53111">
        <ele>2229.43</ele>
        <time>2020-09-09T08:01:44Z</time>
      </trkpt>
      <trkpt lat="44.45887" lon="6.53109">
        <ele>2229.92</ele>
        <time>2020-09-09T08:02:20Z</time>
      </trkpt>
      <trkpt lat="44.45888" lon="6.5311">
        <ele>2229.43</ele>
        <time>2020-09-09T08:02:49Z</time>
      </trkpt>
      <trkpt lat="44.45888" lon="6.53111">
        <ele>2229.43</ele>
        <time>2020-09-09T08:03:22Z</time>
      </trkpt>
      <trkpt lat="44.45886" lon="6.5311">
        <ele>2229.43</ele>
        <time>2020-09-09T08:03:45Z</time>
      </trkpt>
      <trkpt lat="44.45886" lon="6.53109">
        <ele>2226.07</ele>
        <time>2020-09-09T08:03:55Z</time>
      </trkpt>
      <trkpt lat="44.45886" lon="6.53109">
        <ele>2229.92</ele>
        <time>2020-09-09T08:03:56Z</time>
      </trkpt>
      <trkpt lat="44.45888" lon="6.5311">
        <ele>2229.92</ele>
        <time>2020-09-09T08:04:24Z</time>
      </trkpt>
      <trkpt lat="44.45889" lon="6.5311">
        <ele>2230.4</ele>
        <time>2020-09-09T08:04:57Z</time>
      </trkpt>
      <trkpt lat="44.4589" lon="6.53108">
        <ele>2230.4</ele>
        <time>2020-09-09T08:05:26Z</time>
      </trkpt>
      <trkpt lat="44.45888" lon="6.53112">
        <ele>2230.4</ele>
        <time>2020-09-09T08:05:51Z</time>
      </trkpt>
      <trkpt lat="44.45887" lon="6.53111">
        <ele>2230.88</ele>
        <time>2020-09-09T08:06:21Z</time>
      </trkpt>
      <trkpt lat="44.4589" lon="6.53111">
        <ele>2230.88</ele>
        <time>2020-09-09T08:06:52Z</time>
      </trkpt>
      <trkpt lat="44.4589" lon="6.53109">
        <ele>2231.36</ele>
        <time>2020-09-09T08:07:24Z</time>
      </trkpt>
      <trkpt lat="44.45888" lon="6.53111">
        <ele>2230.4</ele>
        <time>2020-09-09T08:07:46Z</time>
      </trkpt>
      <trkpt lat="44.45887" lon="6.53113">
        <ele>2230.4</ele>
        <time>2020-09-09T08:08:09Z</time>
      </trkpt>
      <trkpt lat="44.45892" lon="6.53112">
        <ele>2230.4</ele>
        <time>2020-09-09T08:08:34Z</time>
      </trkpt>
      <trkpt lat="44.4589" lon="6.53112">
        <ele>2230.4</ele>
        <time>2020-09-09T08:09:01Z</time>
      </trkpt>
      <trkpt lat="44.45889" lon="6.53113">
        <ele>2231.36</ele>
        <time>2020-09-09T08:09:21Z</time>
      </trkpt>
      <trkpt lat="44.45887" lon="6.53113">
        <ele>2231.36</ele>
        <time>2020-09-09T08:09:38Z</time>
      </trkpt>
      <trkpt lat="44.45889" lon="6.53108">
        <ele>2231.36</ele>
        <time>2020-09-09T08:10:00Z</time>
      </trkpt>
      <trkpt lat="44.45887" lon="6.53114">
        <ele>2231.36</ele>
        <time>2020-09-09T08:10:21Z</time>
      </trkpt>
      <trkpt lat="44.45886" lon="6.53112">
        <ele>2231.36</ele>
        <time>2020-09-09T08:10:44Z</time>
      </trkpt>
      <trkpt lat="44.45888" lon="6.53107">
        <ele>2231.36</ele>
        <time>2020-09-09T08:10:58Z</time>
      </trkpt>
      <trkpt lat="44.45886" lon="6.53082">
        <ele>2231.84</ele>
        <time>2020-09-09T08:11:15Z</time>
      </trkpt>
      <trkpt lat="44.45889" lon="6.53055">
        <ele>2233.76</ele>
        <time>2020-09-09T08:11:31Z</time>
      </trkpt>
      <trkpt lat="44.45891" lon="6.53032">
        <ele>2235.68</ele>
        <time>2020-09-09T08:11:47Z</time>
      </trkpt>
      <trkpt lat="44.45894" lon="6.53008">
        <ele>2236.16</ele>
        <time>2020-09-09T08:12:03Z</time>
      </trkpt>
      <trkpt lat="44.45894" lon="6.52985">
        <ele>2235.2</ele>
        <time>2020-09-09T08:12:17Z</time>
      </trkpt>
      <trkpt lat="44.45898" lon="6.52964">
        <ele>2234.24</ele>
        <time>2020-09-09T08:12:34Z</time>
      </trkpt>
      <trkpt lat="44.45895" lon="6.52942">
        <ele>2233.76</ele>
        <time>2020-09-09T08:12:51Z</time>
      </trkpt>
      <trkpt lat="44.45894" lon="6.52923">
        <ele>2232.32</ele>
        <time>2020-09-09T08:13:07Z</time>
      </trkpt>
      <trkpt lat="44.45892" lon="6.52919">
        <ele>2233.76</ele>
        <time>2020-09-09T08:13:11Z</time>
      </trkpt>
      <trkpt lat="44.45892" lon="6.529">
        <ele>2236.16</ele>
        <time>2020-09-09T08:13:28Z</time>
      </trkpt>
      <trkpt lat="44.45895" lon="6.52881">
        <ele>2237.61</ele>
        <time>2020-09-09T08:13:45Z</time>
      </trkpt>
      <trkpt lat="44.45898" lon="6.52867">
        <ele>2240.01</ele>
        <time>2020-09-09T08:14:00Z</time>
      </trkpt>
      <trkpt lat="44.45896" lon="6.52852">
        <ele>2241.93</ele>
        <time>2020-09-09T08:14:15Z</time>
      </trkpt>
      <trkpt lat="44.45896" lon="6.52841">
        <ele>2243.85</ele>
        <time>2020-09-09T08:14:31Z</time>
      </trkpt>
      <trkpt lat="44.45901" lon="6.52833">
        <ele>2246.74</ele>
        <time>2020-09-09T08:14:47Z</time>
      </trkpt>
      <trkpt lat="44.45904" lon="6.52823">
        <ele>2248.66</ele>
        <time>2020-09-09T08:15:03Z</time>
      </trkpt>
      <trkpt lat="44.45908" lon="6.52814">
        <ele>2252.03</ele>
        <time>2020-09-09T08:15:22Z</time>
      </trkpt>
      <trkpt lat="44.4591" lon="6.52805">
        <ele>2254.43</ele>
        <time>2020-09-09T08:15:38Z</time>
      </trkpt>
      <trkpt lat="44.45913" lon="6.52798">
        <ele>2256.35</ele>
        <time>2020-09-09T08:15:54Z</time>
      </trkpt>
      <trkpt lat="44.45915" lon="6.52787">
        <ele>2259.24</ele>
        <time>2020-09-09T08:16:11Z</time>
      </trkpt>
      <trkpt lat="44.45916" lon="6.52778">
        <ele>2261.16</ele>
        <time>2020-09-09T08:16:28Z</time>
      </trkpt>
      <trkpt lat="44.4592" lon="6.52768">
        <ele>2264.52</ele>
        <time>2020-09-09T08:16:46Z</time>
      </trkpt>
      <trkpt lat="44.45918" lon="6.52758">
        <ele>2266.93</ele>
        <time>2020-09-09T08:16:59Z</time>
      </trkpt>
      <trkpt lat="44.45922" lon="6.52746">
        <ele>2269.81</ele>
        <time>2020-09-09T08:17:16Z</time>
      </trkpt>
      <trkpt lat="44.45922" lon="6.52737">
        <ele>2271.73</ele>
        <time>2020-09-09T08:17:32Z</time>
      </trkpt>
      <trkpt lat="44.45921" lon="6.52725">
        <ele>2274.14</ele>
        <time>2020-09-09T08:17:50Z</time>
      </trkpt>
      <trkpt lat="44.45919" lon="6.52713">
        <ele>2276.54</ele>
        <time>2020-09-09T08:18:06Z</time>
      </trkpt>
      <trkpt lat="44.45915" lon="6.52702">
        <ele>2278.46</ele>
        <time>2020-09-09T08:18:20Z</time>
      </trkpt>
      <trkpt lat="44.45907" lon="6.52696">
        <ele>2281.35</ele>
        <time>2020-09-09T08:18:37Z</time>
      </trkpt>
      <trkpt lat="44.45901" lon="6.52686">
        <ele>2283.27</ele>
        <time>2020-09-09T08:18:53Z</time>
      </trkpt>
      <trkpt lat="44.45896" lon="6.52674">
        <ele>2285.19</ele>
        <time>2020-09-09T08:19:09Z</time>
      </trkpt>
      <trkpt lat="44.45888" lon="6.52668">
        <ele>2288.08</ele>
        <time>2020-09-09T08:19:28Z</time>
      </trkpt>
      <trkpt lat="44.45884" lon="6.52666">
        <ele>2288.56</ele>
        <time>2020-09-09T08:19:40Z</time>
      </trkpt>
      <trkpt lat="44.45881" lon="6.52669">
        <ele>2289.04</ele>
        <time>2020-09-09T08:19:58Z</time>
      </trkpt>
      <trkpt lat="44.45875" lon="6.52666">
        <ele>2290</ele>
        <time>2020-09-09T08:20:17Z</time>
      </trkpt>
      <trkpt lat="44.45864" lon="6.52659">
        <ele>2291.44</ele>
        <time>2020-09-09T08:20:32Z</time>
      </trkpt>
      <trkpt lat="44.4585" lon="6.52642">
        <ele>2293.84</ele>
        <time>2020-09-09T08:20:52Z</time>
      </trkpt>
      <trkpt lat="44.45847" lon="6.52629">
        <ele>2295.28</ele>
        <time>2020-09-09T08:21:05Z</time>
      </trkpt>
      <trkpt lat="44.45843" lon="6.52613">
        <ele>2297.69</ele>
        <time>2020-09-09T08:21:22Z</time>
      </trkpt>
      <trkpt lat="44.45841" lon="6.52603">
        <ele>2300.09</ele>
        <time>2020-09-09T08:21:38Z</time>
      </trkpt>
      <trkpt lat="44.4584" lon="6.52595">
        <ele>2302.98</ele>
        <time>2020-09-09T08:21:54Z</time>
      </trkpt>
      <trkpt lat="44.45833" lon="6.52596">
        <ele>2304.42</ele>
        <time>2020-09-09T08:22:10Z</time>
      </trkpt>
      <trkpt lat="44.45822" lon="6.52594">
        <ele>2302.98</ele>
        <time>2020-09-09T08:22:24Z</time>
      </trkpt>
      <trkpt lat="44.45819" lon="6.52593">
        <ele>2302.98</ele>
        <time>2020-09-09T08:22:28Z</time>
      </trkpt>
      <trkpt lat="44.45812" lon="6.52592">
        <ele>2302.01</ele>
        <time>2020-09-09T08:22:37Z</time>
      </trkpt>
      <trkpt lat="44.45795" lon="6.52583">
        <ele>2301.53</ele>
        <time>2020-09-09T08:22:57Z</time>
      </trkpt>
      <trkpt lat="44.45785" lon="6.52575">
        <ele>2302.98</ele>
        <time>2020-09-09T08:23:11Z</time>
      </trkpt>
      <trkpt lat="44.45779" lon="6.52565">
        <ele>2303.94</ele>
        <time>2020-09-09T08:23:26Z</time>
      </trkpt>
      <trkpt lat="44.45777" lon="6.52563">
        <ele>2302.49</ele>
        <time>2020-09-09T08:23:29Z</time>
      </trkpt>
      <trkpt lat="44.4576" lon="6.52556">
        <ele>2302.01</ele>
        <time>2020-09-09T08:23:47Z</time>
      </trkpt>
      <trkpt lat="44.45738" lon="6.52543">
        <ele>2302.49</ele>
        <time>2020-09-09T08:24:10Z</time>
      </trkpt>
      <trkpt lat="44.45722" lon="6.52529">
        <ele>2302.49</ele>
        <time>2020-09-09T08:24:27Z</time>
      </trkpt>
      <trkpt lat="44.45707" lon="6.52513">
        <ele>2302.49</ele>
        <time>2020-09-09T08:24:47Z</time>
      </trkpt>
      <trkpt lat="44.45696" lon="6.52488">
        <ele>2304.42</ele>
        <time>2020-09-09T08:25:08Z</time>
      </trkpt>
      <trkpt lat="44.45681" lon="6.52482">
        <ele>2305.86</ele>
        <time>2020-09-09T08:25:28Z</time>
      </trkpt>
      <trkpt lat="44.4567" lon="6.52475">
        <ele>2306.34</ele>
        <time>2020-09-09T08:25:41Z</time>
      </trkpt>
      <trkpt lat="44.45653" lon="6.5246">
        <ele>2307.78</ele>
        <time>2020-09-09T08:26:02Z</time>
      </trkpt>
      <trkpt lat="44.45643" lon="6.52447">
        <ele>2310.19</ele>
        <time>2020-09-09T08:26:20Z</time>
      </trkpt>
      <trkpt lat="44.45632" lon="6.52437">
        <ele>2311.63</ele>
        <time>2020-09-09T08:26:38Z</time>
      </trkpt>
      <trkpt lat="44.4562" lon="6.52427">
        <ele>2314.03</ele>
        <time>2020-09-09T08:26:58Z</time>
      </trkpt>
      <trkpt lat="44.45615" lon="6.52417">
        <ele>2316.43</ele>
        <time>2020-09-09T08:27:14Z</time>
      </trkpt>
      <trkpt lat="44.45611" lon="6.52405">
        <ele>2319.8</ele>
        <time>2020-09-09T08:27:31Z</time>
      </trkpt>
      <trkpt lat="44.45603" lon="6.52394">
        <ele>2321.72</ele>
        <time>2020-09-09T08:27:49Z</time>
      </trkpt>
      <trkpt lat="44.45597" lon="6.52381">
        <ele>2324.12</ele>
        <time>2020-09-09T08:28:06Z</time>
      </trkpt>
      <trkpt lat="44.45589" lon="6.52369">
        <ele>2327.49</ele>
        <time>2020-09-09T08:28:25Z</time>
      </trkpt>
      <trkpt lat="44.45573" lon="6.52365">
        <ele>2329.89</ele>
        <time>2020-09-09T08:28:45Z</time>
      </trkpt>
      <trkpt lat="44.45564" lon="6.52356">
        <ele>2331.33</ele>
        <time>2020-09-09T08:29:02Z</time>
      </trkpt>
      <trkpt lat="44.45549" lon="6.52352">
        <ele>2332.3</ele>
        <time>2020-09-09T08:29:18Z</time>
      </trkpt>
      <trkpt lat="44.45531" lon="6.52351">
        <ele>2332.3</ele>
        <time>2020-09-09T08:29:36Z</time>
      </trkpt>
      <trkpt lat="44.45513" lon="6.5234">
        <ele>2332.3</ele>
        <time>2020-09-09T08:29:57Z</time>
      </trkpt>
      <trkpt lat="44.45488" lon="6.52326">
        <ele>2332.78</ele>
        <time>2020-09-09T08:30:22Z</time>
      </trkpt>
      <trkpt lat="44.45474" lon="6.52312">
        <ele>2332.78</ele>
        <time>2020-09-09T08:30:39Z</time>
      </trkpt>
      <trkpt lat="44.45463" lon="6.52293">
        <ele>2333.26</ele>
        <time>2020-09-09T08:30:56Z</time>
      </trkpt>
      <trkpt lat="44.45457" lon="6.52276">
        <ele>2334.7</ele>
        <time>2020-09-09T08:31:12Z</time>
      </trkpt>
      <trkpt lat="44.45445" lon="6.52257">
        <ele>2334.7</ele>
        <time>2020-09-09T08:31:31Z</time>
      </trkpt>
      <trkpt lat="44.45439" lon="6.5224">
        <ele>2335.18</ele>
        <time>2020-09-09T08:31:47Z</time>
      </trkpt>
      <trkpt lat="44.45432" lon="6.52223">
        <ele>2336.14</ele>
        <time>2020-09-09T08:32:03Z</time>
      </trkpt>
      <trkpt lat="44.45429" lon="6.52206">
        <ele>2338.06</ele>
        <time>2020-09-09T08:32:19Z</time>
      </trkpt>
      <trkpt lat="44.45419" lon="6.52191">
        <ele>2338.06</ele>
        <time>2020-09-09T08:32:35Z</time>
      </trkpt>
      <trkpt lat="44.45399" lon="6.52175">
        <ele>2338.54</ele>
        <time>2020-09-09T08:32:54Z</time>
      </trkpt>
      <trkpt lat="44.45393" lon="6.52154">
        <ele>2339.51</ele>
        <time>2020-09-09T08:33:14Z</time>
      </trkpt>
      <trkpt lat="44.45389" lon="6.52154">
        <ele>2339.51</ele>
        <time>2020-09-09T08:33:31Z</time>
      </trkpt>
      <trkpt lat="44.45392" lon="6.52156">
        <ele>2339.51</ele>
        <time>2020-09-09T08:33:47Z</time>
      </trkpt>
      <trkpt lat="44.45395" lon="6.52158">
        <ele>2339.99</ele>
        <time>2020-09-09T08:34:11Z</time>
      </trkpt>
      <trkpt lat="44.45398" lon="6.52154">
        <ele>2339.99</ele>
        <time>2020-09-09T08:34:28Z</time>
      </trkpt>
      <trkpt lat="44.45394" lon="6.52149">
        <ele>2339.99</ele>
        <time>2020-09-09T08:34:52Z</time>
      </trkpt>
      <trkpt lat="44.45392" lon="6.52154">
        <ele>2339.02</ele>
        <time>2020-09-09T08:35:09Z</time>
      </trkpt>
      <trkpt lat="44.45391" lon="6.52149">
        <ele>2339.02</ele>
        <time>2020-09-09T08:35:37Z</time>
      </trkpt>
      <trkpt lat="44.45384" lon="6.52161">
        <ele>2339.02</ele>
        <time>2020-09-09T08:36:08Z</time>
      </trkpt>
      <trkpt lat="44.4539" lon="6.52159">
        <ele>2339.99</ele>
        <time>2020-09-09T08:36:31Z</time>
      </trkpt>
      <trkpt lat="44.45395" lon="6.52154">
        <ele>2340.47</ele>
        <time>2020-09-09T08:36:47Z</time>
      </trkpt>
      <trkpt lat="44.45396" lon="6.52154">
        <ele>2335.66</ele>
        <time>2020-09-09T08:36:53Z</time>
      </trkpt>
      <trkpt lat="44.45397" lon="6.52153">
        <ele>2344.79</ele>
        <time>2020-09-09T08:36:54Z</time>
      </trkpt>
      <trkpt lat="44.45397" lon="6.52153">
        <ele>2339.99</ele>
        <time>2020-09-09T08:36:55Z</time>
      </trkpt>
      <trkpt lat="44.45393" lon="6.52151">
        <ele>2340.47</ele>
        <time>2020-09-09T08:37:14Z</time>
      </trkpt>
      <trkpt lat="44.45392" lon="6.52142">
        <ele>2340.47</ele>
        <time>2020-09-09T08:37:42Z</time>
      </trkpt>
      <trkpt lat="44.45383" lon="6.52128">
        <ele>2340.47</ele>
        <time>2020-09-09T08:38:00Z</time>
      </trkpt>
      <trkpt lat="44.45375" lon="6.52118">
        <ele>2340.47</ele>
        <time>2020-09-09T08:38:15Z</time>
      </trkpt>
      <trkpt lat="44.4537" lon="6.52106">
        <ele>2340.95</ele>
        <time>2020-09-09T08:38:31Z</time>
      </trkpt>
      <trkpt lat="44.45368" lon="6.52105">
        <ele>2341.91</ele>
        <time>2020-09-09T08:38:34Z</time>
      </trkpt>
      <trkpt lat="44.45364" lon="6.52098">
        <ele>2343.35</ele>
        <time>2020-09-09T08:38:52Z</time>
      </trkpt>
      <trkpt lat="44.45354" lon="6.52093">
        <ele>2344.79</ele>
        <time>2020-09-09T08:39:09Z</time>
      </trkpt>
      <trkpt lat="44.4535" lon="6.52087">
        <ele>2345.75</ele>
        <time>2020-09-09T08:39:27Z</time>
      </trkpt>
      <trkpt lat="44.45346" lon="6.52081">
        <ele>2347.2</ele>
        <time>2020-09-09T08:39:47Z</time>
      </trkpt>
      <trkpt lat="44.45339" lon="6.52074">
        <ele>2348.64</ele>
        <time>2020-09-09T08:40:07Z</time>
      </trkpt>
      <trkpt lat="44.45334" lon="6.52064">
        <ele>2351.52</ele>
        <time>2020-09-09T08:40:20Z</time>
      </trkpt>
      <trkpt lat="44.45331" lon="6.52051">
        <ele>2353.93</ele>
        <time>2020-09-09T08:40:37Z</time>
      </trkpt>
      <trkpt lat="44.45327" lon="6.5204">
        <ele>2356.81</ele>
        <time>2020-09-09T08:40:54Z</time>
      </trkpt>
      <trkpt lat="44.45326" lon="6.5203">
        <ele>2359.69</ele>
        <time>2020-09-09T08:41:11Z</time>
      </trkpt>
      <trkpt lat="44.4533" lon="6.52024">
        <ele>2362.1</ele>
        <time>2020-09-09T08:41:28Z</time>
      </trkpt>
      <trkpt lat="44.45334" lon="6.52011">
        <ele>2364.98</ele>
        <time>2020-09-09T08:41:47Z</time>
      </trkpt>
      <trkpt lat="44.45338" lon="6.52001">
        <ele>2367.86</ele>
        <time>2020-09-09T08:42:05Z</time>
      </trkpt>
      <trkpt lat="44.45342" lon="6.51998">
        <ele>2370.75</ele>
        <time>2020-09-09T08:42:22Z</time>
      </trkpt>
      <trkpt lat="44.45347" lon="6.51988">
        <ele>2373.15</ele>
        <time>2020-09-09T08:42:36Z</time>
      </trkpt>
      <trkpt lat="44.45341" lon="6.51977">
        <ele>2375.07</ele>
        <time>2020-09-09T08:42:52Z</time>
      </trkpt>
      <trkpt lat="44.45334" lon="6.51962">
        <ele>2377.96</ele>
        <time>2020-09-09T08:43:12Z</time>
      </trkpt>
      <trkpt lat="44.45329" lon="6.51952">
        <ele>2380.36</ele>
        <time>2020-09-09T08:43:29Z</time>
      </trkpt>
      <trkpt lat="44.45333" lon="6.51948">
        <ele>2382.76</ele>
        <time>2020-09-09T08:43:45Z</time>
      </trkpt>
      <trkpt lat="44.45341" lon="6.51947">
        <ele>2386.61</ele>
        <time>2020-09-09T08:44:05Z</time>
      </trkpt>
      <trkpt lat="44.45335" lon="6.5193">
        <ele>2389.01</ele>
        <time>2020-09-09T08:44:26Z</time>
      </trkpt>
      <trkpt lat="44.45337" lon="6.51924">
        <ele>2391.9</ele>
        <time>2020-09-09T08:44:42Z</time>
      </trkpt>
      <trkpt lat="44.45344" lon="6.51923">
        <ele>2394.78</ele>
        <time>2020-09-09T08:44:58Z</time>
      </trkpt>
      <trkpt lat="44.45354" lon="6.51929">
        <ele>2396.22</ele>
        <time>2020-09-09T08:45:14Z</time>
      </trkpt>
      <trkpt lat="44.45354" lon="6.51922">
        <ele>2398.15</ele>
        <time>2020-09-09T08:45:29Z</time>
      </trkpt>
      <trkpt lat="44.4535" lon="6.51912">
        <ele>2401.03</ele>
        <time>2020-09-09T08:45:45Z</time>
      </trkpt>
      <trkpt lat="44.45347" lon="6.51903">
        <ele>2403.91</ele>
        <time>2020-09-09T08:46:00Z</time>
      </trkpt>
      <trkpt lat="44.45351" lon="6.51901">
        <ele>2406.8</ele>
        <time>2020-09-09T08:46:20Z</time>
      </trkpt>
      <trkpt lat="44.45353" lon="6.51891">
        <ele>2409.2</ele>
        <time>2020-09-09T08:46:37Z</time>
      </trkpt>
      <trkpt lat="44.45356" lon="6.51887">
        <ele>2410.16</ele>
        <time>2020-09-09T08:47:01Z</time>
      </trkpt>
      <trkpt lat="44.45361" lon="6.51886">
        <ele>2413.05</ele>
        <time>2020-09-09T08:47:15Z</time>
      </trkpt>
      <trkpt lat="44.45361" lon="6.51873">
        <ele>2416.41</ele>
        <time>2020-09-09T08:47:33Z</time>
      </trkpt>
      <trkpt lat="44.45356" lon="6.51863">
        <ele>2418.81</ele>
        <time>2020-09-09T08:47:50Z</time>
      </trkpt>
      <trkpt lat="44.45359" lon="6.51855">
        <ele>2421.7</ele>
        <time>2020-09-09T08:48:06Z</time>
      </trkpt>
      <trkpt lat="44.45364" lon="6.51852">
        <ele>2424.1</ele>
        <time>2020-09-09T08:48:23Z</time>
      </trkpt>
      <trkpt lat="44.45361" lon="6.51845">
        <ele>2426.99</ele>
        <time>2020-09-09T08:48:38Z</time>
      </trkpt>
      <trkpt lat="44.45352" lon="6.51834">
        <ele>2429.87</ele>
        <time>2020-09-09T08:48:56Z</time>
      </trkpt>
      <trkpt lat="44.45345" lon="6.51827">
        <ele>2432.75</ele>
        <time>2020-09-09T08:49:10Z</time>
      </trkpt>
      <trkpt lat="44.4534" lon="6.51821">
        <ele>2435.64</ele>
        <time>2020-09-09T08:49:28Z</time>
      </trkpt>
      <trkpt lat="44.45335" lon="6.51816">
        <ele>2438.52</ele>
        <time>2020-09-09T08:49:48Z</time>
      </trkpt>
      <trkpt lat="44.45332" lon="6.51815">
        <ele>2440.92</ele>
        <time>2020-09-09T08:50:07Z</time>
      </trkpt>
      <trkpt lat="44.45333" lon="6.51812">
        <ele>2442.85</ele>
        <time>2020-09-09T08:50:24Z</time>
      </trkpt>
      <trkpt lat="44.45329" lon="6.51821">
        <ele>2443.81</ele>
        <time>2020-09-09T08:50:47Z</time>
      </trkpt>
      <trkpt lat="44.45331" lon="6.51812">
        <ele>2443.81</ele>
        <time>2020-09-09T08:51:18Z</time>
      </trkpt>
      <trkpt lat="44.45332" lon="6.51808">
        <ele>2444.77</ele>
        <time>2020-09-09T08:51:35Z</time>
      </trkpt>
      <trkpt lat="44.45331" lon="6.51801">
        <ele>2447.17</ele>
        <time>2020-09-09T08:51:52Z</time>
      </trkpt>
      <trkpt lat="44.4533" lon="6.51798">
        <ele>2449.1</ele>
        <time>2020-09-09T08:52:08Z</time>
      </trkpt>
      <trkpt lat="44.45329" lon="6.51791">
        <ele>2451.98</ele>
        <time>2020-09-09T08:52:24Z</time>
      </trkpt>
      <trkpt lat="44.45323" lon="6.51791">
        <ele>2454.86</ele>
        <time>2020-09-09T08:52:42Z</time>
      </trkpt>
      <trkpt lat="44.45319" lon="6.51785">
        <ele>2457.75</ele>
        <time>2020-09-09T08:53:03Z</time>
      </trkpt>
      <trkpt lat="44.45314" lon="6.51786">
        <ele>2459.67</ele>
        <time>2020-09-09T08:53:20Z</time>
      </trkpt>
      <trkpt lat="44.45312" lon="6.51784">
        <ele>2460.63</ele>
        <time>2020-09-09T08:53:41Z</time>
      </trkpt>
      <trkpt lat="44.45312" lon="6.51788">
        <ele>2460.63</ele>
        <time>2020-09-09T08:54:13Z</time>
      </trkpt>
      <trkpt lat="44.45311" lon="6.5179">
        <ele>2461.11</ele>
        <time>2020-09-09T08:54:52Z</time>
      </trkpt>
      <trkpt lat="44.45313" lon="6.51789">
        <ele>2462.55</ele>
        <time>2020-09-09T08:55:20Z</time>
      </trkpt>
      <trkpt lat="44.45312" lon="6.51788">
        <ele>2462.07</ele>
        <time>2020-09-09T08:55:41Z</time>
      </trkpt>
      <trkpt lat="44.45311" lon="6.51786">
        <ele>2462.07</ele>
        <time>2020-09-09T08:56:07Z</time>
      </trkpt>
      <trkpt lat="44.45316" lon="6.51779">
        <ele>2463.52</ele>
        <time>2020-09-09T08:56:36Z</time>
      </trkpt>
      <trkpt lat="44.45313" lon="6.51774">
        <ele>2466.4</ele>
        <time>2020-09-09T08:56:53Z</time>
      </trkpt>
      <trkpt lat="44.4531" lon="6.51765">
        <ele>2469.28</ele>
        <time>2020-09-09T08:57:11Z</time>
      </trkpt>
      <trkpt lat="44.45309" lon="6.51758">
        <ele>2472.17</ele>
        <time>2020-09-09T08:57:30Z</time>
      </trkpt>
      <trkpt lat="44.4531" lon="6.51753">
        <ele>2474.09</ele>
        <time>2020-09-09T08:57:50Z</time>
      </trkpt>
      <trkpt lat="44.45309" lon="6.51746">
        <ele>2477.45</ele>
        <time>2020-09-09T08:58:10Z</time>
      </trkpt>
      <trkpt lat="44.45304" lon="6.5174">
        <ele>2480.34</ele>
        <time>2020-09-09T08:58:29Z</time>
      </trkpt>
      <trkpt lat="44.45307" lon="6.51735">
        <ele>2482.74</ele>
        <time>2020-09-09T08:58:54Z</time>
      </trkpt>
      <trkpt lat="44.45305" lon="6.51728">
        <ele>2485.63</ele>
        <time>2020-09-09T08:59:09Z</time>
      </trkpt>
      <trkpt lat="44.45309" lon="6.5172">
        <ele>2489.47</ele>
        <time>2020-09-09T08:59:26Z</time>
      </trkpt>
      <trkpt lat="44.45309" lon="6.5172">
        <ele>2489.47</ele>
        <time>2020-09-09T08:59:27Z</time>
      </trkpt>
      <trkpt lat="44.45303" lon="6.51713">
        <ele>2491.87</ele>
        <time>2020-09-09T08:59:47Z</time>
      </trkpt>
      <trkpt lat="44.45301" lon="6.51707">
        <ele>2494.28</ele>
        <time>2020-09-09T09:00:06Z</time>
      </trkpt>
      <trkpt lat="44.45301" lon="6.51701">
        <ele>2496.68</ele>
        <time>2020-09-09T09:00:21Z</time>
      </trkpt>
      <trkpt lat="44.45301" lon="6.51696">
        <ele>2499.08</ele>
        <time>2020-09-09T09:00:36Z</time>
      </trkpt>
      <trkpt lat="44.45299" lon="6.5169">
        <ele>2502.45</ele>
        <time>2020-09-09T09:00:54Z</time>
      </trkpt>
      <trkpt lat="44.45298" lon="6.51682">
        <ele>2503.89</ele>
        <time>2020-09-09T09:01:11Z</time>
      </trkpt>
      <trkpt lat="44.453" lon="6.51675">
        <ele>2506.77</ele>
        <time>2020-09-09T09:01:29Z</time>
      </trkpt>
      <trkpt lat="44.45297" lon="6.51668">
        <ele>2509.18</ele>
        <time>2020-09-09T09:01:47Z</time>
      </trkpt>
      <trkpt lat="44.45301" lon="6.51662">
        <ele>2512.06</ele>
        <time>2020-09-09T09:02:07Z</time>
      </trkpt>
      <trkpt lat="44.453" lon="6.51654">
        <ele>2514.95</ele>
        <time>2020-09-09T09:02:28Z</time>
      </trkpt>
      <trkpt lat="44.45302" lon="6.51649">
        <ele>2517.35</ele>
        <time>2020-09-09T09:02:45Z</time>
      </trkpt>
      <trkpt lat="44.45304" lon="6.51646">
        <ele>2519.75</ele>
        <time>2020-09-09T09:03:00Z</time>
      </trkpt>
      <trkpt lat="44.45304" lon="6.51642">
        <ele>2520.23</ele>
        <time>2020-09-09T09:03:22Z</time>
      </trkpt>
      <trkpt lat="44.45304" lon="6.51644">
        <ele>2520.23</ele>
        <time>2020-09-09T09:03:45Z</time>
      </trkpt>
      <trkpt lat="44.45305" lon="6.51645">
        <ele>2520.23</ele>
        <time>2020-09-09T09:04:08Z</time>
      </trkpt>
      <trkpt lat="44.45304" lon="6.51645">
        <ele>2520.71</ele>
        <time>2020-09-09T09:04:41Z</time>
      </trkpt>
      <trkpt lat="44.45302" lon="6.51647">
        <ele>2520.71</ele>
        <time>2020-09-09T09:05:16Z</time>
      </trkpt>
      <trkpt lat="44.45298" lon="6.51636">
        <ele>2523.12</ele>
        <time>2020-09-09T09:05:36Z</time>
      </trkpt>
      <trkpt lat="44.45299" lon="6.5163">
        <ele>2525.52</ele>
        <time>2020-09-09T09:05:56Z</time>
      </trkpt>
      <trkpt lat="44.453" lon="6.51624">
        <ele>2528.4</ele>
        <time>2020-09-09T09:06:13Z</time>
      </trkpt>
      <trkpt lat="44.45292" lon="6.51614">
        <ele>2531.29</ele>
        <time>2020-09-09T09:06:32Z</time>
      </trkpt>
      <trkpt lat="44.45286" lon="6.5161">
        <ele>2533.69</ele>
        <time>2020-09-09T09:06:54Z</time>
      </trkpt>
      <trkpt lat="44.45283" lon="6.516">
        <ele>2537.06</ele>
        <time>2020-09-09T09:07:12Z</time>
      </trkpt>
      <trkpt lat="44.45279" lon="6.51594">
        <ele>2539.46</ele>
        <time>2020-09-09T09:07:32Z</time>
      </trkpt>
      <trkpt lat="44.45274" lon="6.51585">
        <ele>2542.34</ele>
        <time>2020-09-09T09:07:50Z</time>
      </trkpt>
      <trkpt lat="44.45269" lon="6.51579">
        <ele>2544.75</ele>
        <time>2020-09-09T09:08:08Z</time>
      </trkpt>
      <trkpt lat="44.45268" lon="6.51575">
        <ele>2546.67</ele>
        <time>2020-09-09T09:08:23Z</time>
      </trkpt>
      <trkpt lat="44.45263" lon="6.51565">
        <ele>2549.55</ele>
        <time>2020-09-09T09:08:41Z</time>
      </trkpt>
      <trkpt lat="44.45257" lon="6.51556">
        <ele>2552.92</ele>
        <time>2020-09-09T09:09:01Z</time>
      </trkpt>
      <trkpt lat="44.45261" lon="6.51559">
        <ele>2554.84</ele>
        <time>2020-09-09T09:09:19Z</time>
      </trkpt>
      <trkpt lat="44.45259" lon="6.51557">
        <ele>2554.84</ele>
        <time>2020-09-09T09:09:48Z</time>
      </trkpt>
      <trkpt lat="44.45258" lon="6.51554">
        <ele>2554.84</ele>
        <time>2020-09-09T09:10:08Z</time>
      </trkpt>
      <trkpt lat="44.45263" lon="6.51546">
        <ele>2557.24</ele>
        <time>2020-09-09T09:10:24Z</time>
      </trkpt>
      <trkpt lat="44.45262" lon="6.51539">
        <ele>2560.13</ele>
        <time>2020-09-09T09:10:40Z</time>
      </trkpt>
      <trkpt lat="44.45264" lon="6.5154">
        <ele>2560.13</ele>
        <time>2020-09-09T09:11:04Z</time>
      </trkpt>
      <trkpt lat="44.45264" lon="6.51534">
        <ele>2561.57</ele>
        <time>2020-09-09T09:11:31Z</time>
      </trkpt>
      <trkpt lat="44.4526" lon="6.51526">
        <ele>2564.93</ele>
        <time>2020-09-09T09:11:48Z</time>
      </trkpt>
      <trkpt lat="44.45256" lon="6.51526">
        <ele>2564.93</ele>
        <time>2020-09-09T09:12:15Z</time>
      </trkpt>
      <trkpt lat="44.45258" lon="6.51528">
        <ele>2565.42</ele>
        <time>2020-09-09T09:12:47Z</time>
      </trkpt>
      <trkpt lat="44.45259" lon="6.51527">
        <ele>2565.42</ele>
        <time>2020-09-09T09:13:16Z</time>
      </trkpt>
      <trkpt lat="44.45255" lon="6.51525">
        <ele>2565.42</ele>
        <time>2020-09-09T09:13:46Z</time>
      </trkpt>
      <trkpt lat="44.45257" lon="6.51524">
        <ele>2566.86</ele>
        <time>2020-09-09T09:14:12Z</time>
      </trkpt>
      <trkpt lat="44.45259" lon="6.51515">
        <ele>2568.3</ele>
        <time>2020-09-09T09:14:28Z</time>
      </trkpt>
      <trkpt lat="44.45259" lon="6.51509">
        <ele>2571.66</ele>
        <time>2020-09-09T09:14:46Z</time>
      </trkpt>
      <trkpt lat="44.45261" lon="6.51501">
        <ele>2574.07</ele>
        <time>2020-09-09T09:15:05Z</time>
      </trkpt>
      <trkpt lat="44.45256" lon="6.51493">
        <ele>2577.43</ele>
        <time>2020-09-09T09:15:25Z</time>
      </trkpt>
      <trkpt lat="44.45258" lon="6.51485">
        <ele>2580.32</ele>
        <time>2020-09-09T09:15:44Z</time>
      </trkpt>
      <trkpt lat="44.4526" lon="6.51476">
        <ele>2583.2</ele>
        <time>2020-09-09T09:16:01Z</time>
      </trkpt>
      <trkpt lat="44.45263" lon="6.51475">
        <ele>2585.12</ele>
        <time>2020-09-09T09:16:17Z</time>
      </trkpt>
      <trkpt lat="44.45265" lon="6.51474">
        <ele>2588.01</ele>
        <time>2020-09-09T09:16:35Z</time>
      </trkpt>
      <trkpt lat="44.45267" lon="6.51475">
        <ele>2590.41</ele>
        <time>2020-09-09T09:16:49Z</time>
      </trkpt>
      <trkpt lat="44.45274" lon="6.51477">
        <ele>2592.81</ele>
        <time>2020-09-09T09:17:06Z</time>
      </trkpt>
      <trkpt lat="44.45277" lon="6.51475">
        <ele>2593.77</ele>
        <time>2020-09-09T09:17:19Z</time>
      </trkpt>
      <trkpt lat="44.4528" lon="6.51468">
        <ele>2596.18</ele>
        <time>2020-09-09T09:17:36Z</time>
      </trkpt>
      <trkpt lat="44.45282" lon="6.51471">
        <ele>2599.54</ele>
        <time>2020-09-09T09:17:52Z</time>
      </trkpt>
      <trkpt lat="44.45288" lon="6.51471">
        <ele>2602.43</ele>
        <time>2020-09-09T09:18:10Z</time>
      </trkpt>
      <trkpt lat="44.4529" lon="6.51466">
        <ele>2604.83</ele>
        <time>2020-09-09T09:18:29Z</time>
      </trkpt>
      <trkpt lat="44.45292" lon="6.51461">
        <ele>2607.71</ele>
        <time>2020-09-09T09:18:48Z</time>
      </trkpt>
      <trkpt lat="44.45297" lon="6.51457">
        <ele>2609.16</ele>
        <time>2020-09-09T09:19:02Z</time>
      </trkpt>
      <trkpt lat="44.45298" lon="6.51454">
        <ele>2611.56</ele>
        <time>2020-09-09T09:19:19Z</time>
      </trkpt>
      <trkpt lat="44.45301" lon="6.51458">
        <ele>2613.96</ele>
        <time>2020-09-09T09:19:34Z</time>
      </trkpt>
      <trkpt lat="44.45303" lon="6.5146">
        <ele>2615.88</ele>
        <time>2020-09-09T09:19:50Z</time>
      </trkpt>
      <trkpt lat="44.45306" lon="6.51457">
        <ele>2618.29</ele>
        <time>2020-09-09T09:20:07Z</time>
      </trkpt>
      <trkpt lat="44.45308" lon="6.5145">
        <ele>2621.17</ele>
        <time>2020-09-09T09:20:22Z</time>
      </trkpt>
      <trkpt lat="44.45308" lon="6.51451">
        <ele>2621.17</ele>
        <time>2020-09-09T09:20:44Z</time>
      </trkpt>
      <trkpt lat="44.4531" lon="6.51449">
        <ele>2623.58</ele>
        <time>2020-09-09T09:20:59Z</time>
      </trkpt>
      <trkpt lat="44.45312" lon="6.51438">
        <ele>2626.46</ele>
        <time>2020-09-09T09:21:17Z</time>
      </trkpt>
      <trkpt lat="44.45311" lon="6.5144">
        <ele>2627.9</ele>
        <time>2020-09-09T09:21:42Z</time>
      </trkpt>
      <trkpt lat="44.4531" lon="6.51435">
        <ele>2629.82</ele>
        <time>2020-09-09T09:22:01Z</time>
      </trkpt>
      <trkpt lat="44.45313" lon="6.51431">
        <ele>2632.71</ele>
        <time>2020-09-09T09:22:16Z</time>
      </trkpt>
      <trkpt lat="44.45314" lon="6.51417">
        <ele>2635.59</ele>
        <time>2020-09-09T09:22:37Z</time>
      </trkpt>
      <trkpt lat="44.45314" lon="6.51412">
        <ele>2637.99</ele>
        <time>2020-09-09T09:22:55Z</time>
      </trkpt>
      <trkpt lat="44.45317" lon="6.51414">
        <ele>2640.4</ele>
        <time>2020-09-09T09:23:12Z</time>
      </trkpt>
      <trkpt lat="44.45316" lon="6.51421">
        <ele>2641.84</ele>
        <time>2020-09-09T09:23:32Z</time>
      </trkpt>
      <trkpt lat="44.45318" lon="6.51421">
        <ele>2643.28</ele>
        <time>2020-09-09T09:23:48Z</time>
      </trkpt>
      <trkpt lat="44.45323" lon="6.5142">
        <ele>2646.65</ele>
        <time>2020-09-09T09:24:00Z</time>
      </trkpt>
      <trkpt lat="44.45325" lon="6.51416">
        <ele>2649.05</ele>
        <time>2020-09-09T09:24:18Z</time>
      </trkpt>
      <trkpt lat="44.45331" lon="6.51416">
        <ele>2651.45</ele>
        <time>2020-09-09T09:24:33Z</time>
      </trkpt>
      <trkpt lat="44.45336" lon="6.51418">
        <ele>2654.34</ele>
        <time>2020-09-09T09:24:49Z</time>
      </trkpt>
      <trkpt lat="44.45343" lon="6.51419">
        <ele>2656.74</ele>
        <time>2020-09-09T09:25:06Z</time>
      </trkpt>
      <trkpt lat="44.45342" lon="6.51421">
        <ele>2657.7</ele>
        <time>2020-09-09T09:25:24Z</time>
      </trkpt>
      <trkpt lat="44.45349" lon="6.51425">
        <ele>2660.11</ele>
        <time>2020-09-09T09:25:41Z</time>
      </trkpt>
      <trkpt lat="44.45351" lon="6.51425">
        <ele>2662.03</ele>
        <time>2020-09-09T09:26:02Z</time>
      </trkpt>
      <trkpt lat="44.45354" lon="6.51428">
        <ele>2664.43</ele>
        <time>2020-09-09T09:26:19Z</time>
      </trkpt>
      <trkpt lat="44.45356" lon="6.51428">
        <ele>2664.91</ele>
        <time>2020-09-09T09:26:42Z</time>
      </trkpt>
      <trkpt lat="44.45361" lon="6.51428">
        <ele>2667.8</ele>
        <time>2020-09-09T09:26:57Z</time>
      </trkpt>
      <trkpt lat="44.45363" lon="6.51428">
        <ele>2670.2</ele>
        <time>2020-09-09T09:27:06Z</time>
      </trkpt>
      <trkpt lat="44.45359" lon="6.5142">
        <ele>2671.64</ele>
        <time>2020-09-09T09:27:25Z</time>
      </trkpt>
      <trkpt lat="44.4536" lon="6.51419">
        <ele>2673.56</ele>
        <time>2020-09-09T09:27:43Z</time>
      </trkpt>
      <trkpt lat="44.4536" lon="6.51417">
        <ele>2674.04</ele>
        <time>2020-09-09T09:28:00Z</time>
      </trkpt>
      <trkpt lat="44.4536" lon="6.51417">
        <ele>2674.52</ele>
        <time>2020-09-09T09:28:23Z</time>
      </trkpt>
      <trkpt lat="44.45358" lon="6.51416">
        <ele>2674.52</ele>
        <time>2020-09-09T09:28:41Z</time>
      </trkpt>
      <trkpt lat="44.45359" lon="6.51418">
        <ele>2673.08</ele>
        <time>2020-09-09T09:29:02Z</time>
      </trkpt>
      <trkpt lat="44.45355" lon="6.51415">
        <ele>2672.12</ele>
        <time>2020-09-09T09:29:15Z</time>
      </trkpt>
      <trkpt lat="44.45354" lon="6.51414">
        <ele>2674.04</ele>
        <time>2020-09-09T09:29:30Z</time>
      </trkpt>
      <trkpt lat="44.45355" lon="6.51414">
        <ele>2674.04</ele>
        <time>2020-09-09T09:29:49Z</time>
      </trkpt>
      <trkpt lat="44.45353" lon="6.51412">
        <ele>2674.04</ele>
        <time>2020-09-09T09:30:09Z</time>
      </trkpt>
      <trkpt lat="44.45353" lon="6.51412">
        <ele>2674.04</ele>
        <time>2020-09-09T09:30:25Z</time>
      </trkpt>
      <trkpt lat="44.45353" lon="6.51413">
        <ele>2676.93</ele>
        <time>2020-09-09T09:30:46Z</time>
      </trkpt>
      <trkpt lat="44.45353" lon="6.51412">
        <ele>2673.08</ele>
        <time>2020-09-09T09:30:48Z</time>
      </trkpt>
      <trkpt lat="44.45353" lon="6.51411">
        <ele>2676.45</ele>
        <time>2020-09-09T09:30:51Z</time>
      </trkpt>
      <trkpt lat="44.45353" lon="6.51415">
        <ele>2674.04</ele>
        <time>2020-09-09T09:31:19Z</time>
      </trkpt>
      <trkpt lat="44.45355" lon="6.51416">
        <ele>2675.49</ele>
        <time>2020-09-09T09:31:31Z</time>
      </trkpt>
      <trkpt lat="44.4536" lon="6.51419">
        <ele>2674.52</ele>
        <time>2020-09-09T09:31:51Z</time>
      </trkpt>
      <trkpt lat="44.4536" lon="6.51419">
        <ele>2675.01</ele>
        <time>2020-09-09T09:32:06Z</time>
      </trkpt>
      <trkpt lat="44.45359" lon="6.51417">
        <ele>2675.49</ele>
        <time>2020-09-09T09:32:34Z</time>
      </trkpt>
      <trkpt lat="44.45359" lon="6.51416">
        <ele>2674.04</ele>
        <time>2020-09-09T09:32:40Z</time>
      </trkpt>
      <trkpt lat="44.4536" lon="6.51416">
        <ele>2675.49</ele>
        <time>2020-09-09T09:32:58Z</time>
      </trkpt>
      <trkpt lat="44.45359" lon="6.51421">
        <ele>2674.04</ele>
        <time>2020-09-09T09:33:07Z</time>
      </trkpt>
      <trkpt lat="44.4536" lon="6.51424">
        <ele>2675.97</ele>
        <time>2020-09-09T09:33:13Z</time>
      </trkpt>
      <trkpt lat="44.45362" lon="6.51425">
        <ele>2676.45</ele>
        <time>2020-09-09T09:33:20Z</time>
      </trkpt>
      <trkpt lat="44.45366" lon="6.51426">
        <ele>2676.45</ele>
        <time>2020-09-09T09:33:24Z</time>
      </trkpt>
      <trkpt lat="44.45366" lon="6.51426">
        <ele>2674.52</ele>
        <time>2020-09-09T09:33:32Z</time>
      </trkpt>
      <trkpt lat="44.4537" lon="6.51435">
        <ele>2671.64</ele>
        <time>2020-09-09T09:33:53Z</time>
      </trkpt>
      <trkpt lat="44.4537" lon="6.51428">
        <ele>2672.6</ele>
        <time>2020-09-09T09:34:17Z</time>
      </trkpt>
      <trkpt lat="44.4537" lon="6.51429">
        <ele>2671.64</ele>
        <time>2020-09-09T09:34:29Z</time>
      </trkpt>
      <trkpt lat="44.45373" lon="6.51435">
        <ele>2674.04</ele>
        <time>2020-09-09T09:34:48Z</time>
      </trkpt>
      <trkpt lat="44.4538" lon="6.5144">
        <ele>2677.89</ele>
        <time>2020-09-09T09:35:00Z</time>
      </trkpt>
      <trkpt lat="44.45387" lon="6.51443">
        <ele>2681.25</ele>
        <time>2020-09-09T09:35:18Z</time>
      </trkpt>
      <trkpt lat="44.45391" lon="6.51448">
        <ele>2683.18</ele>
        <time>2020-09-09T09:35:36Z</time>
      </trkpt>
      <trkpt lat="44.45392" lon="6.51452">
        <ele>2685.1</ele>
        <time>2020-09-09T09:35:56Z</time>
      </trkpt>
      <trkpt lat="44.45399" lon="6.51454">
        <ele>2685.58</ele>
        <time>2020-09-09T09:36:19Z</time>
      </trkpt>
      <trkpt lat="44.454" lon="6.51459">
        <ele>2687.98</ele>
        <time>2020-09-09T09:36:29Z</time>
      </trkpt>
      <trkpt lat="44.45399" lon="6.51459">
        <ele>2686.06</ele>
        <time>2020-09-09T09:36:31Z</time>
      </trkpt>
      <trkpt lat="44.45399" lon="6.51459">
        <ele>2687.98</ele>
        <time>2020-09-09T09:36:35Z</time>
      </trkpt>
      <trkpt lat="44.45406" lon="6.51461">
        <ele>2690.39</ele>
        <time>2020-09-09T09:36:57Z</time>
      </trkpt>
      <trkpt lat="44.45407" lon="6.51464">
        <ele>2689.91</ele>
        <time>2020-09-09T09:37:09Z</time>
      </trkpt>
      <trkpt lat="44.45408" lon="6.51466">
        <ele>2691.35</ele>
        <time>2020-09-09T09:37:13Z</time>
      </trkpt>
      <trkpt lat="44.45405" lon="6.51466">
        <ele>2687.5</ele>
        <time>2020-09-09T09:37:29Z</time>
      </trkpt>
      <trkpt lat="44.45405" lon="6.51465">
        <ele>2694.23</ele>
        <time>2020-09-09T09:37:30Z</time>
      </trkpt>
      <trkpt lat="44.45405" lon="6.51465">
        <ele>2690.87</ele>
        <time>2020-09-09T09:37:31Z</time>
      </trkpt>
      <trkpt lat="44.45408" lon="6.5147">
        <ele>2691.83</ele>
        <time>2020-09-09T09:37:41Z</time>
      </trkpt>
      <trkpt lat="44.45412" lon="6.51474">
        <ele>2694.23</ele>
        <time>2020-09-09T09:38:01Z</time>
      </trkpt>
      <trkpt lat="44.45417" lon="6.51476">
        <ele>2695.19</ele>
        <time>2020-09-09T09:38:25Z</time>
      </trkpt>
      <trkpt lat="44.45421" lon="6.51475">
        <ele>2697.6</ele>
        <time>2020-09-09T09:38:37Z</time>
      </trkpt>
      <trkpt lat="44.45424" lon="6.51473">
        <ele>2700.48</ele>
        <time>2020-09-09T09:38:57Z</time>
      </trkpt>
      <trkpt lat="44.45425" lon="6.51472">
        <ele>2700.48</ele>
        <time>2020-09-09T09:39:17Z</time>
      </trkpt>
      <trkpt lat="44.45425" lon="6.51475">
        <ele>2701.92</ele>
        <time>2020-09-09T09:39:26Z</time>
      </trkpt>
      <trkpt lat="44.45432" lon="6.51476">
        <ele>2705.29</ele>
        <time>2020-09-09T09:39:48Z</time>
      </trkpt>
      <trkpt lat="44.45436" lon="6.51476">
        <ele>2707.69</ele>
        <time>2020-09-09T09:39:56Z</time>
      </trkpt>
      <trkpt lat="44.45437" lon="6.51472">
        <ele>2708.65</ele>
        <time>2020-09-09T09:40:16Z</time>
      </trkpt>
      <trkpt lat="44.45439" lon="6.5147">
        <ele>2711.54</ele>
        <time>2020-09-09T09:40:43Z</time>
      </trkpt>
      <trkpt lat="44.45441" lon="6.51466">
        <ele>2712.02</ele>
        <time>2020-09-09T09:40:53Z</time>
      </trkpt>
      <trkpt lat="44.45441" lon="6.51464">
        <ele>2713.94</ele>
        <time>2020-09-09T09:40:56Z</time>
      </trkpt>
      <trkpt lat="44.45442" lon="6.51467">
        <ele>2715.38</ele>
        <time>2020-09-09T09:41:19Z</time>
      </trkpt>
      <trkpt lat="44.45446" lon="6.51469">
        <ele>2718.27</ele>
        <time>2020-09-09T09:41:31Z</time>
      </trkpt>
      <trkpt lat="44.45446" lon="6.5147">
        <ele>2720.19</ele>
        <time>2020-09-09T09:41:53Z</time>
      </trkpt>
      <trkpt lat="44.45446" lon="6.51469">
        <ele>2720.19</ele>
        <time>2020-09-09T09:42:23Z</time>
      </trkpt>
      <trkpt lat="44.45446" lon="6.51469">
        <ele>2720.19</ele>
        <time>2020-09-09T09:42:54Z</time>
      </trkpt>
      <trkpt lat="44.45448" lon="6.51469">
        <ele>2723.07</ele>
        <time>2020-09-09T09:43:18Z</time>
      </trkpt>
      <trkpt lat="44.45453" lon="6.5147">
        <ele>2726.44</ele>
        <time>2020-09-09T09:43:35Z</time>
      </trkpt>
      <trkpt lat="44.45455" lon="6.51472">
        <ele>2727.88</ele>
        <time>2020-09-09T09:43:43Z</time>
      </trkpt>
      <trkpt lat="44.4546" lon="6.5147">
        <ele>2730.76</ele>
        <time>2020-09-09T09:44:06Z</time>
      </trkpt>
      <trkpt lat="44.45461" lon="6.5147">
        <ele>2731.72</ele>
        <time>2020-09-09T09:44:22Z</time>
      </trkpt>
      <trkpt lat="44.45458" lon="6.51473">
        <ele>2734.13</ele>
        <time>2020-09-09T09:44:47Z</time>
      </trkpt>
      <trkpt lat="44.4546" lon="6.51477">
        <ele>2732.68</ele>
        <time>2020-09-09T09:45:03Z</time>
      </trkpt>
      <trkpt lat="44.45465" lon="6.51479">
        <ele>2735.09</ele>
        <time>2020-09-09T09:45:25Z</time>
      </trkpt>
      <trkpt lat="44.45465" lon="6.5148">
        <ele>2733.65</ele>
        <time>2020-09-09T09:45:27Z</time>
      </trkpt>
      <trkpt lat="44.45468" lon="6.51482">
        <ele>2735.09</ele>
        <time>2020-09-09T09:45:50Z</time>
      </trkpt>
      <trkpt lat="44.45468" lon="6.51484">
        <ele>2736.53</ele>
        <time>2020-09-09T09:46:06Z</time>
      </trkpt>
      <trkpt lat="44.45471" lon="6.51492">
        <ele>2737.49</ele>
        <time>2020-09-09T09:46:29Z</time>
      </trkpt>
      <trkpt lat="44.45478" lon="6.51493">
        <ele>2740.86</ele>
        <time>2020-09-09T09:46:43Z</time>
      </trkpt>
      <trkpt lat="44.45478" lon="6.51491">
        <ele>2740.86</ele>
        <time>2020-09-09T09:47:06Z</time>
      </trkpt>
      <trkpt lat="44.4548" lon="6.51491">
        <ele>2741.82</ele>
        <time>2020-09-09T09:47:12Z</time>
      </trkpt>
      <trkpt lat="44.45484" lon="6.51491">
        <ele>2744.22</ele>
        <time>2020-09-09T09:47:20Z</time>
      </trkpt>
      <trkpt lat="44.45486" lon="6.5149">
        <ele>2743.74</ele>
        <time>2020-09-09T09:47:27Z</time>
      </trkpt>
      <trkpt lat="44.45487" lon="6.5149">
        <ele>2745.18</ele>
        <time>2020-09-09T09:47:29Z</time>
      </trkpt>
      <trkpt lat="44.45488" lon="6.51489">
        <ele>2746.62</ele>
        <time>2020-09-09T09:47:32Z</time>
      </trkpt>
      <trkpt lat="44.45491" lon="6.51491">
        <ele>2747.1</ele>
        <time>2020-09-09T09:47:57Z</time>
      </trkpt>
      <trkpt lat="44.45497" lon="6.51494">
        <ele>2749.99</ele>
        <time>2020-09-09T09:48:14Z</time>
      </trkpt>
      <trkpt lat="44.45502" lon="6.51494">
        <ele>2753.35</ele>
        <time>2020-09-09T09:48:31Z</time>
      </trkpt>
      <trkpt lat="44.45503" lon="6.51494">
        <ele>2753.83</ele>
        <time>2020-09-09T09:48:32Z</time>
      </trkpt>
      <trkpt lat="44.45504" lon="6.51493">
        <ele>2752.39</ele>
        <time>2020-09-09T09:48:34Z</time>
      </trkpt>
      <trkpt lat="44.45506" lon="6.51494">
        <ele>2753.83</ele>
        <time>2020-09-09T09:48:37Z</time>
      </trkpt>
      <trkpt lat="44.45505" lon="6.5149">
        <ele>2754.31</ele>
        <time>2020-09-09T09:48:56Z</time>
      </trkpt>
      <trkpt lat="44.45507" lon="6.51492">
        <ele>2753.83</ele>
        <time>2020-09-09T09:49:22Z</time>
      </trkpt>
      <trkpt lat="44.45506" lon="6.51493">
        <ele>2753.35</ele>
        <time>2020-09-09T09:49:46Z</time>
      </trkpt>
      <trkpt lat="44.45509" lon="6.51495">
        <ele>2754.31</ele>
        <time>2020-09-09T09:50:00Z</time>
      </trkpt>
      <trkpt lat="44.45512" lon="6.51494">
        <ele>2757.2</ele>
        <time>2020-09-09T09:50:23Z</time>
      </trkpt>
      <trkpt lat="44.45514" lon="6.51496">
        <ele>2758.16</ele>
        <time>2020-09-09T09:50:27Z</time>
      </trkpt>
      <trkpt lat="44.45517" lon="6.51497">
        <ele>2758.16</ele>
        <time>2020-09-09T09:50:34Z</time>
      </trkpt>
      <trkpt lat="44.45524" lon="6.51497">
        <ele>2762</ele>
        <time>2020-09-09T09:50:54Z</time>
      </trkpt>
      <trkpt lat="44.45525" lon="6.51497">
        <ele>2762</ele>
        <time>2020-09-09T09:50:55Z</time>
      </trkpt>
      <trkpt lat="44.45531" lon="6.515">
        <ele>2764.41</ele>
        <time>2020-09-09T09:51:14Z</time>
      </trkpt>
      <trkpt lat="44.45535" lon="6.51502">
        <ele>2766.33</ele>
        <time>2020-09-09T09:51:25Z</time>
      </trkpt>
      <trkpt lat="44.45538" lon="6.51499">
        <ele>2769.21</ele>
        <time>2020-09-09T09:51:42Z</time>
      </trkpt>
      <trkpt lat="44.45546" lon="6.51502">
        <ele>2771.62</ele>
        <time>2020-09-09T09:52:02Z</time>
      </trkpt>
      <trkpt lat="44.4555" lon="6.51502">
        <ele>2774.98</ele>
        <time>2020-09-09T09:52:13Z</time>
      </trkpt>
      <trkpt lat="44.45552" lon="6.51502">
        <ele>2777.87</ele>
        <time>2020-09-09T09:52:35Z</time>
      </trkpt>
      <trkpt lat="44.45554" lon="6.51501">
        <ele>2777.39</ele>
        <time>2020-09-09T09:52:51Z</time>
      </trkpt>
      <trkpt lat="44.45554" lon="6.51501">
        <ele>2779.31</ele>
        <time>2020-09-09T09:53:18Z</time>
      </trkpt>
      <trkpt lat="44.45554" lon="6.51504">
        <ele>2777.87</ele>
        <time>2020-09-09T09:53:23Z</time>
      </trkpt>
      <trkpt lat="44.45554" lon="6.51506">
        <ele>2779.79</ele>
        <time>2020-09-09T09:53:29Z</time>
      </trkpt>
      <trkpt lat="44.45556" lon="6.51507">
        <ele>2779.79</ele>
        <time>2020-09-09T09:53:37Z</time>
      </trkpt>
      <trkpt lat="44.45557" lon="6.51506">
        <ele>2781.23</ele>
        <time>2020-09-09T09:53:41Z</time>
      </trkpt>
      <trkpt lat="44.45558" lon="6.51503">
        <ele>2783.63</ele>
        <time>2020-09-09T09:54:06Z</time>
      </trkpt>
      <trkpt lat="44.45559" lon="6.51504">
        <ele>2785.08</ele>
        <time>2020-09-09T09:54:10Z</time>
      </trkpt>
      <trkpt lat="44.45563" lon="6.51503">
        <ele>2787.96</ele>
        <time>2020-09-09T09:54:22Z</time>
      </trkpt>
      <trkpt lat="44.45563" lon="6.51502">
        <ele>2786.52</ele>
        <time>2020-09-09T09:54:26Z</time>
      </trkpt>
      <trkpt lat="44.45565" lon="6.51504">
        <ele>2789.88</ele>
        <time>2020-09-09T09:54:46Z</time>
      </trkpt>
      <trkpt lat="44.45565" lon="6.51504">
        <ele>2789.88</ele>
        <time>2020-09-09T09:54:47Z</time>
      </trkpt>
      <trkpt lat="44.4557" lon="6.51505">
        <ele>2792.29</ele>
        <time>2020-09-09T09:55:14Z</time>
      </trkpt>
      <trkpt lat="44.45572" lon="6.51504">
        <ele>2793.25</ele>
        <time>2020-09-09T09:55:42Z</time>
      </trkpt>
      <trkpt lat="44.45573" lon="6.51505">
        <ele>2795.17</ele>
        <time>2020-09-09T09:55:51Z</time>
      </trkpt>
      <trkpt lat="44.45575" lon="6.51502">
        <ele>2797.09</ele>
        <time>2020-09-09T09:55:59Z</time>
      </trkpt>
      <trkpt lat="44.45578" lon="6.51501">
        <ele>2799.5</ele>
        <time>2020-09-09T09:56:06Z</time>
      </trkpt>
      <trkpt lat="44.45581" lon="6.51501">
        <ele>2798.05</ele>
        <time>2020-09-09T09:56:16Z</time>
      </trkpt>
      <trkpt lat="44.45582" lon="6.51502">
        <ele>2800.94</ele>
        <time>2020-09-09T09:56:20Z</time>
      </trkpt>
      <trkpt lat="44.45583" lon="6.51503">
        <ele>2800.94</ele>
        <time>2020-09-09T09:56:22Z</time>
      </trkpt>
      <trkpt lat="44.45588" lon="6.51505">
        <ele>2802.86</ele>
        <time>2020-09-09T09:56:44Z</time>
      </trkpt>
      <trkpt lat="44.45594" lon="6.51509">
        <ele>2804.3</ele>
        <time>2020-09-09T09:57:05Z</time>
      </trkpt>
      <trkpt lat="44.45595" lon="6.51508">
        <ele>2805.75</ele>
        <time>2020-09-09T09:57:08Z</time>
      </trkpt>
      <trkpt lat="44.45601" lon="6.51513">
        <ele>2808.15</ele>
        <time>2020-09-09T09:57:26Z</time>
      </trkpt>
      <trkpt lat="44.45607" lon="6.51514">
        <ele>2811.03</ele>
        <time>2020-09-09T09:57:43Z</time>
      </trkpt>
      <trkpt lat="44.45608" lon="6.51514">
        <ele>2811.03</ele>
        <time>2020-09-09T09:57:44Z</time>
      </trkpt>
      <trkpt lat="44.45611" lon="6.5151">
        <ele>2813.44</ele>
        <time>2020-09-09T09:58:03Z</time>
      </trkpt>
      <trkpt lat="44.45612" lon="6.51507">
        <ele>2815.84</ele>
        <time>2020-09-09T09:58:24Z</time>
      </trkpt>
      <trkpt lat="44.45614" lon="6.51509">
        <ele>2816.8</ele>
        <time>2020-09-09T09:58:36Z</time>
      </trkpt>
      <trkpt lat="44.45614" lon="6.5151">
        <ele>2816.8</ele>
        <time>2020-09-09T09:58:52Z</time>
      </trkpt>
      <trkpt lat="44.45614" lon="6.5151">
        <ele>2818.72</ele>
        <time>2020-09-09T09:58:54Z</time>
      </trkpt>
      <trkpt lat="44.45617" lon="6.51508">
        <ele>2820.16</ele>
        <time>2020-09-09T09:59:19Z</time>
      </trkpt>
      <trkpt lat="44.45622" lon="6.51511">
        <ele>2823.53</ele>
        <time>2020-09-09T09:59:36Z</time>
      </trkpt>
      <trkpt lat="44.45622" lon="6.51511">
        <ele>2823.53</ele>
        <time>2020-09-09T09:59:37Z</time>
      </trkpt>
      <trkpt lat="44.45626" lon="6.51514">
        <ele>2824.01</ele>
        <time>2020-09-09T09:59:48Z</time>
      </trkpt>
      <trkpt lat="44.4563" lon="6.51516">
        <ele>2825.93</ele>
        <time>2020-09-09T09:59:57Z</time>
      </trkpt>
      <trkpt lat="44.45632" lon="6.51518">
        <ele>2828.82</ele>
        <time>2020-09-09T10:00:20Z</time>
      </trkpt>
      <trkpt lat="44.45646" lon="6.51519">
        <ele>2830.74</ele>
        <time>2020-09-09T10:00:38Z</time>
      </trkpt>
      <trkpt lat="44.45648" lon="6.5152">
        <ele>2832.66</ele>
        <time>2020-09-09T10:00:58Z</time>
      </trkpt>
      <trkpt lat="44.4565" lon="6.51521">
        <ele>2831.22</ele>
        <time>2020-09-09T10:01:13Z</time>
      </trkpt>
      <trkpt lat="44.45653" lon="6.51522">
        <ele>2832.66</ele>
        <time>2020-09-09T10:01:23Z</time>
      </trkpt>
      <trkpt lat="44.45655" lon="6.51523">
        <ele>2832.66</ele>
        <time>2020-09-09T10:01:26Z</time>
      </trkpt>
      <trkpt lat="44.4566" lon="6.51526">
        <ele>2833.62</ele>
        <time>2020-09-09T10:01:37Z</time>
      </trkpt>
      <trkpt lat="44.45664" lon="6.51527">
        <ele>2834.1</ele>
        <time>2020-09-09T10:01:48Z</time>
      </trkpt>
      <trkpt lat="44.45664" lon="6.51524">
        <ele>2836.99</ele>
        <time>2020-09-09T10:02:03Z</time>
      </trkpt>
      <trkpt lat="44.45667" lon="6.51526">
        <ele>2836.99</ele>
        <time>2020-09-09T10:02:12Z</time>
      </trkpt>
      <trkpt lat="44.45671" lon="6.51527">
        <ele>2837.95</ele>
        <time>2020-09-09T10:02:23Z</time>
      </trkpt>
      <trkpt lat="44.45678" lon="6.51531">
        <ele>2838.91</ele>
        <time>2020-09-09T10:02:33Z</time>
      </trkpt>
      <trkpt lat="44.45681" lon="6.51532">
        <ele>2839.39</ele>
        <time>2020-09-09T10:02:46Z</time>
      </trkpt>
      <trkpt lat="44.45685" lon="6.51533">
        <ele>2840.83</ele>
        <time>2020-09-09T10:03:01Z</time>
      </trkpt>
      <trkpt lat="44.4569" lon="6.51535">
        <ele>2841.79</ele>
        <time>2020-09-09T10:03:14Z</time>
      </trkpt>
      <trkpt lat="44.45693" lon="6.51535">
        <ele>2843.24</ele>
        <time>2020-09-09T10:03:23Z</time>
      </trkpt>
      <trkpt lat="44.45697" lon="6.51539">
        <ele>2843.72</ele>
        <time>2020-09-09T10:03:37Z</time>
      </trkpt>
      <trkpt lat="44.45698" lon="6.51539">
        <ele>2844.2</ele>
        <time>2020-09-09T10:03:41Z</time>
      </trkpt>
      <trkpt lat="44.45701" lon="6.51539">
        <ele>2845.16</ele>
        <time>2020-09-09T10:03:45Z</time>
      </trkpt>
      <trkpt lat="44.4571" lon="6.51543">
        <ele>2846.6</ele>
        <time>2020-09-09T10:03:56Z</time>
      </trkpt>
      <trkpt lat="44.45713" lon="6.51544">
        <ele>2846.6</ele>
        <time>2020-09-09T10:04:00Z</time>
      </trkpt>
      <trkpt lat="44.45718" lon="6.51546">
        <ele>2847.56</ele>
        <time>2020-09-09T10:04:08Z</time>
      </trkpt>
      <trkpt lat="44.45722" lon="6.51545">
        <ele>2849.48</ele>
        <time>2020-09-09T10:04:18Z</time>
      </trkpt>
      <trkpt lat="44.45724" lon="6.51548">
        <ele>2852.85</ele>
        <time>2020-09-09T10:04:29Z</time>
      </trkpt>
      <trkpt lat="44.45724" lon="6.51548">
        <ele>2849.48</ele>
        <time>2020-09-09T10:04:33Z</time>
      </trkpt>
      <trkpt lat="44.45724" lon="6.51547">
        <ele>2850.93</ele>
        <time>2020-09-09T10:04:50Z</time>
      </trkpt>
      <trkpt lat="44.45723" lon="6.51549">
        <ele>2850.45</ele>
        <time>2020-09-09T10:05:09Z</time>
      </trkpt>
      <trkpt lat="44.45723" lon="6.51549">
        <ele>2849.97</ele>
        <time>2020-09-09T10:05:38Z</time>
      </trkpt>
      <trkpt lat="44.45724" lon="6.5155">
        <ele>2851.41</ele>
        <time>2020-09-09T10:05:50Z</time>
      </trkpt>
      <trkpt lat="44.45725" lon="6.5155">
        <ele>2850.45</ele>
        <time>2020-09-09T10:05:52Z</time>
      </trkpt>
      <trkpt lat="44.45727" lon="6.51551">
        <ele>2851.41</ele>
        <time>2020-09-09T10:06:06Z</time>
      </trkpt>
      <trkpt lat="44.45732" lon="6.51554">
        <ele>2850.93</ele>
        <time>2020-09-09T10:06:18Z</time>
      </trkpt>
      <trkpt lat="44.45734" lon="6.51556">
        <ele>2850.45</ele>
        <time>2020-09-09T10:06:38Z</time>
      </trkpt>
      <trkpt lat="44.4574" lon="6.51564">
        <ele>2848.04</ele>
        <time>2020-09-09T10:06:54Z</time>
      </trkpt>
      <trkpt lat="44.45742" lon="6.51565">
        <ele>2848.04</ele>
        <time>2020-09-09T10:06:59Z</time>
      </trkpt>
      <trkpt lat="44.45743" lon="6.51565">
        <ele>2848.04</ele>
        <time>2020-09-09T10:07:00Z</time>
      </trkpt>
      <trkpt lat="44.45745" lon="6.51566">
        <ele>2848.04</ele>
        <time>2020-09-09T10:07:02Z</time>
      </trkpt>
      <trkpt lat="44.45748" lon="6.51568">
        <ele>2849.48</ele>
        <time>2020-09-09T10:07:06Z</time>
      </trkpt>
      <trkpt lat="44.45753" lon="6.51573">
        <ele>2849.97</ele>
        <time>2020-09-09T10:07:15Z</time>
      </trkpt>
      <trkpt lat="44.45758" lon="6.51573">
        <ele>2848.52</ele>
        <time>2020-09-09T10:07:18Z</time>
      </trkpt>
      <trkpt lat="44.45764" lon="6.51574">
        <ele>2848.52</ele>
        <time>2020-09-09T10:07:24Z</time>
      </trkpt>
      <trkpt lat="44.45766" lon="6.51573">
        <ele>2849.97</ele>
        <time>2020-09-09T10:07:27Z</time>
      </trkpt>
      <trkpt lat="44.45771" lon="6.51575">
        <ele>2851.89</ele>
        <time>2020-09-09T10:07:40Z</time>
      </trkpt>
      <trkpt lat="44.45774" lon="6.51577">
        <ele>2852.37</ele>
        <time>2020-09-09T10:07:47Z</time>
      </trkpt>
      <trkpt lat="44.45779" lon="6.51577">
        <ele>2852.85</ele>
        <time>2020-09-09T10:07:59Z</time>
      </trkpt>
      <trkpt lat="44.45779" lon="6.51576">
        <ele>2849.48</ele>
        <time>2020-09-09T10:08:03Z</time>
      </trkpt>
      <trkpt lat="44.45779" lon="6.51576">
        <ele>2854.29</ele>
        <time>2020-09-09T10:08:04Z</time>
      </trkpt>
      <trkpt lat="44.45779" lon="6.51577">
        <ele>2854.29</ele>
        <time>2020-09-09T10:08:05Z</time>
      </trkpt>
      <trkpt lat="44.45778" lon="6.51577">
        <ele>2853.33</ele>
        <time>2020-09-09T10:08:07Z</time>
      </trkpt>
      <trkpt lat="44.45781" lon="6.51577">
        <ele>2854.29</ele>
        <time>2020-09-09T10:08:28Z</time>
      </trkpt>
      <trkpt lat="44.45782" lon="6.51577">
        <ele>2854.29</ele>
        <time>2020-09-09T10:08:29Z</time>
      </trkpt>
      <trkpt lat="44.45789" lon="6.51577">
        <ele>2856.69</ele>
        <time>2020-09-09T10:08:40Z</time>
      </trkpt>
      <trkpt lat="44.45794" lon="6.51577">
        <ele>2858.62</ele>
        <time>2020-09-09T10:08:49Z</time>
      </trkpt>
      <trkpt lat="44.45802" lon="6.51578">
        <ele>2860.54</ele>
        <time>2020-09-09T10:09:01Z</time>
      </trkpt>
      <trkpt lat="44.45803" lon="6.51579">
        <ele>2861.02</ele>
        <time>2020-09-09T10:09:14Z</time>
      </trkpt>
      <trkpt lat="44.45808" lon="6.5158">
        <ele>2862.94</ele>
        <time>2020-09-09T10:09:25Z</time>
      </trkpt>
      <trkpt lat="44.45812" lon="6.51581">
        <ele>2865.35</ele>
        <time>2020-09-09T10:09:35Z</time>
      </trkpt>
      <trkpt lat="44.45815" lon="6.51582">
        <ele>2865.83</ele>
        <time>2020-09-09T10:09:44Z</time>
      </trkpt>
      <trkpt lat="44.45818" lon="6.51584">
        <ele>2867.27</ele>
        <time>2020-09-09T10:09:56Z</time>
      </trkpt>
      <trkpt lat="44.45821" lon="6.51584">
        <ele>2869.67</ele>
        <time>2020-09-09T10:10:13Z</time>
      </trkpt>
      <trkpt lat="44.4582" lon="6.51579">
        <ele>2870.63</ele>
        <time>2020-09-09T10:10:36Z</time>
      </trkpt>
      <trkpt lat="44.45819" lon="6.51576">
        <ele>2873.04</ele>
        <time>2020-09-09T10:10:49Z</time>
      </trkpt>
      <trkpt lat="44.45823" lon="6.51575">
        <ele>2874.48</ele>
        <time>2020-09-09T10:11:01Z</time>
      </trkpt>
      <trkpt lat="44.45825" lon="6.51575">
        <ele>2876.88</ele>
        <time>2020-09-09T10:11:13Z</time>
      </trkpt>
      <trkpt lat="44.45826" lon="6.51574">
        <ele>2876.88</ele>
        <time>2020-09-09T10:11:26Z</time>
      </trkpt>
      <trkpt lat="44.45826" lon="6.51574">
        <ele>2876.88</ele>
        <time>2020-09-09T10:11:45Z</time>
      </trkpt>
      <trkpt lat="44.4583" lon="6.51574">
        <ele>2879.77</ele>
        <time>2020-09-09T10:12:01Z</time>
      </trkpt>
      <trkpt lat="44.45835" lon="6.51576">
        <ele>2881.69</ele>
        <time>2020-09-09T10:12:15Z</time>
      </trkpt>
      <trkpt lat="44.45837" lon="6.51578">
        <ele>2883.13</ele>
        <time>2020-09-09T10:12:29Z</time>
      </trkpt>
      <trkpt lat="44.45837" lon="6.51577">
        <ele>2885.05</ele>
        <time>2020-09-09T10:12:45Z</time>
      </trkpt>
      <trkpt lat="44.45841" lon="6.51576">
        <ele>2887.94</ele>
        <time>2020-09-09T10:12:58Z</time>
      </trkpt>
      <trkpt lat="44.45843" lon="6.51577">
        <ele>2890.34</ele>
        <time>2020-09-09T10:13:14Z</time>
      </trkpt>
      <trkpt lat="44.45844" lon="6.51578">
        <ele>2891.78</ele>
        <time>2020-09-09T10:13:36Z</time>
      </trkpt>
      <trkpt lat="44.4585" lon="6.51576">
        <ele>2893.23</ele>
        <time>2020-09-09T10:13:53Z</time>
      </trkpt>
      <trkpt lat="44.4585" lon="6.51577">
        <ele>2893.23</ele>
        <time>2020-09-09T10:14:10Z</time>
      </trkpt>
      <trkpt lat="44.45852" lon="6.5158">
        <ele>2893.23</ele>
        <time>2020-09-09T10:14:31Z</time>
      </trkpt>
      <trkpt lat="44.45855" lon="6.51581">
        <ele>2893.23</ele>
        <time>2020-09-09T10:14:44Z</time>
      </trkpt>
      <trkpt lat="44.45856" lon="6.51582">
        <ele>2893.23</ele>
        <time>2020-09-09T10:15:00Z</time>
      </trkpt>
      <trkpt lat="44.45857" lon="6.51584">
        <ele>2891.78</ele>
        <time>2020-09-09T10:15:11Z</time>
      </trkpt>
      <trkpt lat="44.4586" lon="6.51584">
        <ele>2892.26</ele>
        <time>2020-09-09T10:15:28Z</time>
      </trkpt>
      <trkpt lat="44.45857" lon="6.51583">
        <ele>2891.78</ele>
        <time>2020-09-09T10:15:45Z</time>
      </trkpt>
      <trkpt lat="44.45852" lon="6.5158">
        <ele>2891.78</ele>
        <time>2020-09-09T10:16:04Z</time>
      </trkpt>
      <trkpt lat="44.45851" lon="6.5158">
        <ele>2892.74</ele>
        <time>2020-09-09T10:16:06Z</time>
      </trkpt>
      <trkpt lat="44.4585" lon="6.51579">
        <ele>2893.71</ele>
        <time>2020-09-09T10:16:21Z</time>
      </trkpt>
      <trkpt lat="44.45852" lon="6.51579">
        <ele>2893.71</ele>
        <time>2020-09-09T10:16:33Z</time>
      </trkpt>
      <trkpt lat="44.45852" lon="6.5158">
        <ele>2894.19</ele>
        <time>2020-09-09T10:16:48Z</time>
      </trkpt>
      <trkpt lat="44.45852" lon="6.5158">
        <ele>2894.19</ele>
        <time>2020-09-09T10:17:07Z</time>
      </trkpt>
      <trkpt lat="44.45852" lon="6.51579">
        <ele>2894.19</ele>
        <time>2020-09-09T10:17:23Z</time>
      </trkpt>
      <trkpt lat="44.45851" lon="6.51579">
        <ele>2894.19</ele>
        <time>2020-09-09T10:17:39Z</time>
      </trkpt>
      <trkpt lat="44.45853" lon="6.51578">
        <ele>2894.19</ele>
        <time>2020-09-09T10:17:57Z</time>
      </trkpt>
      <trkpt lat="44.45851" lon="6.51578">
        <ele>2892.74</ele>
        <time>2020-09-09T10:18:16Z</time>
      </trkpt>
      <trkpt lat="44.45851" lon="6.51576">
        <ele>2894.19</ele>
        <time>2020-09-09T10:18:26Z</time>
      </trkpt>
      <trkpt lat="44.45851" lon="6.51578">
        <ele>2894.19</ele>
        <time>2020-09-09T10:18:48Z</time>
      </trkpt>
      <trkpt lat="44.45851" lon="6.51579">
        <ele>2894.19</ele>
        <time>2020-09-09T10:19:09Z</time>
      </trkpt>
      <trkpt lat="44.4585" lon="6.51578">
        <ele>2894.19</ele>
        <time>2020-09-09T10:19:27Z</time>
      </trkpt>
      <trkpt lat="44.45853" lon="6.51578">
        <ele>2894.19</ele>
        <time>2020-09-09T10:19:41Z</time>
      </trkpt>
      <trkpt lat="44.45851" lon="6.51579">
        <ele>2894.67</ele>
        <time>2020-09-09T10:20:00Z</time>
      </trkpt>
      <trkpt lat="44.45848" lon="6.51579">
        <ele>2894.67</ele>
        <time>2020-09-09T10:20:15Z</time>
      </trkpt>
      <trkpt lat="44.45849" lon="6.51577">
        <ele>2894.67</ele>
        <time>2020-09-09T10:20:28Z</time>
      </trkpt>
      <trkpt lat="44.45848" lon="6.51577">
        <ele>2894.67</ele>
        <time>2020-09-09T10:20:59Z</time>
      </trkpt>
      <trkpt lat="44.45851" lon="6.51576">
        <ele>2894.67</ele>
        <time>2020-09-09T10:21:27Z</time>
      </trkpt>
      <trkpt lat="44.45848" lon="6.51575">
        <ele>2893.71</ele>
        <time>2020-09-09T10:21:54Z</time>
      </trkpt>
      <trkpt lat="44.4585" lon="6.51575">
        <ele>2893.71</ele>
        <time>2020-09-09T10:22:20Z</time>
      </trkpt>
      <trkpt lat="44.45848" lon="6.51578">
        <ele>2894.67</ele>
        <time>2020-09-09T10:22:38Z</time>
      </trkpt>
      <trkpt lat="44.45849" lon="6.51577">
        <ele>2895.15</ele>
        <time>2020-09-09T10:22:58Z</time>
      </trkpt>
      <trkpt lat="44.45849" lon="6.51577">
        <ele>2895.15</ele>
        <time>2020-09-09T10:23:25Z</time>
      </trkpt>
      <trkpt lat="44.45844" lon="6.51578">
        <ele>2893.71</ele>
        <time>2020-09-09T10:23:41Z</time>
      </trkpt>
      <trkpt lat="44.4584" lon="6.51577">
        <ele>2891.3</ele>
        <time>2020-09-09T10:23:55Z</time>
      </trkpt>
      <trkpt lat="44.45838" lon="6.51578">
        <ele>2889.38</ele>
        <time>2020-09-09T10:24:09Z</time>
      </trkpt>
      <trkpt lat="44.45836" lon="6.51579">
        <ele>2888.9</ele>
        <time>2020-09-09T10:24:27Z</time>
      </trkpt>
      <trkpt lat="44.45835" lon="6.51579">
        <ele>2886.02</ele>
        <time>2020-09-09T10:24:39Z</time>
      </trkpt>
      <trkpt lat="44.45831" lon="6.51578">
        <ele>2884.09</ele>
        <time>2020-09-09T10:24:59Z</time>
      </trkpt>
      <trkpt lat="44.45828" lon="6.51575">
        <ele>2883.13</ele>
        <time>2020-09-09T10:25:15Z</time>
      </trkpt>
      <trkpt lat="44.45826" lon="6.51574">
        <ele>2882.17</ele>
        <time>2020-09-09T10:25:28Z</time>
      </trkpt>
      <trkpt lat="44.45823" lon="6.51575">
        <ele>2881.21</ele>
        <time>2020-09-09T10:25:45Z</time>
      </trkpt>
      <trkpt lat="44.45819" lon="6.51574">
        <ele>2877.84</ele>
        <time>2020-09-09T10:25:55Z</time>
      </trkpt>
      <trkpt lat="44.45817" lon="6.51575">
        <ele>2873.52</ele>
        <time>2020-09-09T10:26:08Z</time>
      </trkpt>
      <trkpt lat="44.45817" lon="6.51576">
        <ele>2876.4</ele>
        <time>2020-09-09T10:26:13Z</time>
      </trkpt>
      <trkpt lat="44.45817" lon="6.51577">
        <ele>2871.11</ele>
        <time>2020-09-09T10:26:21Z</time>
      </trkpt>
      <trkpt lat="44.45817" lon="6.51577">
        <ele>2876.4</ele>
        <time>2020-09-09T10:26:22Z</time>
      </trkpt>
      <trkpt lat="44.45815" lon="6.51578">
        <ele>2873.52</ele>
        <time>2020-09-09T10:26:27Z</time>
      </trkpt>
      <trkpt lat="44.45814" lon="6.51576">
        <ele>2873.04</ele>
        <time>2020-09-09T10:26:43Z</time>
      </trkpt>
      <trkpt lat="44.45809" lon="6.51575">
        <ele>2870.15</ele>
        <time>2020-09-09T10:26:57Z</time>
      </trkpt>
      <trkpt lat="44.45802" lon="6.51573">
        <ele>2869.19</ele>
        <time>2020-09-09T10:27:12Z</time>
      </trkpt>
      <trkpt lat="44.45801" lon="6.51573">
        <ele>2868.71</ele>
        <time>2020-09-09T10:27:13Z</time>
      </trkpt>
      <trkpt lat="44.45793" lon="6.51571">
        <ele>2867.75</ele>
        <time>2020-09-09T10:27:26Z</time>
      </trkpt>
      <trkpt lat="44.45789" lon="6.51572">
        <ele>2865.83</ele>
        <time>2020-09-09T10:27:39Z</time>
      </trkpt>
      <trkpt lat="44.45785" lon="6.51571">
        <ele>2863.42</ele>
        <time>2020-09-09T10:27:50Z</time>
      </trkpt>
      <trkpt lat="44.45785" lon="6.5157">
        <ele>2863.42</ele>
        <time>2020-09-09T10:28:03Z</time>
      </trkpt>
      <trkpt lat="44.45781" lon="6.51571">
        <ele>2862.94</ele>
        <time>2020-09-09T10:28:16Z</time>
      </trkpt>
      <trkpt lat="44.45779" lon="6.51571">
        <ele>2861.98</ele>
        <time>2020-09-09T10:28:31Z</time>
      </trkpt>
      <trkpt lat="44.45776" lon="6.51572">
        <ele>2860.06</ele>
        <time>2020-09-09T10:28:45Z</time>
      </trkpt>
      <trkpt lat="44.45779" lon="6.51574">
        <ele>2859.1</ele>
        <time>2020-09-09T10:28:59Z</time>
      </trkpt>
      <trkpt lat="44.45778" lon="6.51577">
        <ele>2857.18</ele>
        <time>2020-09-09T10:29:15Z</time>
      </trkpt>
      <trkpt lat="44.45774" lon="6.51578">
        <ele>2856.21</ele>
        <time>2020-09-09T10:29:28Z</time>
      </trkpt>
      <trkpt lat="44.4577" lon="6.51576">
        <ele>2855.73</ele>
        <time>2020-09-09T10:29:40Z</time>
      </trkpt>
      <trkpt lat="44.45765" lon="6.51575">
        <ele>2855.25</ele>
        <time>2020-09-09T10:29:53Z</time>
      </trkpt>
      <trkpt lat="44.45762" lon="6.51574">
        <ele>2854.29</ele>
        <time>2020-09-09T10:30:07Z</time>
      </trkpt>
      <trkpt lat="44.45761" lon="6.51576">
        <ele>2854.29</ele>
        <time>2020-09-09T10:30:27Z</time>
      </trkpt>
      <trkpt lat="44.45754" lon="6.51576">
        <ele>2853.81</ele>
        <time>2020-09-09T10:30:40Z</time>
      </trkpt>
      <trkpt lat="44.45748" lon="6.5157">
        <ele>2855.25</ele>
        <time>2020-09-09T10:30:54Z</time>
      </trkpt>
      <trkpt lat="44.45742" lon="6.51566">
        <ele>2853.81</ele>
        <time>2020-09-09T10:31:06Z</time>
      </trkpt>
      <trkpt lat="44.45741" lon="6.51564">
        <ele>2853.81</ele>
        <time>2020-09-09T10:31:26Z</time>
      </trkpt>
      <trkpt lat="44.45738" lon="6.51561">
        <ele>2855.25</ele>
        <time>2020-09-09T10:31:37Z</time>
      </trkpt>
      <trkpt lat="44.45731" lon="6.51555">
        <ele>2856.21</ele>
        <time>2020-09-09T10:31:54Z</time>
      </trkpt>
      <trkpt lat="44.45727" lon="6.51552">
        <ele>2856.69</ele>
        <time>2020-09-09T10:32:07Z</time>
      </trkpt>
      <trkpt lat="44.45725" lon="6.5155">
        <ele>2856.69</ele>
        <time>2020-09-09T10:32:19Z</time>
      </trkpt>
      <trkpt lat="44.45725" lon="6.5155">
        <ele>2855.73</ele>
        <time>2020-09-09T10:32:32Z</time>
      </trkpt>
      <trkpt lat="44.45724" lon="6.51549">
        <ele>2854.77</ele>
        <time>2020-09-09T10:32:39Z</time>
      </trkpt>
      <trkpt lat="44.45718" lon="6.51547">
        <ele>2854.29</ele>
        <time>2020-09-09T10:32:50Z</time>
      </trkpt>
      <trkpt lat="44.45712" lon="6.51547">
        <ele>2852.85</ele>
        <time>2020-09-09T10:33:03Z</time>
      </trkpt>
      <trkpt lat="44.45703" lon="6.51542">
        <ele>2852.37</ele>
        <time>2020-09-09T10:33:18Z</time>
      </trkpt>
      <trkpt lat="44.45696" lon="6.5154">
        <ele>2850.93</ele>
        <time>2020-09-09T10:33:33Z</time>
      </trkpt>
      <trkpt lat="44.45693" lon="6.51537">
        <ele>2849.97</ele>
        <time>2020-09-09T10:33:48Z</time>
      </trkpt>
      <trkpt lat="44.4569" lon="6.51537">
        <ele>2847.56</ele>
        <time>2020-09-09T10:34:03Z</time>
      </trkpt>
      <trkpt lat="44.45684" lon="6.51536">
        <ele>2845.64</ele>
        <time>2020-09-09T10:34:17Z</time>
      </trkpt>
      <trkpt lat="44.4568" lon="6.51536">
        <ele>2843.72</ele>
        <time>2020-09-09T10:34:28Z</time>
      </trkpt>
      <trkpt lat="44.45673" lon="6.51532">
        <ele>2843.72</ele>
        <time>2020-09-09T10:34:40Z</time>
      </trkpt>
      <trkpt lat="44.45669" lon="6.51528">
        <ele>2843.24</ele>
        <time>2020-09-09T10:34:55Z</time>
      </trkpt>
      <trkpt lat="44.45664" lon="6.51527">
        <ele>2842.76</ele>
        <time>2020-09-09T10:35:06Z</time>
      </trkpt>
      <trkpt lat="44.45662" lon="6.51523">
        <ele>2843.24</ele>
        <time>2020-09-09T10:35:17Z</time>
      </trkpt>
      <trkpt lat="44.45663" lon="6.51525">
        <ele>2842.28</ele>
        <time>2020-09-09T10:35:24Z</time>
      </trkpt>
      <trkpt lat="44.45663" lon="6.51524">
        <ele>2842.28</ele>
        <time>2020-09-09T10:35:43Z</time>
      </trkpt>
      <trkpt lat="44.45663" lon="6.51527">
        <ele>2842.28</ele>
        <time>2020-09-09T10:36:07Z</time>
      </trkpt>
      <trkpt lat="44.45659" lon="6.51528">
        <ele>2839.87</ele>
        <time>2020-09-09T10:36:21Z</time>
      </trkpt>
      <trkpt lat="44.45655" lon="6.51525">
        <ele>2838.43</ele>
        <time>2020-09-09T10:36:29Z</time>
      </trkpt>
      <trkpt lat="44.45647" lon="6.51522">
        <ele>2837.95</ele>
        <time>2020-09-09T10:36:42Z</time>
      </trkpt>
      <trkpt lat="44.4564" lon="6.51519">
        <ele>2836.51</ele>
        <time>2020-09-09T10:36:56Z</time>
      </trkpt>
      <trkpt lat="44.45634" lon="6.51518">
        <ele>2834.1</ele>
        <time>2020-09-09T10:37:08Z</time>
      </trkpt>
      <trkpt lat="44.45634" lon="6.51517">
        <ele>2835.55</ele>
        <time>2020-09-09T10:37:13Z</time>
      </trkpt>
      <trkpt lat="44.45632" lon="6.51517">
        <ele>2834.58</ele>
        <time>2020-09-09T10:37:28Z</time>
      </trkpt>
      <trkpt lat="44.45632" lon="6.51517">
        <ele>2829.78</ele>
        <time>2020-09-09T10:37:30Z</time>
      </trkpt>
      <trkpt lat="44.45632" lon="6.51517">
        <ele>2837.47</ele>
        <time>2020-09-09T10:37:31Z</time>
      </trkpt>
      <trkpt lat="44.45632" lon="6.51517">
        <ele>2833.62</ele>
        <time>2020-09-09T10:37:32Z</time>
      </trkpt>
      <trkpt lat="44.45632" lon="6.51517">
        <ele>2832.18</ele>
        <time>2020-09-09T10:37:34Z</time>
      </trkpt>
      <trkpt lat="44.45632" lon="6.51517">
        <ele>2836.03</ele>
        <time>2020-09-09T10:37:35Z</time>
      </trkpt>
      <trkpt lat="44.45632" lon="6.51517">
        <ele>2833.14</ele>
        <time>2020-09-09T10:37:36Z</time>
      </trkpt>
      <trkpt lat="44.45624" lon="6.51513">
        <ele>2831.22</ele>
        <time>2020-09-09T10:37:48Z</time>
      </trkpt>
      <trkpt lat="44.45619" lon="6.5151">
        <ele>2829.78</ele>
        <time>2020-09-09T10:38:00Z</time>
      </trkpt>
      <trkpt lat="44.45618" lon="6.5151">
        <ele>2828.34</ele>
        <time>2020-09-09T10:38:16Z</time>
      </trkpt>
      <trkpt lat="44.45617" lon="6.51511">
        <ele>2829.78</ele>
        <time>2020-09-09T10:38:29Z</time>
      </trkpt>
      <trkpt lat="44.45617" lon="6.51511">
        <ele>2828.34</ele>
        <time>2020-09-09T10:38:42Z</time>
      </trkpt>
      <trkpt lat="44.45615" lon="6.51512">
        <ele>2826.41</ele>
        <time>2020-09-09T10:38:54Z</time>
      </trkpt>
      <trkpt lat="44.45615" lon="6.51512">
        <ele>2824.97</ele>
        <time>2020-09-09T10:38:57Z</time>
      </trkpt>
      <trkpt lat="44.45611" lon="6.51511">
        <ele>2824.49</ele>
        <time>2020-09-09T10:39:12Z</time>
      </trkpt>
      <trkpt lat="44.45611" lon="6.51512">
        <ele>2822.09</ele>
        <time>2020-09-09T10:39:23Z</time>
      </trkpt>
      <trkpt lat="44.45607" lon="6.51512">
        <ele>2819.68</ele>
        <time>2020-09-09T10:39:38Z</time>
      </trkpt>
      <trkpt lat="44.45604" lon="6.51513">
        <ele>2817.28</ele>
        <time>2020-09-09T10:39:47Z</time>
      </trkpt>
      <trkpt lat="44.45597" lon="6.5151">
        <ele>2814.88</ele>
        <time>2020-09-09T10:40:01Z</time>
      </trkpt>
      <trkpt lat="44.45593" lon="6.51509">
        <ele>2812.47</ele>
        <time>2020-09-09T10:40:10Z</time>
      </trkpt>
      <trkpt lat="44.45586" lon="6.51504">
        <ele>2813.44</ele>
        <time>2020-09-09T10:40:22Z</time>
      </trkpt>
      <trkpt lat="44.45586" lon="6.51506">
        <ele>2811.03</ele>
        <time>2020-09-09T10:40:25Z</time>
      </trkpt>
      <trkpt lat="44.4558" lon="6.51504">
        <ele>2809.11</ele>
        <time>2020-09-09T10:40:37Z</time>
      </trkpt>
      <trkpt lat="44.45575" lon="6.51502">
        <ele>2805.26</ele>
        <time>2020-09-09T10:40:48Z</time>
      </trkpt>
      <trkpt lat="44.4557" lon="6.51501">
        <ele>2803.82</ele>
        <time>2020-09-09T10:41:00Z</time>
      </trkpt>
      <trkpt lat="44.45565" lon="6.51497">
        <ele>2801.9</ele>
        <time>2020-09-09T10:41:12Z</time>
      </trkpt>
      <trkpt lat="44.45563" lon="6.51496">
        <ele>2799.5</ele>
        <time>2020-09-09T10:41:20Z</time>
      </trkpt>
      <trkpt lat="44.45559" lon="6.51495">
        <ele>2796.13</ele>
        <time>2020-09-09T10:41:35Z</time>
      </trkpt>
      <trkpt lat="44.45558" lon="6.51496">
        <ele>2795.65</ele>
        <time>2020-09-09T10:41:37Z</time>
      </trkpt>
      <trkpt lat="44.45558" lon="6.51499">
        <ele>2799.02</ele>
        <time>2020-09-09T10:41:39Z</time>
      </trkpt>
      <trkpt lat="44.45558" lon="6.51498">
        <ele>2795.65</ele>
        <time>2020-09-09T10:41:42Z</time>
      </trkpt>
      <trkpt lat="44.45558" lon="6.51497">
        <ele>2794.69</ele>
        <time>2020-09-09T10:41:44Z</time>
      </trkpt>
      <trkpt lat="44.45555" lon="6.51497">
        <ele>2793.73</ele>
        <time>2020-09-09T10:41:57Z</time>
      </trkpt>
      <trkpt lat="44.45558" lon="6.515">
        <ele>2791.81</ele>
        <time>2020-09-09T10:42:09Z</time>
      </trkpt>
      <trkpt lat="44.45555" lon="6.51501">
        <ele>2789.88</ele>
        <time>2020-09-09T10:42:20Z</time>
      </trkpt>
      <trkpt lat="44.45555" lon="6.51503">
        <ele>2787.96</ele>
        <time>2020-09-09T10:42:31Z</time>
      </trkpt>
      <trkpt lat="44.4555" lon="6.51501">
        <ele>2786.04</ele>
        <time>2020-09-09T10:42:44Z</time>
      </trkpt>
      <trkpt lat="44.45549" lon="6.51501">
        <ele>2785.08</ele>
        <time>2020-09-09T10:42:52Z</time>
      </trkpt>
      <trkpt lat="44.45547" lon="6.51501">
        <ele>2784.12</ele>
        <time>2020-09-09T10:43:05Z</time>
      </trkpt>
      <trkpt lat="44.45544" lon="6.51501">
        <ele>2780.75</ele>
        <time>2020-09-09T10:43:20Z</time>
      </trkpt>
      <trkpt lat="44.45535" lon="6.51499">
        <ele>2777.39</ele>
        <time>2020-09-09T10:43:36Z</time>
      </trkpt>
      <trkpt lat="44.45532" lon="6.515">
        <ele>2775.94</ele>
        <time>2020-09-09T10:43:49Z</time>
      </trkpt>
      <trkpt lat="44.45528" lon="6.515">
        <ele>2773.06</ele>
        <time>2020-09-09T10:44:01Z</time>
      </trkpt>
      <trkpt lat="44.45522" lon="6.51497">
        <ele>2772.1</ele>
        <time>2020-09-09T10:44:15Z</time>
      </trkpt>
      <trkpt lat="44.4552" lon="6.51496">
        <ele>2769.21</ele>
        <time>2020-09-09T10:44:22Z</time>
      </trkpt>
      <trkpt lat="44.45518" lon="6.51497">
        <ele>2767.29</ele>
        <time>2020-09-09T10:44:29Z</time>
      </trkpt>
      <trkpt lat="44.45514" lon="6.51495">
        <ele>2767.77</ele>
        <time>2020-09-09T10:44:44Z</time>
      </trkpt>
      <trkpt lat="44.45511" lon="6.51495">
        <ele>2768.25</ele>
        <time>2020-09-09T10:45:03Z</time>
      </trkpt>
      <trkpt lat="44.45511" lon="6.51496">
        <ele>2766.81</ele>
        <time>2020-09-09T10:45:05Z</time>
      </trkpt>
      <trkpt lat="44.45507" lon="6.51494">
        <ele>2764.41</ele>
        <time>2020-09-09T10:45:17Z</time>
      </trkpt>
      <trkpt lat="44.45504" lon="6.51493">
        <ele>2762.49</ele>
        <time>2020-09-09T10:45:32Z</time>
      </trkpt>
      <trkpt lat="44.45498" lon="6.51494">
        <ele>2760.08</ele>
        <time>2020-09-09T10:45:45Z</time>
      </trkpt>
      <trkpt lat="44.45496" lon="6.51492">
        <ele>2760.08</ele>
        <time>2020-09-09T10:45:56Z</time>
      </trkpt>
      <trkpt lat="44.45496" lon="6.51491">
        <ele>2759.12</ele>
        <time>2020-09-09T10:46:00Z</time>
      </trkpt>
      <trkpt lat="44.45491" lon="6.51491">
        <ele>2756.24</ele>
        <time>2020-09-09T10:46:09Z</time>
      </trkpt>
      <trkpt lat="44.45485" lon="6.5149">
        <ele>2755.28</ele>
        <time>2020-09-09T10:46:21Z</time>
      </trkpt>
      <trkpt lat="44.45482" lon="6.51489">
        <ele>2752.87</ele>
        <time>2020-09-09T10:46:33Z</time>
      </trkpt>
      <trkpt lat="44.4548" lon="6.51491">
        <ele>2751.91</ele>
        <time>2020-09-09T10:46:43Z</time>
      </trkpt>
      <trkpt lat="44.45475" lon="6.51491">
        <ele>2748.55</ele>
        <time>2020-09-09T10:46:58Z</time>
      </trkpt>
      <trkpt lat="44.4547" lon="6.5149">
        <ele>2746.62</ele>
        <time>2020-09-09T10:47:12Z</time>
      </trkpt>
      <trkpt lat="44.45466" lon="6.51485">
        <ele>2745.66</ele>
        <time>2020-09-09T10:47:26Z</time>
      </trkpt>
      <trkpt lat="44.45463" lon="6.5148">
        <ele>2744.22</ele>
        <time>2020-09-09T10:47:40Z</time>
      </trkpt>
      <trkpt lat="44.45459" lon="6.51478">
        <ele>2744.7</ele>
        <time>2020-09-09T10:47:52Z</time>
      </trkpt>
      <trkpt lat="44.4546" lon="6.51477">
        <ele>2742.78</ele>
        <time>2020-09-09T10:47:59Z</time>
      </trkpt>
      <trkpt lat="44.45458" lon="6.51477">
        <ele>2741.34</ele>
        <time>2020-09-09T10:48:06Z</time>
      </trkpt>
      <trkpt lat="44.45459" lon="6.51478">
        <ele>2740.38</ele>
        <time>2020-09-09T10:48:20Z</time>
      </trkpt>
      <trkpt lat="44.45458" lon="6.51479">
        <ele>2738.45</ele>
        <time>2020-09-09T10:48:32Z</time>
      </trkpt>
      <trkpt lat="44.45455" lon="6.51474">
        <ele>2737.49</ele>
        <time>2020-09-09T10:48:45Z</time>
      </trkpt>
      <trkpt lat="44.45452" lon="6.5147">
        <ele>2737.01</ele>
        <time>2020-09-09T10:48:58Z</time>
      </trkpt>
      <trkpt lat="44.4545" lon="6.51468">
        <ele>2734.61</ele>
        <time>2020-09-09T10:49:11Z</time>
      </trkpt>
      <trkpt lat="44.45449" lon="6.51468">
        <ele>2733.17</ele>
        <time>2020-09-09T10:49:22Z</time>
      </trkpt>
      <trkpt lat="44.45447" lon="6.51469">
        <ele>2731.72</ele>
        <time>2020-09-09T10:49:34Z</time>
      </trkpt>
      <trkpt lat="44.45444" lon="6.51466">
        <ele>2728.84</ele>
        <time>2020-09-09T10:49:46Z</time>
      </trkpt>
      <trkpt lat="44.4544" lon="6.51467">
        <ele>2726.92</ele>
        <time>2020-09-09T10:50:04Z</time>
      </trkpt>
      <trkpt lat="44.45438" lon="6.51465">
        <ele>2725.96</ele>
        <time>2020-09-09T10:50:15Z</time>
      </trkpt>
      <trkpt lat="44.45431" lon="6.51462">
        <ele>2722.59</ele>
        <time>2020-09-09T10:50:29Z</time>
      </trkpt>
      <trkpt lat="44.45427" lon="6.5146">
        <ele>2723.07</ele>
        <time>2020-09-09T10:50:44Z</time>
      </trkpt>
      <trkpt lat="44.45429" lon="6.5146">
        <ele>2722.59</ele>
        <time>2020-09-09T10:50:56Z</time>
      </trkpt>
      <trkpt lat="44.45429" lon="6.5146">
        <ele>2721.15</ele>
        <time>2020-09-09T10:51:00Z</time>
      </trkpt>
      <trkpt lat="44.45429" lon="6.5146">
        <ele>2722.59</ele>
        <time>2020-09-09T10:51:03Z</time>
      </trkpt>
      <trkpt lat="44.45429" lon="6.5146">
        <ele>2721.15</ele>
        <time>2020-09-09T10:51:08Z</time>
      </trkpt>
      <trkpt lat="44.4543" lon="6.51459">
        <ele>2722.59</ele>
        <time>2020-09-09T10:51:18Z</time>
      </trkpt>
      <trkpt lat="44.4543" lon="6.51458">
        <ele>2721.15</ele>
        <time>2020-09-09T10:51:38Z</time>
      </trkpt>
      <trkpt lat="44.4543" lon="6.51458">
        <ele>2722.59</ele>
        <time>2020-09-09T10:51:44Z</time>
      </trkpt>
      <trkpt lat="44.45429" lon="6.51459">
        <ele>2721.15</ele>
        <time>2020-09-09T10:52:02Z</time>
      </trkpt>
      <trkpt lat="44.4543" lon="6.51459">
        <ele>2722.59</ele>
        <time>2020-09-09T10:52:08Z</time>
      </trkpt>
      <trkpt lat="44.4543" lon="6.51461">
        <ele>2722.59</ele>
        <time>2020-09-09T10:52:30Z</time>
      </trkpt>
      <trkpt lat="44.4543" lon="6.51459">
        <ele>2720.67</ele>
        <time>2020-09-09T10:52:53Z</time>
      </trkpt>
      <trkpt lat="44.4543" lon="6.51459">
        <ele>2722.11</ele>
        <time>2020-09-09T10:52:59Z</time>
      </trkpt>
      <trkpt lat="44.4543" lon="6.51459">
        <ele>2722.11</ele>
        <time>2020-09-09T10:53:15Z</time>
      </trkpt>
      <trkpt lat="44.45427" lon="6.51458">
        <ele>2720.67</ele>
        <time>2020-09-09T10:53:23Z</time>
      </trkpt>
      <trkpt lat="44.45423" lon="6.51457">
        <ele>2721.63</ele>
        <time>2020-09-09T10:53:36Z</time>
      </trkpt>
      <trkpt lat="44.45419" lon="6.51456">
        <ele>2720.19</ele>
        <time>2020-09-09T10:53:50Z</time>
      </trkpt>
      <trkpt lat="44.45419" lon="6.51455">
        <ele>2719.23</ele>
        <time>2020-09-09T10:54:06Z</time>
      </trkpt>
      <trkpt lat="44.45422" lon="6.51454">
        <ele>2719.23</ele>
        <time>2020-09-09T10:54:26Z</time>
      </trkpt>
      <trkpt lat="44.45418" lon="6.51454">
        <ele>2720.67</ele>
        <time>2020-09-09T10:54:41Z</time>
      </trkpt>
      <trkpt lat="44.45415" lon="6.51455">
        <ele>2717.78</ele>
        <time>2020-09-09T10:54:55Z</time>
      </trkpt>
      <trkpt lat="44.45413" lon="6.51455">
        <ele>2716.82</ele>
        <time>2020-09-09T10:55:06Z</time>
      </trkpt>
      <trkpt lat="44.4541" lon="6.51452">
        <ele>2714.9</ele>
        <time>2020-09-09T10:55:19Z</time>
      </trkpt>
      <trkpt lat="44.45408" lon="6.51451">
        <ele>2712.98</ele>
        <time>2020-09-09T10:55:30Z</time>
      </trkpt>
      <trkpt lat="44.45407" lon="6.51452">
        <ele>2712.5</ele>
        <time>2020-09-09T10:55:51Z</time>
      </trkpt>
      <trkpt lat="44.45407" lon="6.51452">
        <ele>2709.61</ele>
        <time>2020-09-09T10:56:07Z</time>
      </trkpt>
      <trkpt lat="44.45406" lon="6.51453">
        <ele>2708.17</ele>
        <time>2020-09-09T10:56:20Z</time>
      </trkpt>
      <trkpt lat="44.45404" lon="6.51452">
        <ele>2706.25</ele>
        <time>2020-09-09T10:56:33Z</time>
      </trkpt>
      <trkpt lat="44.454" lon="6.51451">
        <ele>2704.81</ele>
        <time>2020-09-09T10:56:48Z</time>
      </trkpt>
      <trkpt lat="44.45398" lon="6.51448">
        <ele>2701.92</ele>
        <time>2020-09-09T10:57:03Z</time>
      </trkpt>
      <trkpt lat="44.45395" lon="6.51447">
        <ele>2700</ele>
        <time>2020-09-09T10:57:24Z</time>
      </trkpt>
      <trkpt lat="44.45391" lon="6.51445">
        <ele>2698.56</ele>
        <time>2020-09-09T10:57:37Z</time>
      </trkpt>
      <trkpt lat="44.45388" lon="6.51443">
        <ele>2696.64</ele>
        <time>2020-09-09T10:57:53Z</time>
      </trkpt>
      <trkpt lat="44.45388" lon="6.51442">
        <ele>2696.64</ele>
        <time>2020-09-09T10:58:12Z</time>
      </trkpt>
      <trkpt lat="44.45387" lon="6.51442">
        <ele>2695.19</ele>
        <time>2020-09-09T10:58:33Z</time>
      </trkpt>
      <trkpt lat="44.45384" lon="6.51439">
        <ele>2693.27</ele>
        <time>2020-09-09T10:58:49Z</time>
      </trkpt>
      <trkpt lat="44.45383" lon="6.51439">
        <ele>2693.27</ele>
        <time>2020-09-09T10:58:51Z</time>
      </trkpt>
      <trkpt lat="44.4538" lon="6.51437">
        <ele>2693.27</ele>
        <time>2020-09-09T10:58:57Z</time>
      </trkpt>
      <trkpt lat="44.45375" lon="6.51434">
        <ele>2689.91</ele>
        <time>2020-09-09T10:59:08Z</time>
      </trkpt>
      <trkpt lat="44.45373" lon="6.51434">
        <ele>2689.91</ele>
        <time>2020-09-09T10:59:21Z</time>
      </trkpt>
      <trkpt lat="44.45376" lon="6.51439">
        <ele>2688.46</ele>
        <time>2020-09-09T10:59:35Z</time>
      </trkpt>
      <trkpt lat="44.4537" lon="6.51436">
        <ele>2685.58</ele>
        <time>2020-09-09T10:59:50Z</time>
      </trkpt>
      <trkpt lat="44.45366" lon="6.51434">
        <ele>2684.62</ele>
        <time>2020-09-09T10:59:55Z</time>
      </trkpt>
      <trkpt lat="44.45362" lon="6.51431">
        <ele>2684.62</ele>
        <time>2020-09-09T11:00:05Z</time>
      </trkpt>
      <trkpt lat="44.45358" lon="6.51424">
        <ele>2685.1</ele>
        <time>2020-09-09T11:00:15Z</time>
      </trkpt>
      <trkpt lat="44.45357" lon="6.51418">
        <ele>2687.5</ele>
        <time>2020-09-09T11:00:28Z</time>
      </trkpt>
      <trkpt lat="44.45357" lon="6.51417">
        <ele>2687.98</ele>
        <time>2020-09-09T11:00:46Z</time>
      </trkpt>
      <trkpt lat="44.45358" lon="6.51418">
        <ele>2688.94</ele>
        <time>2020-09-09T11:01:07Z</time>
      </trkpt>
      <trkpt lat="44.45359" lon="6.51419">
        <ele>2687.98</ele>
        <time>2020-09-09T11:01:27Z</time>
      </trkpt>
      <trkpt lat="44.45357" lon="6.51417">
        <ele>2689.43</ele>
        <time>2020-09-09T11:01:48Z</time>
      </trkpt>
      <trkpt lat="44.45356" lon="6.51419">
        <ele>2687.5</ele>
        <time>2020-09-09T11:02:05Z</time>
      </trkpt>
      <trkpt lat="44.45356" lon="6.51418">
        <ele>2688.94</ele>
        <time>2020-09-09T11:02:10Z</time>
      </trkpt>
      <trkpt lat="44.45356" lon="6.51418">
        <ele>2687.98</ele>
        <time>2020-09-09T11:02:22Z</time>
      </trkpt>
      <trkpt lat="44.45358" lon="6.51419">
        <ele>2687.98</ele>
        <time>2020-09-09T11:02:35Z</time>
      </trkpt>
      <trkpt lat="44.45358" lon="6.51418">
        <ele>2687.02</ele>
        <time>2020-09-09T11:02:56Z</time>
      </trkpt>
      <trkpt lat="44.45358" lon="6.51418">
        <ele>2688.46</ele>
        <time>2020-09-09T11:03:00Z</time>
      </trkpt>
      <trkpt lat="44.45357" lon="6.51419">
        <ele>2687.5</ele>
        <time>2020-09-09T11:03:19Z</time>
      </trkpt>
      <trkpt lat="44.45359" lon="6.51418">
        <ele>2687.02</ele>
        <time>2020-09-09T11:03:44Z</time>
      </trkpt>
      <trkpt lat="44.45357" lon="6.51418">
        <ele>2686.54</ele>
        <time>2020-09-09T11:04:09Z</time>
      </trkpt>
      <trkpt lat="44.45353" lon="6.51415">
        <ele>2686.54</ele>
        <time>2020-09-09T11:04:27Z</time>
      </trkpt>
      <trkpt lat="44.45353" lon="6.51414">
        <ele>2687.5</ele>
        <time>2020-09-09T11:04:49Z</time>
      </trkpt>
      <trkpt lat="44.4535" lon="6.51413">
        <ele>2686.06</ele>
        <time>2020-09-09T11:05:07Z</time>
      </trkpt>
      <trkpt lat="44.4535" lon="6.51412">
        <ele>2686.06</ele>
        <time>2020-09-09T11:05:28Z</time>
      </trkpt>
      <trkpt lat="44.4535" lon="6.51411">
        <ele>2685.58</ele>
        <time>2020-09-09T11:05:48Z</time>
      </trkpt>
      <trkpt lat="44.4535" lon="6.51408">
        <ele>2686.06</ele>
        <time>2020-09-09T11:06:05Z</time>
      </trkpt>
      <trkpt lat="44.4535" lon="6.51407">
        <ele>2684.62</ele>
        <time>2020-09-09T11:06:08Z</time>
      </trkpt>
      <trkpt lat="44.45346" lon="6.51402">
        <ele>2683.66</ele>
        <time>2020-09-09T11:06:15Z</time>
      </trkpt>
      <trkpt lat="44.45339" lon="6.51394">
        <ele>2683.18</ele>
        <time>2020-09-09T11:06:31Z</time>
      </trkpt>
      <trkpt lat="44.45334" lon="6.51391">
        <ele>2682.22</ele>
        <time>2020-09-09T11:06:55Z</time>
      </trkpt>
      <trkpt lat="44.45333" lon="6.51392">
        <ele>2683.18</ele>
        <time>2020-09-09T11:07:22Z</time>
      </trkpt>
      <trkpt lat="44.45331" lon="6.51392">
        <ele>2681.25</ele>
        <time>2020-09-09T11:07:39Z</time>
      </trkpt>
      <trkpt lat="44.45331" lon="6.51392">
        <ele>2682.7</ele>
        <time>2020-09-09T11:07:41Z</time>
      </trkpt>
      <trkpt lat="44.45331" lon="6.5139">
        <ele>2682.7</ele>
        <time>2020-09-09T11:08:02Z</time>
      </trkpt>
      <trkpt lat="44.45331" lon="6.51389">
        <ele>2683.18</ele>
        <time>2020-09-09T11:08:23Z</time>
      </trkpt>
      <trkpt lat="44.45331" lon="6.51387">
        <ele>2683.18</ele>
        <time>2020-09-09T11:08:52Z</time>
      </trkpt>
      <trkpt lat="44.45331" lon="6.51386">
        <ele>2683.18</ele>
        <time>2020-09-09T11:09:15Z</time>
      </trkpt>
      <trkpt lat="44.45329" lon="6.51387">
        <ele>2681.73</ele>
        <time>2020-09-09T11:09:37Z</time>
      </trkpt>
      <trkpt lat="44.4533" lon="6.51384">
        <ele>2682.22</ele>
        <time>2020-09-09T11:09:58Z</time>
      </trkpt>
      <trkpt lat="44.45329" lon="6.51385">
        <ele>2683.18</ele>
        <time>2020-09-09T11:10:21Z</time>
      </trkpt>
      <trkpt lat="44.45332" lon="6.51388">
        <ele>2683.18</ele>
        <time>2020-09-09T11:10:48Z</time>
      </trkpt>
      <trkpt lat="44.45331" lon="6.51389">
        <ele>2683.66</ele>
        <time>2020-09-09T11:11:16Z</time>
      </trkpt>
      <trkpt lat="44.4533" lon="6.5139">
        <ele>2683.66</ele>
        <time>2020-09-09T11:11:38Z</time>
      </trkpt>
      <trkpt lat="44.45332" lon="6.51391">
        <ele>2682.7</ele>
        <time>2020-09-09T11:11:45Z</time>
      </trkpt>
      <trkpt lat="44.45333" lon="6.51392">
        <ele>2683.18</ele>
        <time>2020-09-09T11:12:04Z</time>
      </trkpt>
      <trkpt lat="44.45333" lon="6.51393">
        <ele>2683.18</ele>
        <time>2020-09-09T11:12:05Z</time>
      </trkpt>
      <trkpt lat="44.45341" lon="6.51405">
        <ele>2679.81</ele>
        <time>2020-09-09T11:12:23Z</time>
      </trkpt>
      <trkpt lat="44.45343" lon="6.5141">
        <ele>2677.89</ele>
        <time>2020-09-09T11:12:31Z</time>
      </trkpt>
      <trkpt lat="44.45339" lon="6.51413">
        <ele>2674.52</ele>
        <time>2020-09-09T11:12:50Z</time>
      </trkpt>
      <trkpt lat="44.4534" lon="6.51416">
        <ele>2671.16</ele>
        <time>2020-09-09T11:13:04Z</time>
      </trkpt>
      <trkpt lat="44.4534" lon="6.51418">
        <ele>2670.68</ele>
        <time>2020-09-09T11:13:06Z</time>
      </trkpt>
      <trkpt lat="44.45334" lon="6.51418">
        <ele>2668.28</ele>
        <time>2020-09-09T11:13:21Z</time>
      </trkpt>
      <trkpt lat="44.45327" lon="6.51415">
        <ele>2664.91</ele>
        <time>2020-09-09T11:13:33Z</time>
      </trkpt>
      <trkpt lat="44.45323" lon="6.51416">
        <ele>2662.03</ele>
        <time>2020-09-09T11:13:43Z</time>
      </trkpt>
      <trkpt lat="44.45324" lon="6.51416">
        <ele>2659.62</ele>
        <time>2020-09-09T11:13:57Z</time>
      </trkpt>
      <trkpt lat="44.45317" lon="6.51417">
        <ele>2656.74</ele>
        <time>2020-09-09T11:14:16Z</time>
      </trkpt>
      <trkpt lat="44.45311" lon="6.51414">
        <ele>2653.38</ele>
        <time>2020-09-09T11:14:31Z</time>
      </trkpt>
      <trkpt lat="44.4531" lon="6.51413">
        <ele>2651.93</ele>
        <time>2020-09-09T11:14:36Z</time>
      </trkpt>
      <trkpt lat="44.45311" lon="6.51423">
        <ele>2648.57</ele>
        <time>2020-09-09T11:14:52Z</time>
      </trkpt>
      <trkpt lat="44.4531" lon="6.51431">
        <ele>2646.17</ele>
        <time>2020-09-09T11:15:08Z</time>
      </trkpt>
      <trkpt lat="44.45308" lon="6.51437">
        <ele>2643.76</ele>
        <time>2020-09-09T11:15:24Z</time>
      </trkpt>
      <trkpt lat="44.4531" lon="6.51442">
        <ele>2640.4</ele>
        <time>2020-09-09T11:15:36Z</time>
      </trkpt>
      <trkpt lat="44.45309" lon="6.51448">
        <ele>2637.03</ele>
        <time>2020-09-09T11:15:53Z</time>
      </trkpt>
      <trkpt lat="44.45306" lon="6.51456">
        <ele>2634.15</ele>
        <time>2020-09-09T11:16:10Z</time>
      </trkpt>
      <trkpt lat="44.45305" lon="6.51454">
        <ele>2631.27</ele>
        <time>2020-09-09T11:16:18Z</time>
      </trkpt>
      <trkpt lat="44.45296" lon="6.51452">
        <ele>2627.9</ele>
        <time>2020-09-09T11:16:32Z</time>
      </trkpt>
      <trkpt lat="44.45291" lon="6.51455">
        <ele>2624.54</ele>
        <time>2020-09-09T11:16:48Z</time>
      </trkpt>
      <trkpt lat="44.4529" lon="6.51458">
        <ele>2621.65</ele>
        <time>2020-09-09T11:17:01Z</time>
      </trkpt>
      <trkpt lat="44.4529" lon="6.51469">
        <ele>2618.29</ele>
        <time>2020-09-09T11:17:15Z</time>
      </trkpt>
      <trkpt lat="44.45282" lon="6.5147">
        <ele>2614.92</ele>
        <time>2020-09-09T11:17:29Z</time>
      </trkpt>
      <trkpt lat="44.45275" lon="6.51467">
        <ele>2612.04</ele>
        <time>2020-09-09T11:17:45Z</time>
      </trkpt>
      <trkpt lat="44.45275" lon="6.51476">
        <ele>2608.67</ele>
        <time>2020-09-09T11:18:02Z</time>
      </trkpt>
      <trkpt lat="44.45267" lon="6.51472">
        <ele>2605.79</ele>
        <time>2020-09-09T11:18:15Z</time>
      </trkpt>
      <trkpt lat="44.4526" lon="6.51469">
        <ele>2602.43</ele>
        <time>2020-09-09T11:18:30Z</time>
      </trkpt>
      <trkpt lat="44.45258" lon="6.51477">
        <ele>2599.06</ele>
        <time>2020-09-09T11:18:44Z</time>
      </trkpt>
      <trkpt lat="44.45255" lon="6.51478">
        <ele>2596.18</ele>
        <time>2020-09-09T11:18:55Z</time>
      </trkpt>
      <trkpt lat="44.45255" lon="6.51479">
        <ele>2596.18</ele>
        <time>2020-09-09T11:18:56Z</time>
      </trkpt>
      <trkpt lat="44.45257" lon="6.51488">
        <ele>2593.29</ele>
        <time>2020-09-09T11:19:11Z</time>
      </trkpt>
      <trkpt lat="44.45258" lon="6.51491">
        <ele>2591.37</ele>
        <time>2020-09-09T11:19:30Z</time>
      </trkpt>
      <trkpt lat="44.45256" lon="6.51489">
        <ele>2591.37</ele>
        <time>2020-09-09T11:19:52Z</time>
      </trkpt>
      <trkpt lat="44.45252" lon="6.51492">
        <ele>2590.89</ele>
        <time>2020-09-09T11:20:20Z</time>
      </trkpt>
      <trkpt lat="44.45254" lon="6.51492">
        <ele>2590.89</ele>
        <time>2020-09-09T11:20:54Z</time>
      </trkpt>
      <trkpt lat="44.45251" lon="6.51492">
        <ele>2590.41</ele>
        <time>2020-09-09T11:21:31Z</time>
      </trkpt>
      <trkpt lat="44.45253" lon="6.51494">
        <ele>2591.37</ele>
        <time>2020-09-09T11:22:00Z</time>
      </trkpt>
      <trkpt lat="44.45255" lon="6.51493">
        <ele>2591.37</ele>
        <time>2020-09-09T11:22:13Z</time>
      </trkpt>
      <trkpt lat="44.45255" lon="6.5149">
        <ele>2592.33</ele>
        <time>2020-09-09T11:22:28Z</time>
      </trkpt>
      <trkpt lat="44.45261" lon="6.5149">
        <ele>2591.37</ele>
        <time>2020-09-09T11:22:55Z</time>
      </trkpt>
      <trkpt lat="44.45261" lon="6.51493">
        <ele>2591.37</ele>
        <time>2020-09-09T11:23:17Z</time>
      </trkpt>
      <trkpt lat="44.45261" lon="6.51501">
        <ele>2588.01</ele>
        <time>2020-09-09T11:23:35Z</time>
      </trkpt>
      <trkpt lat="44.45259" lon="6.51508">
        <ele>2584.64</ele>
        <time>2020-09-09T11:23:50Z</time>
      </trkpt>
      <trkpt lat="44.45257" lon="6.51519">
        <ele>2581.76</ele>
        <time>2020-09-09T11:24:05Z</time>
      </trkpt>
      <trkpt lat="44.4526" lon="6.51526">
        <ele>2578.87</ele>
        <time>2020-09-09T11:24:17Z</time>
      </trkpt>
      <trkpt lat="44.45263" lon="6.51534">
        <ele>2575.51</ele>
        <time>2020-09-09T11:24:31Z</time>
      </trkpt>
      <trkpt lat="44.45261" lon="6.51545">
        <ele>2572.14</ele>
        <time>2020-09-09T11:24:49Z</time>
      </trkpt>
      <trkpt lat="44.45261" lon="6.51547">
        <ele>2571.18</ele>
        <time>2020-09-09T11:25:05Z</time>
      </trkpt>
      <trkpt lat="44.45256" lon="6.51553">
        <ele>2568.78</ele>
        <time>2020-09-09T11:25:27Z</time>
      </trkpt>
      <trkpt lat="44.45259" lon="6.5156">
        <ele>2566.86</ele>
        <time>2020-09-09T11:25:41Z</time>
      </trkpt>
      <trkpt lat="44.45256" lon="6.51575">
        <ele>2564.45</ele>
        <time>2020-09-09T11:25:57Z</time>
      </trkpt>
      <trkpt lat="44.45261" lon="6.5159">
        <ele>2563.01</ele>
        <time>2020-09-09T11:26:14Z</time>
      </trkpt>
      <trkpt lat="44.4526" lon="6.51607">
        <ele>2563.01</ele>
        <time>2020-09-09T11:26:28Z</time>
      </trkpt>
      <trkpt lat="44.45262" lon="6.51612">
        <ele>2562.05</ele>
        <time>2020-09-09T11:26:44Z</time>
      </trkpt>
      <trkpt lat="44.45258" lon="6.51609">
        <ele>2562.53</ele>
        <time>2020-09-09T11:26:51Z</time>
      </trkpt>
      <trkpt lat="44.45256" lon="6.51612">
        <ele>2563.01</ele>
        <time>2020-09-09T11:27:10Z</time>
      </trkpt>
      <trkpt lat="44.45257" lon="6.51613">
        <ele>2563.01</ele>
        <time>2020-09-09T11:27:12Z</time>
      </trkpt>
      <trkpt lat="44.45256" lon="6.51614">
        <ele>2561.57</ele>
        <time>2020-09-09T12:15:25Z</time>
      </trkpt>
      <trkpt lat="44.45257" lon="6.51613">
        <ele>2561.57</ele>
        <time>2020-09-09T12:15:26Z</time>
      </trkpt>
      <trkpt lat="44.45258" lon="6.51615">
        <ele>2560.13</ele>
        <time>2020-09-09T12:15:48Z</time>
      </trkpt>
      <trkpt lat="44.45255" lon="6.51615">
        <ele>2561.09</ele>
        <time>2020-09-09T12:16:12Z</time>
      </trkpt>
      <trkpt lat="44.45256" lon="6.51616">
        <ele>2561.09</ele>
        <time>2020-09-09T12:16:37Z</time>
      </trkpt>
      <trkpt lat="44.45256" lon="6.51615">
        <ele>2561.09</ele>
        <time>2020-09-09T12:16:56Z</time>
      </trkpt>
      <trkpt lat="44.45258" lon="6.51612">
        <ele>2561.09</ele>
        <time>2020-09-09T12:17:16Z</time>
      </trkpt>
      <trkpt lat="44.45259" lon="6.51609">
        <ele>2561.09</ele>
        <time>2020-09-09T12:17:37Z</time>
      </trkpt>
      <trkpt lat="44.45257" lon="6.51613">
        <ele>2561.09</ele>
        <time>2020-09-09T12:17:59Z</time>
      </trkpt>
      <trkpt lat="44.4526" lon="6.51612">
        <ele>2561.09</ele>
        <time>2020-09-09T12:18:17Z</time>
      </trkpt>
      <trkpt lat="44.4526" lon="6.51614">
        <ele>2558.69</ele>
        <time>2020-09-09T12:18:18Z</time>
      </trkpt>
      <trkpt lat="44.4526" lon="6.51617">
        <ele>2560.13</ele>
        <time>2020-09-09T12:19:29Z</time>
      </trkpt>
      <trkpt lat="44.45261" lon="6.51612">
        <ele>2560.13</ele>
        <time>2020-09-09T12:19:30Z</time>
      </trkpt>
      <trkpt lat="44.4526" lon="6.51615">
        <ele>2559.65</ele>
        <time>2020-09-09T12:19:55Z</time>
      </trkpt>
      <trkpt lat="44.45261" lon="6.51613">
        <ele>2559.65</ele>
        <time>2020-09-09T12:20:10Z</time>
      </trkpt>
      <trkpt lat="44.45265" lon="6.51602">
        <ele>2558.69</ele>
        <time>2020-09-09T12:20:27Z</time>
      </trkpt>
      <trkpt lat="44.45273" lon="6.51594">
        <ele>2555.8</ele>
        <time>2020-09-09T12:20:43Z</time>
      </trkpt>
      <trkpt lat="44.45282" lon="6.5159">
        <ele>2552.92</ele>
        <time>2020-09-09T12:20:59Z</time>
      </trkpt>
      <trkpt lat="44.45284" lon="6.51602">
        <ele>2549.55</ele>
        <time>2020-09-09T12:21:13Z</time>
      </trkpt>
      <trkpt lat="44.45287" lon="6.51608">
        <ele>2546.67</ele>
        <time>2020-09-09T12:21:27Z</time>
      </trkpt>
      <trkpt lat="44.45294" lon="6.51614">
        <ele>2544.27</ele>
        <time>2020-09-09T12:21:41Z</time>
      </trkpt>
      <trkpt lat="44.453" lon="6.51619">
        <ele>2541.38</ele>
        <time>2020-09-09T12:21:58Z</time>
      </trkpt>
      <trkpt lat="44.45298" lon="6.51629">
        <ele>2538.5</ele>
        <time>2020-09-09T12:22:10Z</time>
      </trkpt>
      <trkpt lat="44.45299" lon="6.51639">
        <ele>2535.13</ele>
        <time>2020-09-09T12:22:26Z</time>
      </trkpt>
      <trkpt lat="44.45303" lon="6.51648">
        <ele>2532.25</ele>
        <time>2020-09-09T12:22:40Z</time>
      </trkpt>
      <trkpt lat="44.45301" lon="6.51653">
        <ele>2530.33</ele>
        <time>2020-09-09T12:22:51Z</time>
      </trkpt>
      <trkpt lat="44.453" lon="6.51662">
        <ele>2526.96</ele>
        <time>2020-09-09T12:23:04Z</time>
      </trkpt>
      <trkpt lat="44.45299" lon="6.51668">
        <ele>2525.04</ele>
        <time>2020-09-09T12:23:16Z</time>
      </trkpt>
      <trkpt lat="44.45302" lon="6.51676">
        <ele>2522.16</ele>
        <time>2020-09-09T12:23:31Z</time>
      </trkpt>
      <trkpt lat="44.45301" lon="6.51684">
        <ele>2519.27</ele>
        <time>2020-09-09T12:23:46Z</time>
      </trkpt>
      <trkpt lat="44.45302" lon="6.51691">
        <ele>2515.91</ele>
        <time>2020-09-09T12:24:02Z</time>
      </trkpt>
      <trkpt lat="44.45302" lon="6.51699">
        <ele>2512.54</ele>
        <time>2020-09-09T12:24:17Z</time>
      </trkpt>
      <trkpt lat="44.45301" lon="6.51705">
        <ele>2509.66</ele>
        <time>2020-09-09T12:24:32Z</time>
      </trkpt>
      <trkpt lat="44.45303" lon="6.51714">
        <ele>2506.77</ele>
        <time>2020-09-09T12:24:46Z</time>
      </trkpt>
      <trkpt lat="44.45304" lon="6.51718">
        <ele>2506.29</ele>
        <time>2020-09-09T12:25:07Z</time>
      </trkpt>
      <trkpt lat="44.45307" lon="6.51723">
        <ele>2505.33</ele>
        <time>2020-09-09T12:25:24Z</time>
      </trkpt>
      <trkpt lat="44.4531" lon="6.51721">
        <ele>2502.93</ele>
        <time>2020-09-09T12:25:38Z</time>
      </trkpt>
      <trkpt lat="44.45307" lon="6.51732">
        <ele>2499.57</ele>
        <time>2020-09-09T12:25:54Z</time>
      </trkpt>
      <trkpt lat="44.45309" lon="6.5174">
        <ele>2496.68</ele>
        <time>2020-09-09T12:26:12Z</time>
      </trkpt>
      <trkpt lat="44.45307" lon="6.51745">
        <ele>2493.8</ele>
        <time>2020-09-09T12:26:30Z</time>
      </trkpt>
      <trkpt lat="44.4531" lon="6.51752">
        <ele>2490.43</ele>
        <time>2020-09-09T12:26:48Z</time>
      </trkpt>
      <trkpt lat="44.45312" lon="6.51752">
        <ele>2488.99</ele>
        <time>2020-09-09T12:27:07Z</time>
      </trkpt>
      <trkpt lat="44.45312" lon="6.51757">
        <ele>2487.55</ele>
        <time>2020-09-09T12:27:32Z</time>
      </trkpt>
      <trkpt lat="44.45311" lon="6.51769">
        <ele>2484.66</ele>
        <time>2020-09-09T12:27:46Z</time>
      </trkpt>
      <trkpt lat="44.45313" lon="6.51772">
        <ele>2481.3</ele>
        <time>2020-09-09T12:28:02Z</time>
      </trkpt>
      <trkpt lat="44.45317" lon="6.51773">
        <ele>2478.9</ele>
        <time>2020-09-09T12:28:19Z</time>
      </trkpt>
      <trkpt lat="44.45314" lon="6.51784">
        <ele>2476.49</ele>
        <time>2020-09-09T12:28:36Z</time>
      </trkpt>
      <trkpt lat="44.45319" lon="6.51784">
        <ele>2476.01</ele>
        <time>2020-09-09T12:28:53Z</time>
      </trkpt>
      <trkpt lat="44.45321" lon="6.51788">
        <ele>2474.09</ele>
        <time>2020-09-09T12:29:08Z</time>
      </trkpt>
      <trkpt lat="44.45326" lon="6.51793">
        <ele>2471.21</ele>
        <time>2020-09-09T12:29:23Z</time>
      </trkpt>
      <trkpt lat="44.4533" lon="6.518">
        <ele>2468.32</ele>
        <time>2020-09-09T12:29:37Z</time>
      </trkpt>
      <trkpt lat="44.45331" lon="6.51803">
        <ele>2465.44</ele>
        <time>2020-09-09T12:29:52Z</time>
      </trkpt>
      <trkpt lat="44.45331" lon="6.5181">
        <ele>2463.04</ele>
        <time>2020-09-09T12:30:06Z</time>
      </trkpt>
      <trkpt lat="44.45332" lon="6.51813">
        <ele>2460.63</ele>
        <time>2020-09-09T12:30:20Z</time>
      </trkpt>
      <trkpt lat="44.45332" lon="6.5182">
        <ele>2457.75</ele>
        <time>2020-09-09T12:30:34Z</time>
      </trkpt>
      <trkpt lat="44.45337" lon="6.51823">
        <ele>2454.86</ele>
        <time>2020-09-09T12:30:49Z</time>
      </trkpt>
      <trkpt lat="44.45342" lon="6.51827">
        <ele>2451.5</ele>
        <time>2020-09-09T12:31:03Z</time>
      </trkpt>
      <trkpt lat="44.45345" lon="6.51827">
        <ele>2450.54</ele>
        <time>2020-09-09T12:31:18Z</time>
      </trkpt>
      <trkpt lat="44.4535" lon="6.51831">
        <ele>2447.65</ele>
        <time>2020-09-09T12:31:32Z</time>
      </trkpt>
      <trkpt lat="44.45359" lon="6.51841">
        <ele>2444.29</ele>
        <time>2020-09-09T12:31:47Z</time>
      </trkpt>
      <trkpt lat="44.45366" lon="6.51852">
        <ele>2440.92</ele>
        <time>2020-09-09T12:32:05Z</time>
      </trkpt>
      <trkpt lat="44.45359" lon="6.51857">
        <ele>2439</ele>
        <time>2020-09-09T12:32:18Z</time>
      </trkpt>
      <trkpt lat="44.45352" lon="6.51859">
        <ele>2435.64</ele>
        <time>2020-09-09T12:32:32Z</time>
      </trkpt>
      <trkpt lat="44.45358" lon="6.51871">
        <ele>2432.75</ele>
        <time>2020-09-09T12:32:50Z</time>
      </trkpt>
      <trkpt lat="44.45359" lon="6.51874">
        <ele>2432.75</ele>
        <time>2020-09-09T12:33:05Z</time>
      </trkpt>
      <trkpt lat="44.45359" lon="6.51873">
        <ele>2431.79</ele>
        <time>2020-09-09T12:33:28Z</time>
      </trkpt>
      <trkpt lat="44.45359" lon="6.51874">
        <ele>2431.79</ele>
        <time>2020-09-09T12:33:48Z</time>
      </trkpt>
      <trkpt lat="44.45361" lon="6.51874">
        <ele>2431.79</ele>
        <time>2020-09-09T12:34:10Z</time>
      </trkpt>
      <trkpt lat="44.4536" lon="6.51878">
        <ele>2431.31</ele>
        <time>2020-09-09T12:34:28Z</time>
      </trkpt>
      <trkpt lat="44.45358" lon="6.51875">
        <ele>2430.83</ele>
        <time>2020-09-09T12:34:48Z</time>
      </trkpt>
      <trkpt lat="44.45361" lon="6.51881">
        <ele>2429.39</ele>
        <time>2020-09-09T12:35:02Z</time>
      </trkpt>
      <trkpt lat="44.4536" lon="6.51889">
        <ele>2426.5</ele>
        <time>2020-09-09T12:35:18Z</time>
      </trkpt>
      <trkpt lat="44.45355" lon="6.5189">
        <ele>2423.62</ele>
        <time>2020-09-09T12:35:32Z</time>
      </trkpt>
      <trkpt lat="44.45354" lon="6.51896">
        <ele>2421.22</ele>
        <time>2020-09-09T12:35:47Z</time>
      </trkpt>
      <trkpt lat="44.45346" lon="6.51898">
        <ele>2418.81</ele>
        <time>2020-09-09T12:36:02Z</time>
      </trkpt>
      <trkpt lat="44.45349" lon="6.51907">
        <ele>2416.89</ele>
        <time>2020-09-09T12:36:15Z</time>
      </trkpt>
      <trkpt lat="44.45353" lon="6.51925">
        <ele>2414.01</ele>
        <time>2020-09-09T12:36:33Z</time>
      </trkpt>
      <trkpt lat="44.45354" lon="6.51927">
        <ele>2412.57</ele>
        <time>2020-09-09T12:36:37Z</time>
      </trkpt>
      <trkpt lat="44.45355" lon="6.5193">
        <ele>2411.6</ele>
        <time>2020-09-09T12:36:39Z</time>
      </trkpt>
      <trkpt lat="44.45351" lon="6.51929">
        <ele>2410.16</ele>
        <time>2020-09-09T12:36:53Z</time>
      </trkpt>
      <trkpt lat="44.45337" lon="6.5192">
        <ele>2408.72</ele>
        <time>2020-09-09T12:37:09Z</time>
      </trkpt>
      <trkpt lat="44.45332" lon="6.51923">
        <ele>2405.84</ele>
        <time>2020-09-09T12:37:24Z</time>
      </trkpt>
      <trkpt lat="44.45334" lon="6.51931">
        <ele>2403.43</ele>
        <time>2020-09-09T12:37:34Z</time>
      </trkpt>
      <trkpt lat="44.4534" lon="6.51953">
        <ele>2400.55</ele>
        <time>2020-09-09T12:37:56Z</time>
      </trkpt>
      <trkpt lat="44.45331" lon="6.51951">
        <ele>2397.18</ele>
        <time>2020-09-09T12:38:10Z</time>
      </trkpt>
      <trkpt lat="44.45329" lon="6.51961">
        <ele>2395.26</ele>
        <time>2020-09-09T12:38:27Z</time>
      </trkpt>
      <trkpt lat="44.45333" lon="6.51974">
        <ele>2391.9</ele>
        <time>2020-09-09T12:38:41Z</time>
      </trkpt>
      <trkpt lat="44.4534" lon="6.51982">
        <ele>2390.46</ele>
        <time>2020-09-09T12:38:55Z</time>
      </trkpt>
      <trkpt lat="44.45344" lon="6.51992">
        <ele>2387.09</ele>
        <time>2020-09-09T12:39:05Z</time>
      </trkpt>
      <trkpt lat="44.45341" lon="6.51993">
        <ele>2384.21</ele>
        <time>2020-09-09T12:39:18Z</time>
      </trkpt>
      <trkpt lat="44.45336" lon="6.52006">
        <ele>2381.8</ele>
        <time>2020-09-09T12:39:34Z</time>
      </trkpt>
      <trkpt lat="44.45332" lon="6.52017">
        <ele>2378.92</ele>
        <time>2020-09-09T12:39:50Z</time>
      </trkpt>
      <trkpt lat="44.45328" lon="6.52027">
        <ele>2375.07</ele>
        <time>2020-09-09T12:40:05Z</time>
      </trkpt>
      <trkpt lat="44.45323" lon="6.52035">
        <ele>2372.19</ele>
        <time>2020-09-09T12:40:20Z</time>
      </trkpt>
      <trkpt lat="44.45326" lon="6.52049">
        <ele>2369.79</ele>
        <time>2020-09-09T12:40:38Z</time>
      </trkpt>
      <trkpt lat="44.45328" lon="6.52056">
        <ele>2368.83</ele>
        <time>2020-09-09T12:40:51Z</time>
      </trkpt>
      <trkpt lat="44.45329" lon="6.52067">
        <ele>2366.42</ele>
        <time>2020-09-09T12:41:08Z</time>
      </trkpt>
      <trkpt lat="44.45332" lon="6.52079">
        <ele>2362.58</ele>
        <time>2020-09-09T12:41:21Z</time>
      </trkpt>
      <trkpt lat="44.45333" lon="6.5208">
        <ele>2362.58</ele>
        <time>2020-09-09T12:41:22Z</time>
      </trkpt>
      <trkpt lat="44.4534" lon="6.52089">
        <ele>2361.14</ele>
        <time>2020-09-09T12:41:38Z</time>
      </trkpt>
      <trkpt lat="44.45347" lon="6.52099">
        <ele>2359.21</ele>
        <time>2020-09-09T12:41:54Z</time>
      </trkpt>
      <trkpt lat="44.45354" lon="6.52103">
        <ele>2357.77</ele>
        <time>2020-09-09T12:42:08Z</time>
      </trkpt>
      <trkpt lat="44.45361" lon="6.52108">
        <ele>2356.81</ele>
        <time>2020-09-09T12:42:22Z</time>
      </trkpt>
      <trkpt lat="44.45367" lon="6.52109">
        <ele>2355.37</ele>
        <time>2020-09-09T12:42:35Z</time>
      </trkpt>
      <trkpt lat="44.4537" lon="6.52115">
        <ele>2353.93</ele>
        <time>2020-09-09T12:42:49Z</time>
      </trkpt>
      <trkpt lat="44.45369" lon="6.52119">
        <ele>2353.93</ele>
        <time>2020-09-09T12:42:59Z</time>
      </trkpt>
      <trkpt lat="44.45377" lon="6.52129">
        <ele>2353.93</ele>
        <time>2020-09-09T12:43:17Z</time>
      </trkpt>
      <trkpt lat="44.45386" lon="6.5214">
        <ele>2353.44</ele>
        <time>2020-09-09T12:43:33Z</time>
      </trkpt>
      <trkpt lat="44.45392" lon="6.52153">
        <ele>2353.44</ele>
        <time>2020-09-09T12:43:45Z</time>
      </trkpt>
      <trkpt lat="44.45397" lon="6.52176">
        <ele>2352</ele>
        <time>2020-09-09T12:44:03Z</time>
      </trkpt>
      <trkpt lat="44.45403" lon="6.52181">
        <ele>2352</ele>
        <time>2020-09-09T12:44:11Z</time>
      </trkpt>
      <trkpt lat="44.45408" lon="6.52185">
        <ele>2352</ele>
        <time>2020-09-09T12:44:16Z</time>
      </trkpt>
      <trkpt lat="44.45416" lon="6.52196">
        <ele>2351.52</ele>
        <time>2020-09-09T12:44:28Z</time>
      </trkpt>
      <trkpt lat="44.45425" lon="6.52201">
        <ele>2351.04</ele>
        <time>2020-09-09T12:44:42Z</time>
      </trkpt>
      <trkpt lat="44.45424" lon="6.52202">
        <ele>2352.48</ele>
        <time>2020-09-09T12:44:47Z</time>
      </trkpt>
      <trkpt lat="44.45425" lon="6.52201">
        <ele>2352.96</ele>
        <time>2020-09-09T12:44:57Z</time>
      </trkpt>
      <trkpt lat="44.45425" lon="6.52205">
        <ele>2351.52</ele>
        <time>2020-09-09T12:45:18Z</time>
      </trkpt>
      <trkpt lat="44.45429" lon="6.5222">
        <ele>2351.04</ele>
        <time>2020-09-09T12:45:34Z</time>
      </trkpt>
      <trkpt lat="44.45436" lon="6.52237">
        <ele>2350.08</ele>
        <time>2020-09-09T12:45:50Z</time>
      </trkpt>
      <trkpt lat="44.4544" lon="6.52256">
        <ele>2349.6</ele>
        <time>2020-09-09T12:46:06Z</time>
      </trkpt>
      <trkpt lat="44.45447" lon="6.52269">
        <ele>2349.12</ele>
        <time>2020-09-09T12:46:24Z</time>
      </trkpt>
      <trkpt lat="44.45455" lon="6.52281">
        <ele>2349.12</ele>
        <time>2020-09-09T12:46:38Z</time>
      </trkpt>
      <trkpt lat="44.45465" lon="6.52301">
        <ele>2347.68</ele>
        <time>2020-09-09T12:46:56Z</time>
      </trkpt>
      <trkpt lat="44.45476" lon="6.52318">
        <ele>2346.72</ele>
        <time>2020-09-09T12:47:13Z</time>
      </trkpt>
      <trkpt lat="44.45485" lon="6.52331">
        <ele>2346.72</ele>
        <time>2020-09-09T12:47:25Z</time>
      </trkpt>
      <trkpt lat="44.45505" lon="6.52339">
        <ele>2346.23</ele>
        <time>2020-09-09T12:47:46Z</time>
      </trkpt>
      <trkpt lat="44.4552" lon="6.52345">
        <ele>2347.2</ele>
        <time>2020-09-09T12:48:02Z</time>
      </trkpt>
      <trkpt lat="44.45536" lon="6.52352">
        <ele>2347.2</ele>
        <time>2020-09-09T12:48:18Z</time>
      </trkpt>
      <trkpt lat="44.45556" lon="6.52358">
        <ele>2346.23</ele>
        <time>2020-09-09T12:48:37Z</time>
      </trkpt>
      <trkpt lat="44.45569" lon="6.52363">
        <ele>2346.23</ele>
        <time>2020-09-09T12:48:55Z</time>
      </trkpt>
      <trkpt lat="44.4558" lon="6.52369">
        <ele>2342.87</ele>
        <time>2020-09-09T12:49:09Z</time>
      </trkpt>
      <trkpt lat="44.45592" lon="6.5238">
        <ele>2339.51</ele>
        <time>2020-09-09T12:49:27Z</time>
      </trkpt>
      <trkpt lat="44.456" lon="6.52396">
        <ele>2337.1</ele>
        <time>2020-09-09T12:49:45Z</time>
      </trkpt>
      <trkpt lat="44.45609" lon="6.52413">
        <ele>2334.22</ele>
        <time>2020-09-09T12:50:04Z</time>
      </trkpt>
      <trkpt lat="44.45614" lon="6.52422">
        <ele>2330.85</ele>
        <time>2020-09-09T12:50:16Z</time>
      </trkpt>
      <trkpt lat="44.4562" lon="6.52432">
        <ele>2327.49</ele>
        <time>2020-09-09T12:50:31Z</time>
      </trkpt>
      <trkpt lat="44.45632" lon="6.52439">
        <ele>2326.05</ele>
        <time>2020-09-09T12:50:46Z</time>
      </trkpt>
      <trkpt lat="44.45646" lon="6.52455">
        <ele>2324.12</ele>
        <time>2020-09-09T12:51:05Z</time>
      </trkpt>
      <trkpt lat="44.45666" lon="6.52472">
        <ele>2321.24</ele>
        <time>2020-09-09T12:51:26Z</time>
      </trkpt>
      <trkpt lat="44.45686" lon="6.52487">
        <ele>2319.8</ele>
        <time>2020-09-09T12:51:49Z</time>
      </trkpt>
      <trkpt lat="44.45701" lon="6.52507">
        <ele>2318.84</ele>
        <time>2020-09-09T12:52:10Z</time>
      </trkpt>
      <trkpt lat="44.45716" lon="6.52524">
        <ele>2317.4</ele>
        <time>2020-09-09T12:52:30Z</time>
      </trkpt>
      <trkpt lat="44.45738" lon="6.52543">
        <ele>2316.91</ele>
        <time>2020-09-09T12:52:51Z</time>
      </trkpt>
      <trkpt lat="44.45761" lon="6.52558">
        <ele>2316.91</ele>
        <time>2020-09-09T12:53:16Z</time>
      </trkpt>
      <trkpt lat="44.45774" lon="6.52568">
        <ele>2316.91</ele>
        <time>2020-09-09T12:53:36Z</time>
      </trkpt>
      <trkpt lat="44.45778" lon="6.52573">
        <ele>2318.36</ele>
        <time>2020-09-09T12:53:44Z</time>
      </trkpt>
      <trkpt lat="44.45787" lon="6.5258">
        <ele>2317.4</ele>
        <time>2020-09-09T12:54:01Z</time>
      </trkpt>
      <trkpt lat="44.45801" lon="6.52591">
        <ele>2316.43</ele>
        <time>2020-09-09T12:54:20Z</time>
      </trkpt>
      <trkpt lat="44.45809" lon="6.52595">
        <ele>2316.43</ele>
        <time>2020-09-09T12:54:29Z</time>
      </trkpt>
      <trkpt lat="44.45822" lon="6.52599">
        <ele>2317.4</ele>
        <time>2020-09-09T12:54:45Z</time>
      </trkpt>
      <trkpt lat="44.45844" lon="6.52599">
        <ele>2318.84</ele>
        <time>2020-09-09T12:55:06Z</time>
      </trkpt>
      <trkpt lat="44.45841" lon="6.52605">
        <ele>2317.4</ele>
        <time>2020-09-09T12:55:22Z</time>
      </trkpt>
      <trkpt lat="44.45837" lon="6.52607">
        <ele>2317.4</ele>
        <time>2020-09-09T12:55:47Z</time>
      </trkpt>
      <trkpt lat="44.45836" lon="6.52606">
        <ele>2318.36</ele>
        <time>2020-09-09T12:56:09Z</time>
      </trkpt>
      <trkpt lat="44.45841" lon="6.52602">
        <ele>2317.88</ele>
        <time>2020-09-09T12:56:35Z</time>
      </trkpt>
      <trkpt lat="44.45839" lon="6.52605">
        <ele>2318.36</ele>
        <time>2020-09-09T12:57:03Z</time>
      </trkpt>
      <trkpt lat="44.45838" lon="6.52606">
        <ele>2318.36</ele>
        <time>2020-09-09T12:57:22Z</time>
      </trkpt>
      <trkpt lat="44.45837" lon="6.52605">
        <ele>2317.4</ele>
        <time>2020-09-09T12:57:26Z</time>
      </trkpt>
      <trkpt lat="44.4584" lon="6.5261">
        <ele>2316.91</ele>
        <time>2020-09-09T12:57:48Z</time>
      </trkpt>
      <trkpt lat="44.45841" lon="6.52618">
        <ele>2314.51</ele>
        <time>2020-09-09T12:58:00Z</time>
      </trkpt>
      <trkpt lat="44.45844" lon="6.52628">
        <ele>2312.59</ele>
        <time>2020-09-09T12:58:14Z</time>
      </trkpt>
      <trkpt lat="44.45846" lon="6.52643">
        <ele>2309.22</ele>
        <time>2020-09-09T12:58:27Z</time>
      </trkpt>
      <trkpt lat="44.45857" lon="6.52664">
        <ele>2306.34</ele>
        <time>2020-09-09T12:58:48Z</time>
      </trkpt>
      <trkpt lat="44.45871" lon="6.5267">
        <ele>2305.38</ele>
        <time>2020-09-09T12:59:02Z</time>
      </trkpt>
      <trkpt lat="44.45891" lon="6.52679">
        <ele>2301.53</ele>
        <time>2020-09-09T12:59:23Z</time>
      </trkpt>
      <trkpt lat="44.459" lon="6.52691">
        <ele>2298.17</ele>
        <time>2020-09-09T12:59:42Z</time>
      </trkpt>
      <trkpt lat="44.45907" lon="6.52704">
        <ele>2296.25</ele>
        <time>2020-09-09T13:00:00Z</time>
      </trkpt>
      <trkpt lat="44.45915" lon="6.52711">
        <ele>2292.88</ele>
        <time>2020-09-09T13:00:19Z</time>
      </trkpt>
      <trkpt lat="44.45919" lon="6.52718">
        <ele>2291.44</ele>
        <time>2020-09-09T13:00:36Z</time>
      </trkpt>
      <trkpt lat="44.45918" lon="6.5273">
        <ele>2289.04</ele>
        <time>2020-09-09T13:00:51Z</time>
      </trkpt>
      <trkpt lat="44.45917" lon="6.52739">
        <ele>2286.63</ele>
        <time>2020-09-09T13:01:06Z</time>
      </trkpt>
      <trkpt lat="44.45918" lon="6.52734">
        <ele>2286.63</ele>
        <time>2020-09-09T13:01:36Z</time>
      </trkpt>
      <trkpt lat="44.45918" lon="6.52743">
        <ele>2286.15</ele>
        <time>2020-09-09T13:02:11Z</time>
      </trkpt>
      <trkpt lat="44.45918" lon="6.52739">
        <ele>2286.15</ele>
        <time>2020-09-09T13:02:39Z</time>
      </trkpt>
      <trkpt lat="44.45918" lon="6.52738">
        <ele>2287.11</ele>
        <time>2020-09-09T13:03:07Z</time>
      </trkpt>
      <trkpt lat="44.4592" lon="6.52744">
        <ele>2287.11</ele>
        <time>2020-09-09T13:03:33Z</time>
      </trkpt>
      <trkpt lat="44.45921" lon="6.52748">
        <ele>2285.67</ele>
        <time>2020-09-09T13:03:37Z</time>
      </trkpt>
      <trkpt lat="44.45918" lon="6.52757">
        <ele>2283.75</ele>
        <time>2020-09-09T13:03:51Z</time>
      </trkpt>
      <trkpt lat="44.45915" lon="6.52767">
        <ele>2281.35</ele>
        <time>2020-09-09T13:04:07Z</time>
      </trkpt>
      <trkpt lat="44.45914" lon="6.52776">
        <ele>2279.42</ele>
        <time>2020-09-09T13:04:23Z</time>
      </trkpt>
      <trkpt lat="44.45915" lon="6.5278">
        <ele>2277.5</ele>
        <time>2020-09-09T13:04:38Z</time>
      </trkpt>
      <trkpt lat="44.45912" lon="6.52792">
        <ele>2274.62</ele>
        <time>2020-09-09T13:04:55Z</time>
      </trkpt>
      <trkpt lat="44.45911" lon="6.52802">
        <ele>2272.21</ele>
        <time>2020-09-09T13:05:10Z</time>
      </trkpt>
      <trkpt lat="44.45909" lon="6.52802">
        <ele>2272.21</ele>
        <time>2020-09-09T13:05:34Z</time>
      </trkpt>
      <trkpt lat="44.45907" lon="6.52808">
        <ele>2269.81</ele>
        <time>2020-09-09T13:05:51Z</time>
      </trkpt>
      <trkpt lat="44.45909" lon="6.52815">
        <ele>2267.89</ele>
        <time>2020-09-09T13:06:07Z</time>
      </trkpt>
      <trkpt lat="44.45907" lon="6.52822">
        <ele>2265.96</ele>
        <time>2020-09-09T13:06:22Z</time>
      </trkpt>
      <trkpt lat="44.45903" lon="6.52829">
        <ele>2263.56</ele>
        <time>2020-09-09T13:06:37Z</time>
      </trkpt>
      <trkpt lat="44.45895" lon="6.52839">
        <ele>2260.68</ele>
        <time>2020-09-09T13:06:53Z</time>
      </trkpt>
      <trkpt lat="44.4589" lon="6.52856">
        <ele>2257.79</ele>
        <time>2020-09-09T13:07:09Z</time>
      </trkpt>
      <trkpt lat="44.45893" lon="6.52874">
        <ele>2254.91</ele>
        <time>2020-09-09T13:07:26Z</time>
      </trkpt>
      <trkpt lat="44.45892" lon="6.52893">
        <ele>2251.54</ele>
        <time>2020-09-09T13:07:46Z</time>
      </trkpt>
      <trkpt lat="44.45888" lon="6.52911">
        <ele>2250.58</ele>
        <time>2020-09-09T13:08:00Z</time>
      </trkpt>
      <trkpt lat="44.45887" lon="6.52917">
        <ele>2249.14</ele>
        <time>2020-09-09T13:08:17Z</time>
      </trkpt>
      <trkpt lat="44.45892" lon="6.52929">
        <ele>2247.22</ele>
        <time>2020-09-09T13:08:34Z</time>
      </trkpt>
      <trkpt lat="44.45892" lon="6.52929">
        <ele>2247.22</ele>
        <time>2020-09-09T13:08:36Z</time>
      </trkpt>
      <trkpt lat="44.45895" lon="6.52942">
        <ele>2246.74</ele>
        <time>2020-09-09T13:08:52Z</time>
      </trkpt>
      <trkpt lat="44.45894" lon="6.52954">
        <ele>2248.18</ele>
        <time>2020-09-09T13:09:03Z</time>
      </trkpt>
      <trkpt lat="44.45895" lon="6.52976">
        <ele>2248.66</ele>
        <time>2020-09-09T13:09:23Z</time>
      </trkpt>
      <trkpt lat="44.45896" lon="6.5298">
        <ele>2248.66</ele>
        <time>2020-09-09T13:09:43Z</time>
      </trkpt>
      <trkpt lat="44.45893" lon="6.53002">
        <ele>2249.62</ele>
        <time>2020-09-09T13:10:01Z</time>
      </trkpt>
      <trkpt lat="44.45892" lon="6.53022">
        <ele>2249.62</ele>
        <time>2020-09-09T13:10:18Z</time>
      </trkpt>
      <trkpt lat="44.45888" lon="6.5304">
        <ele>2250.1</ele>
        <time>2020-09-09T13:10:33Z</time>
      </trkpt>
      <trkpt lat="44.45887" lon="6.53044">
        <ele>2249.14</ele>
        <time>2020-09-09T13:10:36Z</time>
      </trkpt>
      <trkpt lat="44.45888" lon="6.53063">
        <ele>2247.7</ele>
        <time>2020-09-09T13:10:52Z</time>
      </trkpt>
      <trkpt lat="44.45888" lon="6.53069">
        <ele>2247.22</ele>
        <time>2020-09-09T13:10:56Z</time>
      </trkpt>
      <trkpt lat="44.45892" lon="6.53092">
        <ele>2246.26</ele>
        <time>2020-09-09T13:11:15Z</time>
      </trkpt>
      <trkpt lat="44.4589" lon="6.53106">
        <ele>2246.26</ele>
        <time>2020-09-09T13:11:30Z</time>
      </trkpt>
      <trkpt lat="44.45889" lon="6.53114">
        <ele>2246.26</ele>
        <time>2020-09-09T13:11:47Z</time>
      </trkpt>
      <trkpt lat="44.45887" lon="6.53116">
        <ele>2246.26</ele>
        <time>2020-09-09T13:12:01Z</time>
      </trkpt>
      <trkpt lat="44.45887" lon="6.53118">
        <ele>2246.26</ele>
        <time>2020-09-09T13:12:17Z</time>
      </trkpt>
      <trkpt lat="44.45886" lon="6.53121">
        <ele>2245.78</ele>
        <time>2020-09-09T13:12:38Z</time>
      </trkpt>
      <trkpt lat="44.45886" lon="6.5312">
        <ele>2245.78</ele>
        <time>2020-09-09T13:13:00Z</time>
      </trkpt>
      <trkpt lat="44.45887" lon="6.53116">
        <ele>2245.78</ele>
        <time>2020-09-09T13:13:23Z</time>
      </trkpt>
      <trkpt lat="44.45887" lon="6.53119">
        <ele>2245.78</ele>
        <time>2020-09-09T13:13:47Z</time>
      </trkpt>
      <trkpt lat="44.45885" lon="6.53119">
        <ele>2245.78</ele>
        <time>2020-09-09T13:14:09Z</time>
      </trkpt>
      <trkpt lat="44.45887" lon="6.53119">
        <ele>2245.3</ele>
        <time>2020-09-09T13:14:32Z</time>
      </trkpt>
      <trkpt lat="44.45888" lon="6.5312">
        <ele>2245.3</ele>
        <time>2020-09-09T13:15:02Z</time>
      </trkpt>
      <trkpt lat="44.45888" lon="6.53119">
        <ele>2245.3</ele>
        <time>2020-09-09T13:15:32Z</time>
      </trkpt>
      <trkpt lat="44.45889" lon="6.53118">
        <ele>2245.3</ele>
        <time>2020-09-09T13:15:50Z</time>
      </trkpt>
      <trkpt lat="44.45888" lon="6.53119">
        <ele>2245.3</ele>
        <time>2020-09-09T13:16:08Z</time>
      </trkpt>
      <trkpt lat="44.45886" lon="6.53117">
        <ele>2245.3</ele>
        <time>2020-09-09T13:16:28Z</time>
      </trkpt>
      <trkpt lat="44.45887" lon="6.53117">
        <ele>2244.82</ele>
        <time>2020-09-09T13:16:50Z</time>
      </trkpt>
      <trkpt lat="44.45886" lon="6.53117">
        <ele>2244.82</ele>
        <time>2020-09-09T13:17:15Z</time>
      </trkpt>
      <trkpt lat="44.45886" lon="6.53117">
        <ele>2244.82</ele>
        <time>2020-09-09T13:17:42Z</time>
      </trkpt>
      <trkpt lat="44.45887" lon="6.53119">
        <ele>2244.82</ele>
        <time>2020-09-09T13:18:03Z</time>
      </trkpt>
      <trkpt lat="44.4589" lon="6.53122">
        <ele>2244.82</ele>
        <time>2020-09-09T13:18:29Z</time>
      </trkpt>
      <trkpt lat="44.45888" lon="6.53139">
        <ele>2243.85</ele>
        <time>2020-09-09T13:18:45Z</time>
      </trkpt>
      <trkpt lat="44.45894" lon="6.53151">
        <ele>2240.49</ele>
        <time>2020-09-09T13:19:00Z</time>
      </trkpt>
      <trkpt lat="44.459" lon="6.53161">
        <ele>2238.57</ele>
        <time>2020-09-09T13:19:19Z</time>
      </trkpt>
      <trkpt lat="44.45905" lon="6.53179">
        <ele>2235.68</ele>
        <time>2020-09-09T13:19:38Z</time>
      </trkpt>
      <trkpt lat="44.45907" lon="6.53191">
        <ele>2234.72</ele>
        <time>2020-09-09T13:19:51Z</time>
      </trkpt>
      <trkpt lat="44.45914" lon="6.53211">
        <ele>2232.8</ele>
        <time>2020-09-09T13:20:08Z</time>
      </trkpt>
      <trkpt lat="44.45913" lon="6.53217">
        <ele>2232.8</ele>
        <time>2020-09-09T13:20:13Z</time>
      </trkpt>
      <trkpt lat="44.45913" lon="6.53238">
        <ele>2229.92</ele>
        <time>2020-09-09T13:20:29Z</time>
      </trkpt>
      <trkpt lat="44.45919" lon="6.53252">
        <ele>2227.51</ele>
        <time>2020-09-09T13:20:44Z</time>
      </trkpt>
      <trkpt lat="44.45925" lon="6.53261">
        <ele>2224.15</ele>
        <time>2020-09-09T13:20:55Z</time>
      </trkpt>
      <trkpt lat="44.45934" lon="6.53274">
        <ele>2221.26</ele>
        <time>2020-09-09T13:21:13Z</time>
      </trkpt>
      <trkpt lat="44.45943" lon="6.53287">
        <ele>2218.38</ele>
        <time>2020-09-09T13:21:29Z</time>
      </trkpt>
      <trkpt lat="44.45951" lon="6.53298">
        <ele>2215.98</ele>
        <time>2020-09-09T13:21:46Z</time>
      </trkpt>
      <trkpt lat="44.45955" lon="6.53314">
        <ele>2213.57</ele>
        <time>2020-09-09T13:22:02Z</time>
      </trkpt>
      <trkpt lat="44.45959" lon="6.53335">
        <ele>2211.17</ele>
        <time>2020-09-09T13:22:19Z</time>
      </trkpt>
      <trkpt lat="44.4596" lon="6.53354">
        <ele>2208.77</ele>
        <time>2020-09-09T13:22:36Z</time>
      </trkpt>
      <trkpt lat="44.45964" lon="6.53373">
        <ele>2207.32</ele>
        <time>2020-09-09T13:22:52Z</time>
      </trkpt>
      <trkpt lat="44.4597" lon="6.53392">
        <ele>2205.4</ele>
        <time>2020-09-09T13:23:10Z</time>
      </trkpt>
      <trkpt lat="44.45971" lon="6.53403">
        <ele>2203</ele>
        <time>2020-09-09T13:23:24Z</time>
      </trkpt>
      <trkpt lat="44.45977" lon="6.5342">
        <ele>2201.56</ele>
        <time>2020-09-09T13:23:39Z</time>
      </trkpt>
      <trkpt lat="44.45984" lon="6.53436">
        <ele>2199.15</ele>
        <time>2020-09-09T13:23:55Z</time>
      </trkpt>
      <trkpt lat="44.45992" lon="6.53453">
        <ele>2197.23</ele>
        <time>2020-09-09T13:24:13Z</time>
      </trkpt>
      <trkpt lat="44.45999" lon="6.53468">
        <ele>2195.31</ele>
        <time>2020-09-09T13:24:28Z</time>
      </trkpt>
      <trkpt lat="44.46003" lon="6.53485">
        <ele>2191.94</ele>
        <time>2020-09-09T13:24:43Z</time>
      </trkpt>
      <trkpt lat="44.46006" lon="6.535">
        <ele>2189.06</ele>
        <time>2020-09-09T13:25:01Z</time>
      </trkpt>
      <trkpt lat="44.4601" lon="6.53519">
        <ele>2186.18</ele>
        <time>2020-09-09T13:25:18Z</time>
      </trkpt>
      <trkpt lat="44.4601" lon="6.53538">
        <ele>2182.81</ele>
        <time>2020-09-09T13:25:34Z</time>
      </trkpt>
      <trkpt lat="44.46011" lon="6.53561">
        <ele>2180.89</ele>
        <time>2020-09-09T13:25:53Z</time>
      </trkpt>
      <trkpt lat="44.46007" lon="6.53584">
        <ele>2178.48</ele>
        <time>2020-09-09T13:26:11Z</time>
      </trkpt>
      <trkpt lat="44.46016" lon="6.53604">
        <ele>2177.04</ele>
        <time>2020-09-09T13:26:28Z</time>
      </trkpt>
      <trkpt lat="44.46023" lon="6.53621">
        <ele>2175.12</ele>
        <time>2020-09-09T13:26:45Z</time>
      </trkpt>
      <trkpt lat="44.46035" lon="6.53639">
        <ele>2174.16</ele>
        <time>2020-09-09T13:27:04Z</time>
      </trkpt>
      <trkpt lat="44.46047" lon="6.53664">
        <ele>2172.72</ele>
        <time>2020-09-09T13:27:25Z</time>
      </trkpt>
      <trkpt lat="44.46055" lon="6.53685">
        <ele>2171.76</ele>
        <time>2020-09-09T13:27:43Z</time>
      </trkpt>
      <trkpt lat="44.46062" lon="6.53705">
        <ele>2169.83</ele>
        <time>2020-09-09T13:28:00Z</time>
      </trkpt>
      <trkpt lat="44.46065" lon="6.53714">
        <ele>2169.35</ele>
        <time>2020-09-09T13:28:09Z</time>
      </trkpt>
      <trkpt lat="44.46075" lon="6.5373">
        <ele>2168.87</ele>
        <time>2020-09-09T13:28:26Z</time>
      </trkpt>
      <trkpt lat="44.46086" lon="6.53745">
        <ele>2166.95</ele>
        <time>2020-09-09T13:28:45Z</time>
      </trkpt>
      <trkpt lat="44.46087" lon="6.53764">
        <ele>2165.51</ele>
        <time>2020-09-09T13:29:01Z</time>
      </trkpt>
      <trkpt lat="44.4609" lon="6.53786">
        <ele>2164.55</ele>
        <time>2020-09-09T13:29:17Z</time>
      </trkpt>
      <trkpt lat="44.46091" lon="6.53791">
        <ele>2164.55</ele>
        <time>2020-09-09T13:29:20Z</time>
      </trkpt>
      <trkpt lat="44.46093" lon="6.53816">
        <ele>2163.1</ele>
        <time>2020-09-09T13:29:38Z</time>
      </trkpt>
      <trkpt lat="44.46097" lon="6.5384">
        <ele>2160.22</ele>
        <time>2020-09-09T13:29:58Z</time>
      </trkpt>
      <trkpt lat="44.46102" lon="6.53854">
        <ele>2158.78</ele>
        <time>2020-09-09T13:30:15Z</time>
      </trkpt>
      <trkpt lat="44.46102" lon="6.53857">
        <ele>2158.3</ele>
        <time>2020-09-09T13:30:40Z</time>
      </trkpt>
      <trkpt lat="44.46102" lon="6.53861">
        <ele>2158.3</ele>
        <time>2020-09-09T13:31:01Z</time>
      </trkpt>
      <trkpt lat="44.46103" lon="6.5386">
        <ele>2157.82</ele>
        <time>2020-09-09T13:31:20Z</time>
      </trkpt>
      <trkpt lat="44.46109" lon="6.53865">
        <ele>2157.82</ele>
        <time>2020-09-09T13:31:36Z</time>
      </trkpt>
      <trkpt lat="44.4611" lon="6.53865">
        <ele>2157.82</ele>
        <time>2020-09-09T13:31:37Z</time>
      </trkpt>
      <trkpt lat="44.4612" lon="6.5388">
        <ele>2157.34</ele>
        <time>2020-09-09T13:31:55Z</time>
      </trkpt>
      <trkpt lat="44.46129" lon="6.53898">
        <ele>2156.37</ele>
        <time>2020-09-09T13:32:12Z</time>
      </trkpt>
      <trkpt lat="44.46143" lon="6.53911">
        <ele>2156.37</ele>
        <time>2020-09-09T13:32:29Z</time>
      </trkpt>
      <trkpt lat="44.46155" lon="6.53913">
        <ele>2153.97</ele>
        <time>2020-09-09T13:32:46Z</time>
      </trkpt>
      <trkpt lat="44.46167" lon="6.5392">
        <ele>2150.61</ele>
        <time>2020-09-09T13:33:03Z</time>
      </trkpt>
      <trkpt lat="44.46175" lon="6.5393">
        <ele>2148.68</ele>
        <time>2020-09-09T13:33:19Z</time>
      </trkpt>
      <trkpt lat="44.46187" lon="6.53945">
        <ele>2145.32</ele>
        <time>2020-09-09T13:33:38Z</time>
      </trkpt>
      <trkpt lat="44.46192" lon="6.53962">
        <ele>2144.36</ele>
        <time>2020-09-09T13:33:52Z</time>
      </trkpt>
      <trkpt lat="44.46193" lon="6.53963">
        <ele>2142.92</ele>
        <time>2020-09-09T13:33:54Z</time>
      </trkpt>
      <trkpt lat="44.46198" lon="6.53983">
        <ele>2140.51</ele>
        <time>2020-09-09T13:34:11Z</time>
      </trkpt>
      <trkpt lat="44.46206" lon="6.54008">
        <ele>2138.59</ele>
        <time>2020-09-09T13:34:33Z</time>
      </trkpt>
      <trkpt lat="44.46208" lon="6.54034">
        <ele>2135.71</ele>
        <time>2020-09-09T13:34:54Z</time>
      </trkpt>
      <trkpt lat="44.46209" lon="6.54049">
        <ele>2133.78</ele>
        <time>2020-09-09T13:35:05Z</time>
      </trkpt>
      <trkpt lat="44.4621" lon="6.54066">
        <ele>2130.9</ele>
        <time>2020-09-09T13:35:24Z</time>
      </trkpt>
      <trkpt lat="44.46211" lon="6.54083">
        <ele>2128.02</ele>
        <time>2020-09-09T13:35:40Z</time>
      </trkpt>
      <trkpt lat="44.46217" lon="6.54101">
        <ele>2126.09</ele>
        <time>2020-09-09T13:35:56Z</time>
      </trkpt>
      <trkpt lat="44.46226" lon="6.54118">
        <ele>2124.65</ele>
        <time>2020-09-09T13:36:13Z</time>
      </trkpt>
      <trkpt lat="44.46233" lon="6.54137">
        <ele>2122.25</ele>
        <time>2020-09-09T13:36:36Z</time>
      </trkpt>
      <trkpt lat="44.46244" lon="6.54153">
        <ele>2119.84</ele>
        <time>2020-09-09T13:36:57Z</time>
      </trkpt>
      <trkpt lat="44.4626" lon="6.5416">
        <ele>2118.88</ele>
        <time>2020-09-09T13:37:16Z</time>
      </trkpt>
      <trkpt lat="44.46275" lon="6.54176">
        <ele>2117.44</ele>
        <time>2020-09-09T13:37:37Z</time>
      </trkpt>
      <trkpt lat="44.46283" lon="6.54185">
        <ele>2114.08</ele>
        <time>2020-09-09T13:37:55Z</time>
      </trkpt>
      <trkpt lat="44.46297" lon="6.54204">
        <ele>2112.15</ele>
        <time>2020-09-09T13:38:15Z</time>
      </trkpt>
      <trkpt lat="44.46306" lon="6.5421">
        <ele>2109.75</ele>
        <time>2020-09-09T13:38:32Z</time>
      </trkpt>
      <trkpt lat="44.46319" lon="6.5422">
        <ele>2106.87</ele>
        <time>2020-09-09T13:38:52Z</time>
      </trkpt>
      <trkpt lat="44.46327" lon="6.54228">
        <ele>2103.98</ele>
        <time>2020-09-09T13:39:04Z</time>
      </trkpt>
      <trkpt lat="44.46339" lon="6.54234">
        <ele>2102.06</ele>
        <time>2020-09-09T13:39:21Z</time>
      </trkpt>
      <trkpt lat="44.46354" lon="6.54244">
        <ele>2098.7</ele>
        <time>2020-09-09T13:39:39Z</time>
      </trkpt>
      <trkpt lat="44.46371" lon="6.54262">
        <ele>2097.25</ele>
        <time>2020-09-09T13:39:59Z</time>
      </trkpt>
      <trkpt lat="44.46391" lon="6.54279">
        <ele>2095.33</ele>
        <time>2020-09-09T13:40:22Z</time>
      </trkpt>
      <trkpt lat="44.46409" lon="6.54281">
        <ele>2092.93</ele>
        <time>2020-09-09T13:40:42Z</time>
      </trkpt>
      <trkpt lat="44.46428" lon="6.5429">
        <ele>2090.04</ele>
        <time>2020-09-09T13:41:02Z</time>
      </trkpt>
      <trkpt lat="44.4645" lon="6.54296">
        <ele>2088.6</ele>
        <time>2020-09-09T13:41:22Z</time>
      </trkpt>
      <trkpt lat="44.46465" lon="6.54303">
        <ele>2085.24</ele>
        <time>2020-09-09T13:41:43Z</time>
      </trkpt>
      <trkpt lat="44.46482" lon="6.54316">
        <ele>2082.35</ele>
        <time>2020-09-09T13:42:06Z</time>
      </trkpt>
      <trkpt lat="44.46495" lon="6.54334">
        <ele>2081.87</ele>
        <time>2020-09-09T13:42:28Z</time>
      </trkpt>
      <trkpt lat="44.46503" lon="6.54343">
        <ele>2079.47</ele>
        <time>2020-09-09T13:42:47Z</time>
      </trkpt>
      <trkpt lat="44.46511" lon="6.54336">
        <ele>2076.59</ele>
        <time>2020-09-09T13:43:03Z</time>
      </trkpt>
      <trkpt lat="44.46512" lon="6.54338">
        <ele>2074.18</ele>
        <time>2020-09-09T13:43:12Z</time>
      </trkpt>
      <trkpt lat="44.46517" lon="6.5435">
        <ele>2070.82</ele>
        <time>2020-09-09T13:43:32Z</time>
      </trkpt>
      <trkpt lat="44.46521" lon="6.54363">
        <ele>2067.45</ele>
        <time>2020-09-09T13:43:46Z</time>
      </trkpt>
      <trkpt lat="44.46521" lon="6.54373">
        <ele>2064.57</ele>
        <time>2020-09-09T13:44:00Z</time>
      </trkpt>
      <trkpt lat="44.46526" lon="6.54383">
        <ele>2061.2</ele>
        <time>2020-09-09T13:44:16Z</time>
      </trkpt>
      <trkpt lat="44.46533" lon="6.54395">
        <ele>2057.36</ele>
        <time>2020-09-09T13:44:30Z</time>
      </trkpt>
      <trkpt lat="44.46537" lon="6.5442">
        <ele>2054.47</ele>
        <time>2020-09-09T13:44:51Z</time>
      </trkpt>
      <trkpt lat="44.46534" lon="6.54431">
        <ele>2051.11</ele>
        <time>2020-09-09T13:45:06Z</time>
      </trkpt>
      <trkpt lat="44.46535" lon="6.54444">
        <ele>2048.23</ele>
        <time>2020-09-09T13:45:21Z</time>
      </trkpt>
      <trkpt lat="44.46536" lon="6.54455">
        <ele>2045.82</ele>
        <time>2020-09-09T13:45:37Z</time>
      </trkpt>
      <trkpt lat="44.4654" lon="6.54462">
        <ele>2042.94</ele>
        <time>2020-09-09T13:45:51Z</time>
      </trkpt>
      <trkpt lat="44.46549" lon="6.54463">
        <ele>2039.57</ele>
        <time>2020-09-09T13:46:05Z</time>
      </trkpt>
      <trkpt lat="44.46568" lon="6.54465">
        <ele>2037.17</ele>
        <time>2020-09-09T13:46:26Z</time>
      </trkpt>
      <trkpt lat="44.4658" lon="6.54472">
        <ele>2033.81</ele>
        <time>2020-09-09T13:46:49Z</time>
      </trkpt>
      <trkpt lat="44.46587" lon="6.54477">
        <ele>2030.44</ele>
        <time>2020-09-09T13:47:07Z</time>
      </trkpt>
      <trkpt lat="44.46593" lon="6.54476">
        <ele>2027.56</ele>
        <time>2020-09-09T13:47:25Z</time>
      </trkpt>
      <trkpt lat="44.46599" lon="6.54475">
        <ele>2024.19</ele>
        <time>2020-09-09T13:47:41Z</time>
      </trkpt>
      <trkpt lat="44.46609" lon="6.54474">
        <ele>2020.83</ele>
        <time>2020-09-09T13:47:55Z</time>
      </trkpt>
      <trkpt lat="44.46617" lon="6.54471">
        <ele>2016.98</ele>
        <time>2020-09-09T13:48:11Z</time>
      </trkpt>
      <trkpt lat="44.46629" lon="6.54473">
        <ele>2014.58</ele>
        <time>2020-09-09T13:48:28Z</time>
      </trkpt>
      <trkpt lat="44.46632" lon="6.54476">
        <ele>2012.18</ele>
        <time>2020-09-09T13:48:36Z</time>
      </trkpt>
      <trkpt lat="44.46638" lon="6.54485">
        <ele>2008.81</ele>
        <time>2020-09-09T13:48:51Z</time>
      </trkpt>
      <trkpt lat="44.46649" lon="6.54488">
        <ele>2005.93</ele>
        <time>2020-09-09T13:49:10Z</time>
      </trkpt>
      <trkpt lat="44.46652" lon="6.54495">
        <ele>2002.56</ele>
        <time>2020-09-09T13:49:25Z</time>
      </trkpt>
      <trkpt lat="44.46641" lon="6.54502">
        <ele>1999.2</ele>
        <time>2020-09-09T13:49:44Z</time>
      </trkpt>
      <trkpt lat="44.46632" lon="6.54507">
        <ele>1996.32</ele>
        <time>2020-09-09T13:49:57Z</time>
      </trkpt>
      <trkpt lat="44.46626" lon="6.54527">
        <ele>1992.95</ele>
        <time>2020-09-09T13:50:18Z</time>
      </trkpt>
      <trkpt lat="44.46622" lon="6.54573">
        <ele>1990.55</ele>
        <time>2020-09-09T13:50:42Z</time>
      </trkpt>
      <trkpt lat="44.4662" lon="6.54589">
        <ele>1987.18</ele>
        <time>2020-09-09T13:51:02Z</time>
      </trkpt>
      <trkpt lat="44.46617" lon="6.546">
        <ele>1984.3</ele>
        <time>2020-09-09T13:51:15Z</time>
      </trkpt>
      <trkpt lat="44.46617" lon="6.54617">
        <ele>1980.45</ele>
        <time>2020-09-09T13:51:31Z</time>
      </trkpt>
      <trkpt lat="44.46616" lon="6.54625">
        <ele>1979.01</ele>
        <time>2020-09-09T13:51:54Z</time>
      </trkpt>
      <trkpt lat="44.46615" lon="6.54625">
        <ele>1978.53</ele>
        <time>2020-09-09T13:52:15Z</time>
      </trkpt>
      <trkpt lat="44.46618" lon="6.54622">
        <ele>1978.53</ele>
        <time>2020-09-09T13:52:36Z</time>
      </trkpt>
      <trkpt lat="44.46617" lon="6.54622">
        <ele>1978.05</ele>
        <time>2020-09-09T13:53:01Z</time>
      </trkpt>
      <trkpt lat="44.46616" lon="6.54622">
        <ele>1978.05</ele>
        <time>2020-09-09T13:53:24Z</time>
      </trkpt>
      <trkpt lat="44.46616" lon="6.54616">
        <ele>1977.57</ele>
        <time>2020-09-09T13:53:45Z</time>
      </trkpt>
      <trkpt lat="44.46617" lon="6.54618">
        <ele>1977.57</ele>
        <time>2020-09-09T13:54:08Z</time>
      </trkpt>
      <trkpt lat="44.46617" lon="6.5462">
        <ele>1977.57</ele>
        <time>2020-09-09T13:54:31Z</time>
      </trkpt>
      <trkpt lat="44.46619" lon="6.54617">
        <ele>1978.53</ele>
        <time>2020-09-09T13:54:58Z</time>
      </trkpt>
      <trkpt lat="44.46629" lon="6.54621">
        <ele>1978.53</ele>
        <time>2020-09-09T13:55:25Z</time>
      </trkpt>
      <trkpt lat="44.4662" lon="6.54623">
        <ele>1978.53</ele>
        <time>2020-09-09T13:55:55Z</time>
      </trkpt>
      <trkpt lat="44.46621" lon="6.54619">
        <ele>1978.53</ele>
        <time>2020-09-09T13:56:23Z</time>
      </trkpt>
      <trkpt lat="44.46617" lon="6.54621">
        <ele>1978.53</ele>
        <time>2020-09-09T13:56:47Z</time>
      </trkpt>
      <trkpt lat="44.46616" lon="6.54621">
        <ele>1978.05</ele>
        <time>2020-09-09T13:57:16Z</time>
      </trkpt>
      <trkpt lat="44.46615" lon="6.54619">
        <ele>1978.05</ele>
        <time>2020-09-09T13:57:47Z</time>
      </trkpt>
      <trkpt lat="44.46615" lon="6.54623">
        <ele>1978.05</ele>
        <time>2020-09-09T13:58:18Z</time>
      </trkpt>
      <trkpt lat="44.46617" lon="6.54618">
        <ele>1978.05</ele>
        <time>2020-09-09T13:58:52Z</time>
      </trkpt>
      <trkpt lat="44.46619" lon="6.54624">
        <ele>1976.61</ele>
        <time>2020-09-09T13:59:27Z</time>
      </trkpt>
      <trkpt lat="44.46618" lon="6.54624">
        <ele>1976.61</ele>
        <time>2020-09-09T14:00:01Z</time>
      </trkpt>
      <trkpt lat="44.46612" lon="6.54645">
        <ele>1973.24</ele>
        <time>2020-09-09T14:00:21Z</time>
      </trkpt>
      <trkpt lat="44.46611" lon="6.54666">
        <ele>1969.88</ele>
        <time>2020-09-09T14:00:37Z</time>
      </trkpt>
      <trkpt lat="44.46611" lon="6.54689">
        <ele>1966.51</ele>
        <time>2020-09-09T14:00:59Z</time>
      </trkpt>
      <trkpt lat="44.46611" lon="6.54691">
        <ele>1966.03</ele>
        <time>2020-09-09T14:01:01Z</time>
      </trkpt>
      <trkpt lat="44.46605" lon="6.54715">
        <ele>1963.15</ele>
        <time>2020-09-09T14:01:23Z</time>
      </trkpt>
      <trkpt lat="44.46602" lon="6.54745">
        <ele>1960.27</ele>
        <time>2020-09-09T14:01:46Z</time>
      </trkpt>
      <trkpt lat="44.46599" lon="6.54774">
        <ele>1958.34</ele>
        <time>2020-09-09T14:02:08Z</time>
      </trkpt>
      <trkpt lat="44.46591" lon="6.54805">
        <ele>1956.42</ele>
        <time>2020-09-09T14:02:30Z</time>
      </trkpt>
      <trkpt lat="44.46589" lon="6.54833">
        <ele>1954.5</ele>
        <time>2020-09-09T14:02:51Z</time>
      </trkpt>
      <trkpt lat="44.46585" lon="6.54865">
        <ele>1952.57</ele>
        <time>2020-09-09T14:03:12Z</time>
      </trkpt>
      <trkpt lat="44.46583" lon="6.54889">
        <ele>1949.69</ele>
        <time>2020-09-09T14:03:30Z</time>
      </trkpt>
      <trkpt lat="44.46582" lon="6.54897">
        <ele>1948.73</ele>
        <time>2020-09-09T14:03:49Z</time>
      </trkpt>
      <trkpt lat="44.46586" lon="6.54905">
        <ele>1948.25</ele>
        <time>2020-09-09T14:04:09Z</time>
      </trkpt>
      <trkpt lat="44.46587" lon="6.54922">
        <ele>1945.36</ele>
        <time>2020-09-09T14:04:28Z</time>
      </trkpt>
      <trkpt lat="44.46583" lon="6.54943">
        <ele>1942</ele>
        <time>2020-09-09T14:04:45Z</time>
      </trkpt>
      <trkpt lat="44.46581" lon="6.54961">
        <ele>1939.6</ele>
        <time>2020-09-09T14:05:03Z</time>
      </trkpt>
      <trkpt lat="44.46589" lon="6.54985">
        <ele>1938.64</ele>
        <time>2020-09-09T14:05:23Z</time>
      </trkpt>
      <trkpt lat="44.46594" lon="6.55011">
        <ele>1936.71</ele>
        <time>2020-09-09T14:05:42Z</time>
      </trkpt>
      <trkpt lat="44.46596" lon="6.55029">
        <ele>1934.31</ele>
        <time>2020-09-09T14:05:57Z</time>
      </trkpt>
      <trkpt lat="44.46605" lon="6.55033">
        <ele>1931.43</ele>
        <time>2020-09-09T14:06:09Z</time>
      </trkpt>
      <trkpt lat="44.46607" lon="6.55025">
        <ele>1930.46</ele>
        <time>2020-09-09T14:06:16Z</time>
      </trkpt>
      <trkpt lat="44.46607" lon="6.55003">
        <ele>1928.54</ele>
        <time>2020-09-09T14:06:33Z</time>
      </trkpt>
      <trkpt lat="44.46609" lon="6.54994">
        <ele>1926.62</ele>
        <time>2020-09-09T14:06:41Z</time>
      </trkpt>
      <trkpt lat="44.46619" lon="6.54977">
        <ele>1923.25</ele>
        <time>2020-09-09T14:06:55Z</time>
      </trkpt>
      <trkpt lat="44.46619" lon="6.54976">
        <ele>1927.58</ele>
        <time>2020-09-09T14:06:56Z</time>
      </trkpt>
      <trkpt lat="44.4662" lon="6.54976">
        <ele>1925.18</ele>
        <time>2020-09-09T14:06:57Z</time>
      </trkpt>
      <trkpt lat="44.46623" lon="6.54993">
        <ele>1921.81</ele>
        <time>2020-09-09T14:07:11Z</time>
      </trkpt>
      <trkpt lat="44.46628" lon="6.55005">
        <ele>1918.45</ele>
        <time>2020-09-09T14:07:23Z</time>
      </trkpt>
      <trkpt lat="44.46635" lon="6.55009">
        <ele>1916.53</ele>
        <time>2020-09-09T14:07:29Z</time>
      </trkpt>
      <trkpt lat="44.46641" lon="6.55009">
        <ele>1914.12</ele>
        <time>2020-09-09T14:07:35Z</time>
      </trkpt>
      <trkpt lat="44.46647" lon="6.55011">
        <ele>1911.72</ele>
        <time>2020-09-09T14:07:47Z</time>
      </trkpt>
      <trkpt lat="44.46652" lon="6.55008">
        <ele>1908.35</ele>
        <time>2020-09-09T14:07:58Z</time>
      </trkpt>
      <trkpt lat="44.46659" lon="6.55015">
        <ele>1905.47</ele>
        <time>2020-09-09T14:08:08Z</time>
      </trkpt>
      <trkpt lat="44.46667" lon="6.55017">
        <ele>1903.07</ele>
        <time>2020-09-09T14:08:16Z</time>
      </trkpt>
      <trkpt lat="44.4667" lon="6.55019">
        <ele>1902.11</ele>
        <time>2020-09-09T14:08:20Z</time>
      </trkpt>
      <trkpt lat="44.4668" lon="6.5502">
        <ele>1898.74</ele>
        <time>2020-09-09T14:08:30Z</time>
      </trkpt>
      <trkpt lat="44.46681" lon="6.55019">
        <ele>1898.74</ele>
        <time>2020-09-09T14:08:34Z</time>
      </trkpt>
      <trkpt lat="44.46689" lon="6.5502">
        <ele>1895.38</ele>
        <time>2020-09-09T14:08:48Z</time>
      </trkpt>
      <trkpt lat="44.46691" lon="6.55019">
        <ele>1894.42</ele>
        <time>2020-09-09T14:08:50Z</time>
      </trkpt>
      <trkpt lat="44.46703" lon="6.55019">
        <ele>1891.05</ele>
        <time>2020-09-09T14:09:05Z</time>
      </trkpt>
      <trkpt lat="44.4671" lon="6.55021">
        <ele>1888.17</ele>
        <time>2020-09-09T14:09:16Z</time>
      </trkpt>
      <trkpt lat="44.46721" lon="6.55018">
        <ele>1884.8</ele>
        <time>2020-09-09T14:09:29Z</time>
      </trkpt>
      <trkpt lat="44.46723" lon="6.55019">
        <ele>1882.88</ele>
        <time>2020-09-09T14:09:34Z</time>
      </trkpt>
      <trkpt lat="44.46731" lon="6.55016">
        <ele>1879.51</ele>
        <time>2020-09-09T14:09:45Z</time>
      </trkpt>
      <trkpt lat="44.4674" lon="6.55011">
        <ele>1876.15</ele>
        <time>2020-09-09T14:09:59Z</time>
      </trkpt>
      <trkpt lat="44.46747" lon="6.55009">
        <ele>1873.27</ele>
        <time>2020-09-09T14:10:10Z</time>
      </trkpt>
      <trkpt lat="44.46751" lon="6.55005">
        <ele>1869.9</ele>
        <time>2020-09-09T14:10:21Z</time>
      </trkpt>
      <trkpt lat="44.46755" lon="6.55005">
        <ele>1867.98</ele>
        <time>2020-09-09T14:10:28Z</time>
      </trkpt>
      <trkpt lat="44.46761" lon="6.54998">
        <ele>1864.61</ele>
        <time>2020-09-09T14:10:43Z</time>
      </trkpt>
      <trkpt lat="44.46769" lon="6.54991">
        <ele>1860.77</ele>
        <time>2020-09-09T14:10:56Z</time>
      </trkpt>
      <trkpt lat="44.46774" lon="6.54988">
        <ele>1858.37</ele>
        <time>2020-09-09T14:11:05Z</time>
      </trkpt>
      <trkpt lat="44.46776" lon="6.54978">
        <ele>1855.48</ele>
        <time>2020-09-09T14:11:17Z</time>
      </trkpt>
      <trkpt lat="44.46779" lon="6.54966">
        <ele>1851.64</ele>
        <time>2020-09-09T14:11:34Z</time>
      </trkpt>
      <trkpt lat="44.4678" lon="6.54965">
        <ele>1851.16</ele>
        <time>2020-09-09T14:11:36Z</time>
      </trkpt>
      <trkpt lat="44.46782" lon="6.54967">
        <ele>1848.27</ele>
        <time>2020-09-09T14:11:46Z</time>
      </trkpt>
      <trkpt lat="44.46791" lon="6.5497">
        <ele>1844.91</ele>
        <time>2020-09-09T14:12:03Z</time>
      </trkpt>
      <trkpt lat="44.46798" lon="6.54976">
        <ele>1841.54</ele>
        <time>2020-09-09T14:12:17Z</time>
      </trkpt>
      <trkpt lat="44.46802" lon="6.54978">
        <ele>1838.18</ele>
        <time>2020-09-09T14:12:30Z</time>
      </trkpt>
      <trkpt lat="44.46811" lon="6.5498">
        <ele>1835.29</ele>
        <time>2020-09-09T14:12:41Z</time>
      </trkpt>
      <trkpt lat="44.46825" lon="6.54981">
        <ele>1831.93</ele>
        <time>2020-09-09T14:12:56Z</time>
      </trkpt>
      <trkpt lat="44.46837" lon="6.54971">
        <ele>1830.01</ele>
        <time>2020-09-09T14:13:11Z</time>
      </trkpt>
      <trkpt lat="44.46839" lon="6.54969">
        <ele>1828.08</ele>
        <time>2020-09-09T14:13:14Z</time>
      </trkpt>
      <trkpt lat="44.46849" lon="6.54959">
        <ele>1824.72</ele>
        <time>2020-09-09T14:13:28Z</time>
      </trkpt>
      <trkpt lat="44.46852" lon="6.54955">
        <ele>1823.28</ele>
        <time>2020-09-09T14:13:33Z</time>
      </trkpt>
      <trkpt lat="44.46864" lon="6.54945">
        <ele>1819.91</ele>
        <time>2020-09-09T14:13:47Z</time>
      </trkpt>
      <trkpt lat="44.46872" lon="6.54934">
        <ele>1817.99</ele>
        <time>2020-09-09T14:14:02Z</time>
      </trkpt>
      <trkpt lat="44.4688" lon="6.54921">
        <ele>1815.11</ele>
        <time>2020-09-09T14:14:17Z</time>
      </trkpt>
      <trkpt lat="44.46889" lon="6.54912">
        <ele>1811.26</ele>
        <time>2020-09-09T14:14:33Z</time>
      </trkpt>
      <trkpt lat="44.46898" lon="6.54896">
        <ele>1807.9</ele>
        <time>2020-09-09T14:14:47Z</time>
      </trkpt>
      <trkpt lat="44.46907" lon="6.54882">
        <ele>1804.53</ele>
        <time>2020-09-09T14:15:01Z</time>
      </trkpt>
      <trkpt lat="44.46916" lon="6.5487">
        <ele>1802.61</ele>
        <time>2020-09-09T14:15:16Z</time>
      </trkpt>
      <trkpt lat="44.46934" lon="6.54865">
        <ele>1800.21</ele>
        <time>2020-09-09T14:15:34Z</time>
      </trkpt>
      <trkpt lat="44.46954" lon="6.54866">
        <ele>1797.8</ele>
        <time>2020-09-09T14:15:52Z</time>
      </trkpt>
      <trkpt lat="44.46978" lon="6.54867">
        <ele>1794.92</ele>
        <time>2020-09-09T14:16:11Z</time>
      </trkpt>
      <trkpt lat="44.46998" lon="6.54867">
        <ele>1792.52</ele>
        <time>2020-09-09T14:16:30Z</time>
      </trkpt>
      <trkpt lat="44.47018" lon="6.54872">
        <ele>1790.11</ele>
        <time>2020-09-09T14:16:49Z</time>
      </trkpt>
      <trkpt lat="44.47039" lon="6.5487">
        <ele>1787.23</ele>
        <time>2020-09-09T14:17:09Z</time>
      </trkpt>
      <trkpt lat="44.4704" lon="6.54869">
        <ele>1787.23</ele>
        <time>2020-09-09T14:17:10Z</time>
      </trkpt>
      <trkpt lat="44.47054" lon="6.54855">
        <ele>1784.34</ele>
        <time>2020-09-09T14:17:26Z</time>
      </trkpt>
      <trkpt lat="44.47073" lon="6.5484">
        <ele>1782.42</ele>
        <time>2020-09-09T14:17:45Z</time>
      </trkpt>
      <trkpt lat="44.47086" lon="6.54825">
        <ele>1780.02</ele>
        <time>2020-09-09T14:18:00Z</time>
      </trkpt>
      <trkpt lat="44.47099" lon="6.54813">
        <ele>1777.13</ele>
        <time>2020-09-09T14:18:15Z</time>
      </trkpt>
      <trkpt lat="44.47102" lon="6.54811">
        <ele>1777.13</ele>
        <time>2020-09-09T14:18:19Z</time>
      </trkpt>
      <trkpt lat="44.47122" lon="6.54805">
        <ele>1773.77</ele>
        <time>2020-09-09T14:18:36Z</time>
      </trkpt>
      <trkpt lat="44.47137" lon="6.548">
        <ele>1770.41</ele>
        <time>2020-09-09T14:18:48Z</time>
      </trkpt>
      <trkpt lat="44.47152" lon="6.54795">
        <ele>1768.48</ele>
        <time>2020-09-09T14:18:59Z</time>
      </trkpt>
      <trkpt lat="44.47169" lon="6.54784">
        <ele>1765.6</ele>
        <time>2020-09-09T14:19:17Z</time>
      </trkpt>
      <trkpt lat="44.47171" lon="6.54783">
        <ele>1765.6</ele>
        <time>2020-09-09T14:19:18Z</time>
      </trkpt>
      <trkpt lat="44.4719" lon="6.54783">
        <ele>1762.23</ele>
        <time>2020-09-09T14:19:35Z</time>
      </trkpt>
      <trkpt lat="44.47206" lon="6.54782">
        <ele>1758.87</ele>
        <time>2020-09-09T14:19:49Z</time>
      </trkpt>
      <trkpt lat="44.47227" lon="6.54785">
        <ele>1755.99</ele>
        <time>2020-09-09T14:20:06Z</time>
      </trkpt>
      <trkpt lat="44.47249" lon="6.54781">
        <ele>1753.1</ele>
        <time>2020-09-09T14:20:27Z</time>
      </trkpt>
      <trkpt lat="44.47257" lon="6.54769">
        <ele>1749.74</ele>
        <time>2020-09-09T14:20:41Z</time>
      </trkpt>
      <trkpt lat="44.47259" lon="6.54767">
        <ele>1749.74</ele>
        <time>2020-09-09T14:20:43Z</time>
      </trkpt>
      <trkpt lat="44.4727" lon="6.54753">
        <ele>1746.37</ele>
        <time>2020-09-09T14:20:59Z</time>
      </trkpt>
      <trkpt lat="44.47274" lon="6.54749">
        <ele>1745.89</ele>
        <time>2020-09-09T14:21:04Z</time>
      </trkpt>
      <trkpt lat="44.47278" lon="6.54747">
        <ele>1744.45</ele>
        <time>2020-09-09T14:21:08Z</time>
      </trkpt>
      <trkpt lat="44.47284" lon="6.54744">
        <ele>1743.01</ele>
        <time>2020-09-09T14:21:15Z</time>
      </trkpt>
      <trkpt lat="44.47299" lon="6.54751">
        <ele>1739.64</ele>
        <time>2020-09-09T14:21:31Z</time>
      </trkpt>
      <trkpt lat="44.47314" lon="6.54764">
        <ele>1735.8</ele>
        <time>2020-09-09T14:21:48Z</time>
      </trkpt>
      <trkpt lat="44.47327" lon="6.54791">
        <ele>1733.39</ele>
        <time>2020-09-09T14:22:06Z</time>
      </trkpt>
      <trkpt lat="44.47344" lon="6.54807">
        <ele>1732.43</ele>
        <time>2020-09-09T14:22:23Z</time>
      </trkpt>
      <trkpt lat="44.47362" lon="6.5481">
        <ele>1731.47</ele>
        <time>2020-09-09T14:22:38Z</time>
      </trkpt>
      <trkpt lat="44.47386" lon="6.54809">
        <ele>1730.51</ele>
        <time>2020-09-09T14:22:57Z</time>
      </trkpt>
      <trkpt lat="44.47409" lon="6.54804">
        <ele>1729.55</ele>
        <time>2020-09-09T14:23:14Z</time>
      </trkpt>
      <trkpt lat="44.4743" lon="6.54803">
        <ele>1728.59</ele>
        <time>2020-09-09T14:23:32Z</time>
      </trkpt>
      <trkpt lat="44.47449" lon="6.5482">
        <ele>1726.18</ele>
        <time>2020-09-09T14:23:50Z</time>
      </trkpt>
      <trkpt lat="44.47463" lon="6.54835">
        <ele>1725.7</ele>
        <time>2020-09-09T14:24:05Z</time>
      </trkpt>
      <trkpt lat="44.47481" lon="6.54836">
        <ele>1725.7</ele>
        <time>2020-09-09T14:24:21Z</time>
      </trkpt>
      <trkpt lat="44.47501" lon="6.54837">
        <ele>1724.74</ele>
        <time>2020-09-09T14:24:38Z</time>
      </trkpt>
      <trkpt lat="44.47521" lon="6.54841">
        <ele>1723.78</ele>
        <time>2020-09-09T14:24:54Z</time>
      </trkpt>
      <trkpt lat="44.47545" lon="6.54848">
        <ele>1723.3</ele>
        <time>2020-09-09T14:25:15Z</time>
      </trkpt>
      <trkpt lat="44.47562" lon="6.54855">
        <ele>1722.34</ele>
        <time>2020-09-09T14:25:32Z</time>
      </trkpt>
      <trkpt lat="44.47589" lon="6.54863">
        <ele>1721.38</ele>
        <time>2020-09-09T14:25:51Z</time>
      </trkpt>
      <trkpt lat="44.47607" lon="6.54874">
        <ele>1720.9</ele>
        <time>2020-09-09T14:26:09Z</time>
      </trkpt>
      <trkpt lat="44.47609" lon="6.54873">
        <ele>1720.42</ele>
        <time>2020-09-09T14:26:27Z</time>
      </trkpt>
      <trkpt lat="44.47605" lon="6.54875">
        <ele>1719.46</ele>
        <time>2020-09-09T14:26:46Z</time>
      </trkpt>
      <trkpt lat="44.47609" lon="6.54874">
        <ele>1720.42</ele>
        <time>2020-09-09T14:27:05Z</time>
      </trkpt>
      <trkpt lat="44.47613" lon="6.5488">
        <ele>1719.94</ele>
        <time>2020-09-09T14:27:32Z</time>
      </trkpt>
      <trkpt lat="44.47617" lon="6.54879">
        <ele>1719.94</ele>
        <time>2020-09-09T14:27:50Z</time>
      </trkpt>
      <trkpt lat="44.47629" lon="6.54869">
        <ele>1719.46</ele>
        <time>2020-09-09T14:28:18Z</time>
      </trkpt>
      <trkpt lat="44.47627" lon="6.54871">
        <ele>1719.46</ele>
        <time>2020-09-09T14:28:40Z</time>
      </trkpt>
      <trkpt lat="44.47625" lon="6.54869">
        <ele>1719.46</ele>
        <time>2020-09-09T14:29:05Z</time>
      </trkpt>
      <trkpt lat="44.47622" lon="6.54868">
        <ele>1718.97</ele>
        <time>2020-09-09T14:29:29Z</time>
      </trkpt>
      <trkpt lat="44.47621" lon="6.54867">
        <ele>1718.97</ele>
        <time>2020-09-09T14:29:59Z</time>
      </trkpt>
      <trkpt lat="44.47613" lon="6.54878">
        <ele>1718.97</ele>
        <time>2020-09-09T14:30:22Z</time>
      </trkpt>
      <trkpt lat="44.47616" lon="6.54877">
        <ele>1718.49</ele>
        <time>2020-09-09T14:30:52Z</time>
      </trkpt>
      <trkpt lat="44.47619" lon="6.5487">
        <ele>1718.49</ele>
        <time>2020-09-09T14:31:24Z</time>
      </trkpt>
      <trkpt lat="44.47617" lon="6.54871">
        <ele>1718.49</ele>
        <time>2020-09-09T14:31:48Z</time>
      </trkpt>
      <trkpt lat="44.47622" lon="6.54869">
        <ele>1718.01</ele>
        <time>2020-09-09T14:32:10Z</time>
      </trkpt>
      <trkpt lat="44.47617" lon="6.54875">
        <ele>1718.01</ele>
        <time>2020-09-09T14:32:35Z</time>
      </trkpt>
      <trkpt lat="44.47625" lon="6.54877">
        <ele>1717.53</ele>
        <time>2020-09-09T14:33:03Z</time>
      </trkpt>
      <trkpt lat="44.47621" lon="6.54864">
        <ele>1717.53</ele>
        <time>2020-09-09T14:33:27Z</time>
      </trkpt>
      <trkpt lat="44.47622" lon="6.54863">
        <ele>1717.53</ele>
        <time>2020-09-09T14:33:49Z</time>
      </trkpt>
      <trkpt lat="44.4762" lon="6.54881">
        <ele>1717.53</ele>
        <time>2020-09-09T14:34:11Z</time>
      </trkpt>
      <trkpt lat="44.4764" lon="6.54901">
        <ele>1717.53</ele>
        <time>2020-09-09T14:34:31Z</time>
      </trkpt>
      <trkpt lat="44.4766" lon="6.5491">
        <ele>1717.53</ele>
        <time>2020-09-09T14:34:48Z</time>
      </trkpt>
      <trkpt lat="44.47666" lon="6.5491">
        <ele>1717.53</ele>
        <time>2020-09-09T14:34:54Z</time>
      </trkpt>
      <trkpt lat="44.47687" lon="6.54912">
        <ele>1717.05</ele>
        <time>2020-09-09T14:35:13Z</time>
      </trkpt>
      <trkpt lat="44.47706" lon="6.54914">
        <ele>1716.57</ele>
        <time>2020-09-09T14:35:30Z</time>
      </trkpt>
      <trkpt lat="44.47724" lon="6.5492">
        <ele>1715.61</ele>
        <time>2020-09-09T14:35:47Z</time>
      </trkpt>
      <trkpt lat="44.47742" lon="6.54927">
        <ele>1714.17</ele>
        <time>2020-09-09T14:36:06Z</time>
      </trkpt>
      <trkpt lat="44.47756" lon="6.54938">
        <ele>1711.28</ele>
        <time>2020-09-09T14:36:23Z</time>
      </trkpt>
      <trkpt lat="44.47792" lon="6.54952">
        <ele>1708.88</ele>
        <time>2020-09-09T14:36:40Z</time>
      </trkpt>
      <trkpt lat="44.4781" lon="6.54955">
        <ele>1706.96</ele>
        <time>2020-09-09T14:36:58Z</time>
      </trkpt>
      <trkpt lat="44.47828" lon="6.54963">
        <ele>1706</ele>
        <time>2020-09-09T14:37:14Z</time>
      </trkpt>
      <trkpt lat="44.47852" lon="6.54972">
        <ele>1704.07</ele>
        <time>2020-09-09T14:37:33Z</time>
      </trkpt>
      <trkpt lat="44.47873" lon="6.54978">
        <ele>1703.11</ele>
        <time>2020-09-09T14:37:51Z</time>
      </trkpt>
      <trkpt lat="44.47895" lon="6.54987">
        <ele>1702.15</ele>
        <time>2020-09-09T14:38:11Z</time>
      </trkpt>
      <trkpt lat="44.47919" lon="6.54989">
        <ele>1701.19</ele>
        <time>2020-09-09T14:38:30Z</time>
      </trkpt>
      <trkpt lat="44.47938" lon="6.54985">
        <ele>1699.75</ele>
        <time>2020-09-09T14:38:50Z</time>
      </trkpt>
      <trkpt lat="44.47955" lon="6.54985">
        <ele>1698.31</ele>
        <time>2020-09-09T14:39:06Z</time>
      </trkpt>
      <trkpt lat="44.47958" lon="6.54983">
        <ele>1697.34</ele>
        <time>2020-09-09T14:39:22Z</time>
      </trkpt>
      <trkpt lat="44.47978" lon="6.54983">
        <ele>1694.46</ele>
        <time>2020-09-09T14:39:40Z</time>
      </trkpt>
      <trkpt lat="44.47998" lon="6.54998">
        <ele>1691.1</ele>
        <time>2020-09-09T14:39:57Z</time>
      </trkpt>
      <trkpt lat="44.48017" lon="6.55014">
        <ele>1689.17</ele>
        <time>2020-09-09T14:40:15Z</time>
      </trkpt>
      <trkpt lat="44.48039" lon="6.55019">
        <ele>1687.25</ele>
        <time>2020-09-09T14:40:32Z</time>
      </trkpt>
      <trkpt lat="44.48059" lon="6.55017">
        <ele>1686.77</ele>
        <time>2020-09-09T14:40:52Z</time>
      </trkpt>
      <trkpt lat="44.48079" lon="6.55019">
        <ele>1685.81</ele>
        <time>2020-09-09T14:41:10Z</time>
      </trkpt>
      <trkpt lat="44.48098" lon="6.55027">
        <ele>1684.85</ele>
        <time>2020-09-09T14:41:25Z</time>
      </trkpt>
      <trkpt lat="44.48106" lon="6.55029">
        <ele>1684.37</ele>
        <time>2020-09-09T14:41:43Z</time>
      </trkpt>
      <trkpt lat="44.48092" lon="6.55047">
        <ele>1683.89</ele>
        <time>2020-09-09T14:42:13Z</time>
      </trkpt>
      <trkpt lat="44.48123" lon="6.55032">
        <ele>1683.89</ele>
        <time>2020-09-09T14:42:34Z</time>
      </trkpt>
      <trkpt lat="44.48135" lon="6.55027">
        <ele>1683.41</ele>
        <time>2020-09-09T14:42:51Z</time>
      </trkpt>
      <trkpt lat="44.48146" lon="6.55023">
        <ele>1683.41</ele>
        <time>2020-09-09T14:43:13Z</time>
      </trkpt>
      <trkpt lat="44.48165" lon="6.55032">
        <ele>1680.52</ele>
        <time>2020-09-09T14:43:32Z</time>
      </trkpt>
      <trkpt lat="44.48185" lon="6.55035">
        <ele>1678.6</ele>
        <time>2020-09-09T14:43:48Z</time>
      </trkpt>
      <trkpt lat="44.48205" lon="6.55041">
        <ele>1677.64</ele>
        <time>2020-09-09T14:44:06Z</time>
      </trkpt>
      <trkpt lat="44.4822" lon="6.55044">
        <ele>1677.16</ele>
        <time>2020-09-09T14:44:24Z</time>
      </trkpt>
      <trkpt lat="44.48241" lon="6.55044">
        <ele>1677.16</ele>
        <time>2020-09-09T14:44:42Z</time>
      </trkpt>
      <trkpt lat="44.48263" lon="6.5504">
        <ele>1677.16</ele>
        <time>2020-09-09T14:45:01Z</time>
      </trkpt>
      <trkpt lat="44.48277" lon="6.55036">
        <ele>1676.68</ele>
        <time>2020-09-09T14:45:17Z</time>
      </trkpt>
      <trkpt lat="44.48285" lon="6.55033">
        <ele>1676.68</ele>
        <time>2020-09-09T14:45:30Z</time>
      </trkpt>
      <trkpt lat="44.48288" lon="6.5503">
        <ele>1676.68</ele>
        <time>2020-09-09T14:45:54Z</time>
      </trkpt>
      <trkpt lat="44.48299" lon="6.55026">
        <ele>1676.68</ele>
        <time>2020-09-09T14:46:11Z</time>
      </trkpt>
      <trkpt lat="44.48328" lon="6.55023">
        <ele>1677.64</ele>
        <time>2020-09-09T14:46:32Z</time>
      </trkpt>
      <trkpt lat="44.48347" lon="6.55018">
        <ele>1677.64</ele>
        <time>2020-09-09T14:46:50Z</time>
      </trkpt>
      <trkpt lat="44.48365" lon="6.55017">
        <ele>1677.64</ele>
        <time>2020-09-09T14:47:06Z</time>
      </trkpt>
      <trkpt lat="44.48382" lon="6.55016">
        <ele>1676.2</ele>
        <time>2020-09-09T14:47:21Z</time>
      </trkpt>
      <trkpt lat="44.48402" lon="6.55022">
        <ele>1676.2</ele>
        <time>2020-09-09T14:47:39Z</time>
      </trkpt>
      <trkpt lat="44.48418" lon="6.55023">
        <ele>1676.2</ele>
        <time>2020-09-09T14:47:55Z</time>
      </trkpt>
      <trkpt lat="44.4843" lon="6.5502">
        <ele>1676.2</ele>
        <time>2020-09-09T14:48:10Z</time>
      </trkpt>
      <trkpt lat="44.48444" lon="6.55022">
        <ele>1675.72</ele>
        <time>2020-09-09T14:48:25Z</time>
      </trkpt>
      <trkpt lat="44.48455" lon="6.55019">
        <ele>1675.23</ele>
        <time>2020-09-09T14:48:40Z</time>
      </trkpt>
      <trkpt lat="44.48456" lon="6.55015">
        <ele>1675.23</ele>
        <time>2020-09-09T14:48:57Z</time>
      </trkpt>
    </trkseg>
  </trk>
</gpx>